<?xml version="1.0" encoding="UTF-8" standalone="no" ?>
<gpx xmlns="http://www.topografix.com/GPX/1/1" xmlns:xsi="http://www.w3.org/2001/XMLSchema-instance" xsi:schemaLocation="http://www.topografix.com/GPX/1/1 http://www.topografix.com/GPX/1/1/gpx.xsd" version="1.1" creator="VisuGPX - https://www.visugpx.com">
  <metadata>
    <name>reco monts d\'aspremont 02/01</name>
    <desc><![CDATA[Reco avec nico, loic, julien et renaud et son nouveau vélo.]]></desc>
  </metadata>
  <trk>
    <name><![CDATA[Boucle chauve cima 01/01]]></name>
    <desc><![CDATA[(null)]]></desc>
    <trkseg>
      <trkpt lat="43.7847" lon="7.24475">
        <ele>495</ele>
        <time>2011-01-02T09:35:36Z</time>
      </trkpt>
      <trkpt lat="43.7847" lon="7.24475">
        <ele>495</ele>
        <time>2011-01-02T09:35:39Z</time>
      </trkpt>
      <trkpt lat="43.78455" lon="7.24367">
        <ele>351</ele>
        <time>2011-01-02T09:35:49Z</time>
      </trkpt>
      <trkpt lat="43.78455" lon="7.24367">
        <ele>351</ele>
        <time>2011-01-02T09:35:54Z</time>
      </trkpt>
      <trkpt lat="43.78455" lon="7.24367">
        <ele>351</ele>
        <time>2011-01-02T09:35:56Z</time>
      </trkpt>
      <trkpt lat="43.78455" lon="7.24387">
        <ele>449</ele>
        <time>2011-01-02T09:35:57Z</time>
      </trkpt>
      <trkpt lat="43.78461" lon="7.24396">
        <ele>476</ele>
        <time>2011-01-02T09:36:00Z</time>
      </trkpt>
      <trkpt lat="43.78474" lon="7.24417">
        <ele>522</ele>
        <time>2011-01-02T09:36:15Z</time>
      </trkpt>
      <trkpt lat="43.7848" lon="7.24426">
        <ele>526</ele>
        <time>2011-01-02T09:36:23Z</time>
      </trkpt>
      <trkpt lat="43.78487" lon="7.24439">
        <ele>527</ele>
        <time>2011-01-02T09:36:27Z</time>
      </trkpt>
      <trkpt lat="43.78491" lon="7.24453">
        <ele>528</ele>
        <time>2011-01-02T09:36:29Z</time>
      </trkpt>
      <trkpt lat="43.78493" lon="7.24469">
        <ele>530</ele>
        <time>2011-01-02T09:36:32Z</time>
      </trkpt>
      <trkpt lat="43.7849" lon="7.24481">
        <ele>532</ele>
        <time>2011-01-02T09:36:36Z</time>
      </trkpt>
      <trkpt lat="43.78481" lon="7.2449">
        <ele>535</ele>
        <time>2011-01-02T09:36:40Z</time>
      </trkpt>
      <trkpt lat="43.78474" lon="7.24501">
        <ele>537</ele>
        <time>2011-01-02T09:36:43Z</time>
      </trkpt>
      <trkpt lat="43.78468" lon="7.24513">
        <ele>539</ele>
        <time>2011-01-02T09:36:46Z</time>
      </trkpt>
      <trkpt lat="43.78463" lon="7.24524">
        <ele>541</ele>
        <time>2011-01-02T09:36:49Z</time>
      </trkpt>
      <trkpt lat="43.78458" lon="7.24536">
        <ele>541</ele>
        <time>2011-01-02T09:36:51Z</time>
      </trkpt>
      <trkpt lat="43.78454" lon="7.24549">
        <ele>542</ele>
        <time>2011-01-02T09:36:54Z</time>
      </trkpt>
      <trkpt lat="43.78451" lon="7.24562">
        <ele>542</ele>
        <time>2011-01-02T09:36:57Z</time>
      </trkpt>
      <trkpt lat="43.78449" lon="7.24575">
        <ele>543</ele>
        <time>2011-01-02T09:36:59Z</time>
      </trkpt>
      <trkpt lat="43.78447" lon="7.24588">
        <ele>544</ele>
        <time>2011-01-02T09:37:02Z</time>
      </trkpt>
      <trkpt lat="43.78442" lon="7.24599">
        <ele>545</ele>
        <time>2011-01-02T09:37:04Z</time>
      </trkpt>
      <trkpt lat="43.78439" lon="7.24605">
        <ele>545</ele>
        <time>2011-01-02T09:37:06Z</time>
      </trkpt>
      <trkpt lat="43.78433" lon="7.24614">
        <ele>546</ele>
        <time>2011-01-02T09:37:08Z</time>
      </trkpt>
      <trkpt lat="43.78425" lon="7.24627">
        <ele>548</ele>
        <time>2011-01-02T09:37:12Z</time>
      </trkpt>
      <trkpt lat="43.78416" lon="7.24639">
        <ele>549</ele>
        <time>2011-01-02T09:37:16Z</time>
      </trkpt>
      <trkpt lat="43.7841" lon="7.24648">
        <ele>550</ele>
        <time>2011-01-02T09:37:19Z</time>
      </trkpt>
      <trkpt lat="43.78405" lon="7.2466">
        <ele>551</ele>
        <time>2011-01-02T09:37:23Z</time>
      </trkpt>
      <trkpt lat="43.78402" lon="7.24672">
        <ele>552</ele>
        <time>2011-01-02T09:37:27Z</time>
      </trkpt>
      <trkpt lat="43.78398" lon="7.24685">
        <ele>553</ele>
        <time>2011-01-02T09:37:30Z</time>
      </trkpt>
      <trkpt lat="43.78395" lon="7.24698">
        <ele>553</ele>
        <time>2011-01-02T09:37:34Z</time>
      </trkpt>
      <trkpt lat="43.78391" lon="7.24712">
        <ele>555</ele>
        <time>2011-01-02T09:37:38Z</time>
      </trkpt>
      <trkpt lat="43.7839" lon="7.24726">
        <ele>556</ele>
        <time>2011-01-02T09:37:42Z</time>
      </trkpt>
      <trkpt lat="43.78389" lon="7.24736">
        <ele>556</ele>
        <time>2011-01-02T09:37:44Z</time>
      </trkpt>
      <trkpt lat="43.7839" lon="7.24749">
        <ele>557</ele>
        <time>2011-01-02T09:37:47Z</time>
      </trkpt>
      <trkpt lat="43.7839" lon="7.24763">
        <ele>559</ele>
        <time>2011-01-02T09:37:50Z</time>
      </trkpt>
      <trkpt lat="43.78389" lon="7.24777">
        <ele>562</ele>
        <time>2011-01-02T09:37:52Z</time>
      </trkpt>
      <trkpt lat="43.78387" lon="7.24791">
        <ele>563</ele>
        <time>2011-01-02T09:37:55Z</time>
      </trkpt>
      <trkpt lat="43.78385" lon="7.24806">
        <ele>565</ele>
        <time>2011-01-02T09:37:58Z</time>
      </trkpt>
      <trkpt lat="43.78382" lon="7.24821">
        <ele>566</ele>
        <time>2011-01-02T09:38:01Z</time>
      </trkpt>
      <trkpt lat="43.78379" lon="7.24836">
        <ele>567</ele>
        <time>2011-01-02T09:38:04Z</time>
      </trkpt>
      <trkpt lat="43.78376" lon="7.2485">
        <ele>568</ele>
        <time>2011-01-02T09:38:07Z</time>
      </trkpt>
      <trkpt lat="43.78373" lon="7.24863">
        <ele>568</ele>
        <time>2011-01-02T09:38:10Z</time>
      </trkpt>
      <trkpt lat="43.7837" lon="7.24877">
        <ele>569</ele>
        <time>2011-01-02T09:38:13Z</time>
      </trkpt>
      <trkpt lat="43.78369" lon="7.24892">
        <ele>570</ele>
        <time>2011-01-02T09:38:16Z</time>
      </trkpt>
      <trkpt lat="43.78367" lon="7.24907">
        <ele>569</ele>
        <time>2011-01-02T09:38:19Z</time>
      </trkpt>
      <trkpt lat="43.78366" lon="7.24922">
        <ele>569</ele>
        <time>2011-01-02T09:38:22Z</time>
      </trkpt>
      <trkpt lat="43.78364" lon="7.24937">
        <ele>569</ele>
        <time>2011-01-02T09:38:25Z</time>
      </trkpt>
      <trkpt lat="43.78363" lon="7.24952">
        <ele>568</ele>
        <time>2011-01-02T09:38:28Z</time>
      </trkpt>
      <trkpt lat="43.7836" lon="7.24967">
        <ele>568</ele>
        <time>2011-01-02T09:38:31Z</time>
      </trkpt>
      <trkpt lat="43.78357" lon="7.24982">
        <ele>569</ele>
        <time>2011-01-02T09:38:34Z</time>
      </trkpt>
      <trkpt lat="43.78354" lon="7.24995">
        <ele>569</ele>
        <time>2011-01-02T09:38:37Z</time>
      </trkpt>
      <trkpt lat="43.78349" lon="7.25009">
        <ele>570</ele>
        <time>2011-01-02T09:38:40Z</time>
      </trkpt>
      <trkpt lat="43.78344" lon="7.25022">
        <ele>571</ele>
        <time>2011-01-02T09:38:43Z</time>
      </trkpt>
      <trkpt lat="43.78338" lon="7.25035">
        <ele>571</ele>
        <time>2011-01-02T09:38:46Z</time>
      </trkpt>
      <trkpt lat="43.78333" lon="7.25047">
        <ele>572</ele>
        <time>2011-01-02T09:38:49Z</time>
      </trkpt>
      <trkpt lat="43.78327" lon="7.25059">
        <ele>573</ele>
        <time>2011-01-02T09:38:52Z</time>
      </trkpt>
      <trkpt lat="43.78321" lon="7.2507">
        <ele>574</ele>
        <time>2011-01-02T09:38:55Z</time>
      </trkpt>
      <trkpt lat="43.78315" lon="7.2508">
        <ele>574</ele>
        <time>2011-01-02T09:38:58Z</time>
      </trkpt>
      <trkpt lat="43.78309" lon="7.2509">
        <ele>574</ele>
        <time>2011-01-02T09:39:01Z</time>
      </trkpt>
      <trkpt lat="43.78302" lon="7.25101">
        <ele>575</ele>
        <time>2011-01-02T09:39:04Z</time>
      </trkpt>
      <trkpt lat="43.78294" lon="7.25112">
        <ele>576</ele>
        <time>2011-01-02T09:39:08Z</time>
      </trkpt>
      <trkpt lat="43.78289" lon="7.2512">
        <ele>576</ele>
        <time>2011-01-02T09:39:11Z</time>
      </trkpt>
      <trkpt lat="43.78282" lon="7.25132">
        <ele>577</ele>
        <time>2011-01-02T09:39:15Z</time>
      </trkpt>
      <trkpt lat="43.78275" lon="7.25142">
        <ele>577</ele>
        <time>2011-01-02T09:39:18Z</time>
      </trkpt>
      <trkpt lat="43.78269" lon="7.25152">
        <ele>578</ele>
        <time>2011-01-02T09:39:22Z</time>
      </trkpt>
      <trkpt lat="43.78262" lon="7.25164">
        <ele>578</ele>
        <time>2011-01-02T09:39:27Z</time>
      </trkpt>
      <trkpt lat="43.78256" lon="7.25175">
        <ele>579</ele>
        <time>2011-01-02T09:39:31Z</time>
      </trkpt>
      <trkpt lat="43.78249" lon="7.25186">
        <ele>580</ele>
        <time>2011-01-02T09:39:34Z</time>
      </trkpt>
      <trkpt lat="43.78243" lon="7.25196">
        <ele>581</ele>
        <time>2011-01-02T09:39:38Z</time>
      </trkpt>
      <trkpt lat="43.78242" lon="7.25198">
        <ele>581</ele>
        <time>2011-01-02T09:39:39Z</time>
      </trkpt>
      <trkpt lat="43.78235" lon="7.25209">
        <ele>583</ele>
        <time>2011-01-02T09:39:43Z</time>
      </trkpt>
      <trkpt lat="43.78229" lon="7.25219">
        <ele>583</ele>
        <time>2011-01-02T09:39:47Z</time>
      </trkpt>
      <trkpt lat="43.78223" lon="7.2523">
        <ele>583</ele>
        <time>2011-01-02T09:39:52Z</time>
      </trkpt>
      <trkpt lat="43.78216" lon="7.25241">
        <ele>584</ele>
        <time>2011-01-02T09:39:56Z</time>
      </trkpt>
      <trkpt lat="43.78211" lon="7.25248">
        <ele>585</ele>
        <time>2011-01-02T09:39:58Z</time>
      </trkpt>
      <trkpt lat="43.78205" lon="7.2526">
        <ele>585</ele>
        <time>2011-01-02T09:40:02Z</time>
      </trkpt>
      <trkpt lat="43.782" lon="7.25272">
        <ele>586</ele>
        <time>2011-01-02T09:40:06Z</time>
      </trkpt>
      <trkpt lat="43.78197" lon="7.25283">
        <ele>587</ele>
        <time>2011-01-02T09:40:10Z</time>
      </trkpt>
      <trkpt lat="43.78195" lon="7.25298">
        <ele>585</ele>
        <time>2011-01-02T09:40:14Z</time>
      </trkpt>
      <trkpt lat="43.78197" lon="7.25311">
        <ele>585</ele>
        <time>2011-01-02T09:40:17Z</time>
      </trkpt>
      <trkpt lat="43.78199" lon="7.25325">
        <ele>585</ele>
        <time>2011-01-02T09:40:20Z</time>
      </trkpt>
      <trkpt lat="43.78201" lon="7.25335">
        <ele>585</ele>
        <time>2011-01-02T09:40:22Z</time>
      </trkpt>
      <trkpt lat="43.78203" lon="7.25348">
        <ele>585</ele>
        <time>2011-01-02T09:40:25Z</time>
      </trkpt>
      <trkpt lat="43.78203" lon="7.2535">
        <ele>585</ele>
        <time>2011-01-02T09:40:26Z</time>
      </trkpt>
      <trkpt lat="43.78206" lon="7.25363">
        <ele>586</ele>
        <time>2011-01-02T09:40:30Z</time>
      </trkpt>
      <trkpt lat="43.78206" lon="7.25376">
        <ele>586</ele>
        <time>2011-01-02T09:40:36Z</time>
      </trkpt>
      <trkpt lat="43.7821" lon="7.25388">
        <ele>587</ele>
        <time>2011-01-02T09:40:40Z</time>
      </trkpt>
      <trkpt lat="43.78215" lon="7.25401">
        <ele>586</ele>
        <time>2011-01-02T09:40:42Z</time>
      </trkpt>
      <trkpt lat="43.78219" lon="7.25414">
        <ele>586</ele>
        <time>2011-01-02T09:40:45Z</time>
      </trkpt>
      <trkpt lat="43.78223" lon="7.25426">
        <ele>586</ele>
        <time>2011-01-02T09:40:47Z</time>
      </trkpt>
      <trkpt lat="43.78224" lon="7.2543">
        <ele>586</ele>
        <time>2011-01-02T09:40:47Z</time>
      </trkpt>
      <trkpt lat="43.78227" lon="7.25442">
        <ele>585</ele>
        <time>2011-01-02T09:40:51Z</time>
      </trkpt>
      <trkpt lat="43.78222" lon="7.25454">
        <ele>584</ele>
        <time>2011-01-02T09:40:58Z</time>
      </trkpt>
      <trkpt lat="43.78213" lon="7.25459">
        <ele>582</ele>
        <time>2011-01-02T09:41:02Z</time>
      </trkpt>
      <trkpt lat="43.7821" lon="7.25459">
        <ele>580</ele>
        <time>2011-01-02T09:41:08Z</time>
      </trkpt>
      <trkpt lat="43.78221" lon="7.2546">
        <ele>578</ele>
        <time>2011-01-02T09:41:13Z</time>
      </trkpt>
      <trkpt lat="43.78204" lon="7.25469">
        <ele>569</ele>
        <time>2011-01-02T09:41:33Z</time>
      </trkpt>
      <trkpt lat="43.78195" lon="7.25476">
        <ele>567</ele>
        <time>2011-01-02T09:41:38Z</time>
      </trkpt>
      <trkpt lat="43.78189" lon="7.25485">
        <ele>565</ele>
        <time>2011-01-02T09:41:42Z</time>
      </trkpt>
      <trkpt lat="43.78183" lon="7.25496">
        <ele>562</ele>
        <time>2011-01-02T09:41:48Z</time>
      </trkpt>
      <trkpt lat="43.78191" lon="7.25505">
        <ele>562</ele>
        <time>2011-01-02T09:42:30Z</time>
      </trkpt>
      <trkpt lat="43.78191" lon="7.25505">
        <ele>562</ele>
        <time>2011-01-02T09:42:33Z</time>
      </trkpt>
      <trkpt lat="43.78186" lon="7.25517">
        <ele>558</ele>
        <time>2011-01-02T09:42:59Z</time>
      </trkpt>
      <trkpt lat="43.78179" lon="7.25525">
        <ele>561</ele>
        <time>2011-01-02T09:43:33Z</time>
      </trkpt>
      <trkpt lat="43.78171" lon="7.25532">
        <ele>557</ele>
        <time>2011-01-02T09:43:46Z</time>
      </trkpt>
      <trkpt lat="43.78166" lon="7.25544">
        <ele>556</ele>
        <time>2011-01-02T09:43:49Z</time>
      </trkpt>
      <trkpt lat="43.78165" lon="7.25547">
        <ele>555</ele>
        <time>2011-01-02T09:43:49Z</time>
      </trkpt>
      <trkpt lat="43.78161" lon="7.25559">
        <ele>554</ele>
        <time>2011-01-02T09:43:51Z</time>
      </trkpt>
      <trkpt lat="43.78158" lon="7.25572">
        <ele>553</ele>
        <time>2011-01-02T09:43:53Z</time>
      </trkpt>
      <trkpt lat="43.78157" lon="7.25588">
        <ele>552</ele>
        <time>2011-01-02T09:43:56Z</time>
      </trkpt>
      <trkpt lat="43.78162" lon="7.25603">
        <ele>551</ele>
        <time>2011-01-02T09:43:58Z</time>
      </trkpt>
      <trkpt lat="43.78164" lon="7.25608">
        <ele>551</ele>
        <time>2011-01-02T09:44:00Z</time>
      </trkpt>
      <trkpt lat="43.78168" lon="7.25623">
        <ele>552</ele>
        <time>2011-01-02T09:44:04Z</time>
      </trkpt>
      <trkpt lat="43.78171" lon="7.25637">
        <ele>552</ele>
        <time>2011-01-02T09:44:06Z</time>
      </trkpt>
      <trkpt lat="43.78175" lon="7.25655">
        <ele>553</ele>
        <time>2011-01-02T09:44:09Z</time>
      </trkpt>
      <trkpt lat="43.78176" lon="7.2567">
        <ele>552</ele>
        <time>2011-01-02T09:44:11Z</time>
      </trkpt>
      <trkpt lat="43.78177" lon="7.25685">
        <ele>552</ele>
        <time>2011-01-02T09:44:12Z</time>
      </trkpt>
      <trkpt lat="43.7818" lon="7.25702">
        <ele>550</ele>
        <time>2011-01-02T09:44:15Z</time>
      </trkpt>
      <trkpt lat="43.78186" lon="7.25716">
        <ele>550</ele>
        <time>2011-01-02T09:44:17Z</time>
      </trkpt>
      <trkpt lat="43.78193" lon="7.25727">
        <ele>550</ele>
        <time>2011-01-02T09:44:19Z</time>
      </trkpt>
      <trkpt lat="43.78198" lon="7.25738">
        <ele>550</ele>
        <time>2011-01-02T09:44:21Z</time>
      </trkpt>
      <trkpt lat="43.78204" lon="7.25751">
        <ele>550</ele>
        <time>2011-01-02T09:44:24Z</time>
      </trkpt>
      <trkpt lat="43.7821" lon="7.25763">
        <ele>550</ele>
        <time>2011-01-02T09:44:27Z</time>
      </trkpt>
      <trkpt lat="43.78215" lon="7.25774">
        <ele>550</ele>
        <time>2011-01-02T09:44:29Z</time>
      </trkpt>
      <trkpt lat="43.78219" lon="7.25786">
        <ele>550</ele>
        <time>2011-01-02T09:44:32Z</time>
      </trkpt>
      <trkpt lat="43.78226" lon="7.25799">
        <ele>550</ele>
        <time>2011-01-02T09:44:35Z</time>
      </trkpt>
      <trkpt lat="43.78232" lon="7.25811">
        <ele>549</ele>
        <time>2011-01-02T09:44:37Z</time>
      </trkpt>
      <trkpt lat="43.78239" lon="7.25823">
        <ele>549</ele>
        <time>2011-01-02T09:44:40Z</time>
      </trkpt>
      <trkpt lat="43.78247" lon="7.25829">
        <ele>550</ele>
        <time>2011-01-02T09:44:44Z</time>
      </trkpt>
      <trkpt lat="43.78257" lon="7.25828">
        <ele>548</ele>
        <time>2011-01-02T09:44:48Z</time>
      </trkpt>
      <trkpt lat="43.78263" lon="7.25829">
        <ele>547</ele>
        <time>2011-01-02T09:44:50Z</time>
      </trkpt>
      <trkpt lat="43.78273" lon="7.25827">
        <ele>546</ele>
        <time>2011-01-02T09:44:54Z</time>
      </trkpt>
      <trkpt lat="43.78278" lon="7.25826">
        <ele>545</ele>
        <time>2011-01-02T09:44:58Z</time>
      </trkpt>
      <trkpt lat="43.78286" lon="7.25819">
        <ele>541</ele>
        <time>2011-01-02T09:45:06Z</time>
      </trkpt>
      <trkpt lat="43.78287" lon="7.25815">
        <ele>540</ele>
        <time>2011-01-02T09:45:08Z</time>
      </trkpt>
      <trkpt lat="43.78303" lon="7.25815">
        <ele>523</ele>
        <time>2011-01-02T09:45:54Z</time>
      </trkpt>
      <trkpt lat="43.78311" lon="7.25827">
        <ele>522</ele>
        <time>2011-01-02T09:45:58Z</time>
      </trkpt>
      <trkpt lat="43.78319" lon="7.25839">
        <ele>522</ele>
        <time>2011-01-02T09:46:00Z</time>
      </trkpt>
      <trkpt lat="43.78326" lon="7.2585">
        <ele>522</ele>
        <time>2011-01-02T09:46:02Z</time>
      </trkpt>
      <trkpt lat="43.78332" lon="7.25859">
        <ele>522</ele>
        <time>2011-01-02T09:46:03Z</time>
      </trkpt>
      <trkpt lat="43.78343" lon="7.25868">
        <ele>521</ele>
        <time>2011-01-02T09:46:06Z</time>
      </trkpt>
      <trkpt lat="43.78355" lon="7.25875">
        <ele>519</ele>
        <time>2011-01-02T09:46:08Z</time>
      </trkpt>
      <trkpt lat="43.78366" lon="7.25883">
        <ele>519</ele>
        <time>2011-01-02T09:46:10Z</time>
      </trkpt>
      <trkpt lat="43.78372" lon="7.25893">
        <ele>517</ele>
        <time>2011-01-02T09:46:12Z</time>
      </trkpt>
      <trkpt lat="43.7837" lon="7.25907">
        <ele>514</ele>
        <time>2011-01-02T09:46:16Z</time>
      </trkpt>
      <trkpt lat="43.78363" lon="7.25917">
        <ele>512</ele>
        <time>2011-01-02T09:46:18Z</time>
      </trkpt>
      <trkpt lat="43.78356" lon="7.25928">
        <ele>510</ele>
        <time>2011-01-02T09:46:20Z</time>
      </trkpt>
      <trkpt lat="43.78352" lon="7.25939">
        <ele>508</ele>
        <time>2011-01-02T09:46:22Z</time>
      </trkpt>
      <trkpt lat="43.78351" lon="7.25954">
        <ele>506</ele>
        <time>2011-01-02T09:46:25Z</time>
      </trkpt>
      <trkpt lat="43.78353" lon="7.25968">
        <ele>505</ele>
        <time>2011-01-02T09:46:28Z</time>
      </trkpt>
      <trkpt lat="43.78355" lon="7.25985">
        <ele>504</ele>
        <time>2011-01-02T09:46:30Z</time>
      </trkpt>
      <trkpt lat="43.78357" lon="7.25999">
        <ele>503</ele>
        <time>2011-01-02T09:46:31Z</time>
      </trkpt>
      <trkpt lat="43.7836" lon="7.26016">
        <ele>502</ele>
        <time>2011-01-02T09:46:34Z</time>
      </trkpt>
      <trkpt lat="43.78362" lon="7.26032">
        <ele>502</ele>
        <time>2011-01-02T09:46:36Z</time>
      </trkpt>
      <trkpt lat="43.78363" lon="7.26046">
        <ele>501</ele>
        <time>2011-01-02T09:46:38Z</time>
      </trkpt>
      <trkpt lat="43.78365" lon="7.2606">
        <ele>501</ele>
        <time>2011-01-02T09:46:41Z</time>
      </trkpt>
      <trkpt lat="43.78365" lon="7.2607">
        <ele>501</ele>
        <time>2011-01-02T09:46:42Z</time>
      </trkpt>
      <trkpt lat="43.78366" lon="7.26083">
        <ele>501</ele>
        <time>2011-01-02T09:46:44Z</time>
      </trkpt>
      <trkpt lat="43.78366" lon="7.26097">
        <ele>500</ele>
        <time>2011-01-02T09:46:47Z</time>
      </trkpt>
      <trkpt lat="43.78368" lon="7.26111">
        <ele>499</ele>
        <time>2011-01-02T09:46:49Z</time>
      </trkpt>
      <trkpt lat="43.78369" lon="7.26125">
        <ele>498</ele>
        <time>2011-01-02T09:46:51Z</time>
      </trkpt>
      <trkpt lat="43.78372" lon="7.2614">
        <ele>498</ele>
        <time>2011-01-02T09:46:54Z</time>
      </trkpt>
      <trkpt lat="43.78376" lon="7.26155">
        <ele>499</ele>
        <time>2011-01-02T09:46:56Z</time>
      </trkpt>
      <trkpt lat="43.78386" lon="7.26168">
        <ele>500</ele>
        <time>2011-01-02T09:46:58Z</time>
      </trkpt>
      <trkpt lat="43.78396" lon="7.26177">
        <ele>500</ele>
        <time>2011-01-02T09:47:01Z</time>
      </trkpt>
      <trkpt lat="43.78405" lon="7.26184">
        <ele>500</ele>
        <time>2011-01-02T09:47:03Z</time>
      </trkpt>
      <trkpt lat="43.78415" lon="7.26191">
        <ele>501</ele>
        <time>2011-01-02T09:47:06Z</time>
      </trkpt>
      <trkpt lat="43.78423" lon="7.26197">
        <ele>500</ele>
        <time>2011-01-02T09:47:09Z</time>
      </trkpt>
      <trkpt lat="43.78428" lon="7.262">
        <ele>499</ele>
        <time>2011-01-02T09:47:10Z</time>
      </trkpt>
      <trkpt lat="43.78437" lon="7.26208">
        <ele>498</ele>
        <time>2011-01-02T09:47:13Z</time>
      </trkpt>
      <trkpt lat="43.78444" lon="7.26221">
        <ele>496</ele>
        <time>2011-01-02T09:47:16Z</time>
      </trkpt>
      <trkpt lat="43.78447" lon="7.26233">
        <ele>495</ele>
        <time>2011-01-02T09:47:18Z</time>
      </trkpt>
      <trkpt lat="43.78449" lon="7.26246">
        <ele>494</ele>
        <time>2011-01-02T09:47:19Z</time>
      </trkpt>
      <trkpt lat="43.78452" lon="7.26264">
        <ele>493</ele>
        <time>2011-01-02T09:47:21Z</time>
      </trkpt>
      <trkpt lat="43.78453" lon="7.26277">
        <ele>491</ele>
        <time>2011-01-02T09:47:24Z</time>
      </trkpt>
      <trkpt lat="43.78452" lon="7.26289">
        <ele>488</ele>
        <time>2011-01-02T09:47:26Z</time>
      </trkpt>
      <trkpt lat="43.7845" lon="7.26304">
        <ele>483</ele>
        <time>2011-01-02T09:47:29Z</time>
      </trkpt>
      <trkpt lat="43.7845" lon="7.26307">
        <ele>482</ele>
        <time>2011-01-02T09:47:33Z</time>
      </trkpt>
      <trkpt lat="43.78449" lon="7.26321">
        <ele>475</ele>
        <time>2011-01-02T09:47:40Z</time>
      </trkpt>
      <trkpt lat="43.78447" lon="7.26324">
        <ele>474</ele>
        <time>2011-01-02T09:48:12Z</time>
      </trkpt>
      <trkpt lat="43.78443" lon="7.26337">
        <ele>471</ele>
        <time>2011-01-02T09:48:42Z</time>
      </trkpt>
      <trkpt lat="43.7844" lon="7.2635">
        <ele>470</ele>
        <time>2011-01-02T09:48:45Z</time>
      </trkpt>
      <trkpt lat="43.78437" lon="7.26364">
        <ele>470</ele>
        <time>2011-01-02T09:48:48Z</time>
      </trkpt>
      <trkpt lat="43.78435" lon="7.26377">
        <ele>469</ele>
        <time>2011-01-02T09:48:50Z</time>
      </trkpt>
      <trkpt lat="43.78431" lon="7.2639">
        <ele>470</ele>
        <time>2011-01-02T09:48:53Z</time>
      </trkpt>
      <trkpt lat="43.78427" lon="7.26402">
        <ele>469</ele>
        <time>2011-01-02T09:48:58Z</time>
      </trkpt>
      <trkpt lat="43.78428" lon="7.26415">
        <ele>462</ele>
        <time>2011-01-02T09:49:19Z</time>
      </trkpt>
      <trkpt lat="43.78439" lon="7.26421">
        <ele>457</ele>
        <time>2011-01-02T09:49:38Z</time>
      </trkpt>
      <trkpt lat="43.78449" lon="7.2642">
        <ele>456</ele>
        <time>2011-01-02T09:49:45Z</time>
      </trkpt>
      <trkpt lat="43.78458" lon="7.2643">
        <ele>449</ele>
        <time>2011-01-02T09:50:26Z</time>
      </trkpt>
      <trkpt lat="43.78459" lon="7.26445">
        <ele>446</ele>
        <time>2011-01-02T09:50:45Z</time>
      </trkpt>
      <trkpt lat="43.7846" lon="7.26457">
        <ele>446</ele>
        <time>2011-01-02T09:50:48Z</time>
      </trkpt>
      <trkpt lat="43.78459" lon="7.2647">
        <ele>445</ele>
        <time>2011-01-02T09:50:52Z</time>
      </trkpt>
      <trkpt lat="43.78464" lon="7.26459">
        <ele>443</ele>
        <time>2011-01-02T09:51:00Z</time>
      </trkpt>
      <trkpt lat="43.78468" lon="7.26472">
        <ele>442</ele>
        <time>2011-01-02T09:51:14Z</time>
      </trkpt>
      <trkpt lat="43.78469" lon="7.26487">
        <ele>440</ele>
        <time>2011-01-02T09:51:17Z</time>
      </trkpt>
      <trkpt lat="43.7847" lon="7.26502">
        <ele>439</ele>
        <time>2011-01-02T09:51:20Z</time>
      </trkpt>
      <trkpt lat="43.78471" lon="7.26514">
        <ele>436</ele>
        <time>2011-01-02T09:51:23Z</time>
      </trkpt>
      <trkpt lat="43.78471" lon="7.26529">
        <ele>434</ele>
        <time>2011-01-02T09:51:27Z</time>
      </trkpt>
      <trkpt lat="43.78468" lon="7.26543">
        <ele>430</ele>
        <time>2011-01-02T09:51:30Z</time>
      </trkpt>
      <trkpt lat="43.78467" lon="7.26556">
        <ele>426</ele>
        <time>2011-01-02T09:51:34Z</time>
      </trkpt>
      <trkpt lat="43.78474" lon="7.26563">
        <ele>406</ele>
        <time>2011-01-02T09:52:27Z</time>
      </trkpt>
      <trkpt lat="43.78483" lon="7.26563">
        <ele>402</ele>
        <time>2011-01-02T09:52:45Z</time>
      </trkpt>
      <trkpt lat="43.78487" lon="7.26568">
        <ele>400</ele>
        <time>2011-01-02T09:52:52Z</time>
      </trkpt>
      <trkpt lat="43.78495" lon="7.26574">
        <ele>400</ele>
        <time>2011-01-02T09:52:58Z</time>
      </trkpt>
      <trkpt lat="43.78504" lon="7.26574">
        <ele>400</ele>
        <time>2011-01-02T09:53:06Z</time>
      </trkpt>
      <trkpt lat="43.78513" lon="7.26579">
        <ele>396</ele>
        <time>2011-01-02T09:53:16Z</time>
      </trkpt>
      <trkpt lat="43.78517" lon="7.26592">
        <ele>394</ele>
        <time>2011-01-02T09:53:27Z</time>
      </trkpt>
      <trkpt lat="43.78518" lon="7.26604">
        <ele>388</ele>
        <time>2011-01-02T09:53:48Z</time>
      </trkpt>
      <trkpt lat="43.78526" lon="7.26615">
        <ele>382</ele>
        <time>2011-01-02T09:54:20Z</time>
      </trkpt>
      <trkpt lat="43.78528" lon="7.26616">
        <ele>382</ele>
        <time>2011-01-02T09:54:21Z</time>
      </trkpt>
      <trkpt lat="43.78538" lon="7.26619">
        <ele>381</ele>
        <time>2011-01-02T09:54:24Z</time>
      </trkpt>
      <trkpt lat="43.78547" lon="7.26622">
        <ele>380</ele>
        <time>2011-01-02T09:54:27Z</time>
      </trkpt>
      <trkpt lat="43.78554" lon="7.26631">
        <ele>380</ele>
        <time>2011-01-02T09:54:30Z</time>
      </trkpt>
      <trkpt lat="43.78559" lon="7.26645">
        <ele>379</ele>
        <time>2011-01-02T09:54:33Z</time>
      </trkpt>
      <trkpt lat="43.7856" lon="7.2666">
        <ele>379</ele>
        <time>2011-01-02T09:54:36Z</time>
      </trkpt>
      <trkpt lat="43.78558" lon="7.26677">
        <ele>378</ele>
        <time>2011-01-02T09:54:39Z</time>
      </trkpt>
      <trkpt lat="43.78554" lon="7.26692">
        <ele>378</ele>
        <time>2011-01-02T09:54:41Z</time>
      </trkpt>
      <trkpt lat="43.7855" lon="7.26704">
        <ele>377</ele>
        <time>2011-01-02T09:54:43Z</time>
      </trkpt>
      <trkpt lat="43.78547" lon="7.2672">
        <ele>375</ele>
        <time>2011-01-02T09:54:46Z</time>
      </trkpt>
      <trkpt lat="43.78546" lon="7.26736">
        <ele>374</ele>
        <time>2011-01-02T09:54:49Z</time>
      </trkpt>
      <trkpt lat="43.78544" lon="7.26752">
        <ele>373</ele>
        <time>2011-01-02T09:54:52Z</time>
      </trkpt>
      <trkpt lat="43.7854" lon="7.26768">
        <ele>372</ele>
        <time>2011-01-02T09:54:54Z</time>
      </trkpt>
      <trkpt lat="43.78536" lon="7.26781">
        <ele>371</ele>
        <time>2011-01-02T09:54:56Z</time>
      </trkpt>
      <trkpt lat="43.7854" lon="7.26788">
        <ele>367</ele>
        <time>2011-01-02T09:55:08Z</time>
      </trkpt>
      <trkpt lat="43.78543" lon="7.26804">
        <ele>366</ele>
        <time>2011-01-02T09:55:19Z</time>
      </trkpt>
      <trkpt lat="43.78542" lon="7.26818">
        <ele>366</ele>
        <time>2011-01-02T09:55:25Z</time>
      </trkpt>
      <trkpt lat="43.78543" lon="7.26831">
        <ele>364</ele>
        <time>2011-01-02T09:55:30Z</time>
      </trkpt>
      <trkpt lat="43.78544" lon="7.26845">
        <ele>358</ele>
        <time>2011-01-02T09:55:48Z</time>
      </trkpt>
      <trkpt lat="43.78539" lon="7.26857">
        <ele>358</ele>
        <time>2011-01-02T09:55:53Z</time>
      </trkpt>
      <trkpt lat="43.78529" lon="7.26856">
        <ele>356</ele>
        <time>2011-01-02T09:55:57Z</time>
      </trkpt>
      <trkpt lat="43.78514" lon="7.26846">
        <ele>357</ele>
        <time>2011-01-02T09:56:06Z</time>
      </trkpt>
      <trkpt lat="43.7851" lon="7.26844">
        <ele>358</ele>
        <time>2011-01-02T09:56:14Z</time>
      </trkpt>
      <trkpt lat="43.785" lon="7.26826">
        <ele>360</ele>
        <time>2011-01-02T09:56:32Z</time>
      </trkpt>
      <trkpt lat="43.78496" lon="7.26804">
        <ele>360</ele>
        <time>2011-01-02T09:56:54Z</time>
      </trkpt>
      <trkpt lat="43.78496" lon="7.26804">
        <ele>360</ele>
        <time>2011-01-02T09:56:56Z</time>
      </trkpt>
      <trkpt lat="43.78489" lon="7.26792">
        <ele>363</ele>
        <time>2011-01-02T09:57:11Z</time>
      </trkpt>
      <trkpt lat="43.78489" lon="7.26792">
        <ele>363</ele>
        <time>2011-01-02T09:57:14Z</time>
      </trkpt>
      <trkpt lat="43.7848" lon="7.26788">
        <ele>364</ele>
        <time>2011-01-02T09:57:28Z</time>
      </trkpt>
      <trkpt lat="43.7847" lon="7.2679">
        <ele>368</ele>
        <time>2011-01-02T09:57:45Z</time>
      </trkpt>
      <trkpt lat="43.7846" lon="7.26789">
        <ele>370</ele>
        <time>2011-01-02T09:58:01Z</time>
      </trkpt>
      <trkpt lat="43.7845" lon="7.26788">
        <ele>371</ele>
        <time>2011-01-02T09:58:11Z</time>
      </trkpt>
      <trkpt lat="43.78441" lon="7.26788">
        <ele>372</ele>
        <time>2011-01-02T09:58:25Z</time>
      </trkpt>
      <trkpt lat="43.78431" lon="7.26792">
        <ele>374</ele>
        <time>2011-01-02T09:58:37Z</time>
      </trkpt>
      <trkpt lat="43.78423" lon="7.26796">
        <ele>375</ele>
        <time>2011-01-02T09:58:49Z</time>
      </trkpt>
      <trkpt lat="43.78414" lon="7.268">
        <ele>378</ele>
        <time>2011-01-02T09:59:07Z</time>
      </trkpt>
      <trkpt lat="43.78405" lon="7.26802">
        <ele>380</ele>
        <time>2011-01-02T09:59:21Z</time>
      </trkpt>
      <trkpt lat="43.78396" lon="7.26806">
        <ele>381</ele>
        <time>2011-01-02T09:59:34Z</time>
      </trkpt>
      <trkpt lat="43.78389" lon="7.26815">
        <ele>384</ele>
        <time>2011-01-02T09:59:48Z</time>
      </trkpt>
      <trkpt lat="43.78382" lon="7.26824">
        <ele>392</ele>
        <time>2011-01-02T10:01:00Z</time>
      </trkpt>
      <trkpt lat="43.78372" lon="7.26821">
        <ele>394</ele>
        <time>2011-01-02T10:01:10Z</time>
      </trkpt>
      <trkpt lat="43.78363" lon="7.26825">
        <ele>395</ele>
        <time>2011-01-02T10:01:21Z</time>
      </trkpt>
      <trkpt lat="43.78354" lon="7.26831">
        <ele>396</ele>
        <time>2011-01-02T10:01:32Z</time>
      </trkpt>
      <trkpt lat="43.78345" lon="7.26835">
        <ele>404</ele>
        <time>2011-01-02T10:02:02Z</time>
      </trkpt>
      <trkpt lat="43.78339" lon="7.26846">
        <ele>406</ele>
        <time>2011-01-02T10:02:29Z</time>
      </trkpt>
      <trkpt lat="43.78336" lon="7.26861">
        <ele>407</ele>
        <time>2011-01-02T10:02:47Z</time>
      </trkpt>
      <trkpt lat="43.78334" lon="7.26873">
        <ele>410</ele>
        <time>2011-01-02T10:03:01Z</time>
      </trkpt>
      <trkpt lat="43.78333" lon="7.26886">
        <ele>420</ele>
        <time>2011-01-02T10:03:24Z</time>
      </trkpt>
      <trkpt lat="43.78326" lon="7.26894">
        <ele>420</ele>
        <time>2011-01-02T10:03:31Z</time>
      </trkpt>
      <trkpt lat="43.78319" lon="7.26903">
        <ele>422</ele>
        <time>2011-01-02T10:03:35Z</time>
      </trkpt>
      <trkpt lat="43.7831" lon="7.26914">
        <ele>422</ele>
        <time>2011-01-02T10:03:38Z</time>
      </trkpt>
      <trkpt lat="43.78302" lon="7.26923">
        <ele>422</ele>
        <time>2011-01-02T10:03:41Z</time>
      </trkpt>
      <trkpt lat="43.78295" lon="7.26933">
        <ele>423</ele>
        <time>2011-01-02T10:03:45Z</time>
      </trkpt>
      <trkpt lat="43.78286" lon="7.26939">
        <ele>422</ele>
        <time>2011-01-02T10:03:51Z</time>
      </trkpt>
      <trkpt lat="43.78277" lon="7.26943">
        <ele>423</ele>
        <time>2011-01-02T10:03:56Z</time>
      </trkpt>
      <trkpt lat="43.78268" lon="7.26945">
        <ele>425</ele>
        <time>2011-01-02T10:04:05Z</time>
      </trkpt>
      <trkpt lat="43.78258" lon="7.26944">
        <ele>429</ele>
        <time>2011-01-02T10:04:21Z</time>
      </trkpt>
      <trkpt lat="43.78249" lon="7.26942">
        <ele>428</ele>
        <time>2011-01-02T10:04:34Z</time>
      </trkpt>
      <trkpt lat="43.78246" lon="7.26942">
        <ele>428</ele>
        <time>2011-01-02T10:04:37Z</time>
      </trkpt>
      <trkpt lat="43.78238" lon="7.26945">
        <ele>429</ele>
        <time>2011-01-02T10:04:53Z</time>
      </trkpt>
      <trkpt lat="43.7823" lon="7.26953">
        <ele>433</ele>
        <time>2011-01-02T10:05:04Z</time>
      </trkpt>
      <trkpt lat="43.78225" lon="7.26963">
        <ele>436</ele>
        <time>2011-01-02T10:05:17Z</time>
      </trkpt>
      <trkpt lat="43.78224" lon="7.26977">
        <ele>440</ele>
        <time>2011-01-02T10:05:28Z</time>
      </trkpt>
      <trkpt lat="43.78225" lon="7.2699">
        <ele>442</ele>
        <time>2011-01-02T10:05:39Z</time>
      </trkpt>
      <trkpt lat="43.78222" lon="7.27003">
        <ele>441</ele>
        <time>2011-01-02T10:05:52Z</time>
      </trkpt>
      <trkpt lat="43.78215" lon="7.27012">
        <ele>440</ele>
        <time>2011-01-02T10:05:59Z</time>
      </trkpt>
      <trkpt lat="43.78205" lon="7.27014">
        <ele>441</ele>
        <time>2011-01-02T10:06:03Z</time>
      </trkpt>
      <trkpt lat="43.78196" lon="7.27014">
        <ele>442</ele>
        <time>2011-01-02T10:06:08Z</time>
      </trkpt>
      <trkpt lat="43.78187" lon="7.27011">
        <ele>443</ele>
        <time>2011-01-02T10:06:13Z</time>
      </trkpt>
      <trkpt lat="43.78177" lon="7.27007">
        <ele>444</ele>
        <time>2011-01-02T10:06:19Z</time>
      </trkpt>
      <trkpt lat="43.78176" lon="7.27007">
        <ele>444</ele>
        <time>2011-01-02T10:06:19Z</time>
      </trkpt>
      <trkpt lat="43.78168" lon="7.26999">
        <ele>446</ele>
        <time>2011-01-02T10:06:24Z</time>
      </trkpt>
      <trkpt lat="43.78159" lon="7.26989">
        <ele>446</ele>
        <time>2011-01-02T10:06:30Z</time>
      </trkpt>
      <trkpt lat="43.78152" lon="7.26981">
        <ele>448</ele>
        <time>2011-01-02T10:06:35Z</time>
      </trkpt>
      <trkpt lat="43.78144" lon="7.26974">
        <ele>450</ele>
        <time>2011-01-02T10:06:41Z</time>
      </trkpt>
      <trkpt lat="43.78136" lon="7.26966">
        <ele>452</ele>
        <time>2011-01-02T10:06:47Z</time>
      </trkpt>
      <trkpt lat="43.78128" lon="7.26959">
        <ele>454</ele>
        <time>2011-01-02T10:06:54Z</time>
      </trkpt>
      <trkpt lat="43.78119" lon="7.26953">
        <ele>456</ele>
        <time>2011-01-02T10:07:01Z</time>
      </trkpt>
      <trkpt lat="43.78109" lon="7.26949">
        <ele>458</ele>
        <time>2011-01-02T10:07:07Z</time>
      </trkpt>
      <trkpt lat="43.78105" lon="7.26945">
        <ele>458</ele>
        <time>2011-01-02T10:07:11Z</time>
      </trkpt>
      <trkpt lat="43.78098" lon="7.26935">
        <ele>459</ele>
        <time>2011-01-02T10:07:16Z</time>
      </trkpt>
      <trkpt lat="43.78092" lon="7.26926">
        <ele>459</ele>
        <time>2011-01-02T10:07:23Z</time>
      </trkpt>
      <trkpt lat="43.78091" lon="7.26922">
        <ele>458</ele>
        <time>2011-01-02T10:07:26Z</time>
      </trkpt>
      <trkpt lat="43.78084" lon="7.26911">
        <ele>460</ele>
        <time>2011-01-02T10:07:35Z</time>
      </trkpt>
      <trkpt lat="43.78077" lon="7.26901">
        <ele>461</ele>
        <time>2011-01-02T10:07:43Z</time>
      </trkpt>
      <trkpt lat="43.78068" lon="7.26896">
        <ele>462</ele>
        <time>2011-01-02T10:07:51Z</time>
      </trkpt>
      <trkpt lat="43.78056" lon="7.26896">
        <ele>464</ele>
        <time>2011-01-02T10:08:02Z</time>
      </trkpt>
      <trkpt lat="43.78046" lon="7.26898">
        <ele>463</ele>
        <time>2011-01-02T10:08:09Z</time>
      </trkpt>
      <trkpt lat="43.78037" lon="7.26901">
        <ele>464</ele>
        <time>2011-01-02T10:08:14Z</time>
      </trkpt>
      <trkpt lat="43.78028" lon="7.26907">
        <ele>465</ele>
        <time>2011-01-02T10:08:21Z</time>
      </trkpt>
      <trkpt lat="43.7802" lon="7.26914">
        <ele>466</ele>
        <time>2011-01-02T10:08:27Z</time>
      </trkpt>
      <trkpt lat="43.7801" lon="7.26922">
        <ele>468</ele>
        <time>2011-01-02T10:08:33Z</time>
      </trkpt>
      <trkpt lat="43.78006" lon="7.26926">
        <ele>469</ele>
        <time>2011-01-02T10:08:36Z</time>
      </trkpt>
      <trkpt lat="43.77998" lon="7.26935">
        <ele>469</ele>
        <time>2011-01-02T10:08:42Z</time>
      </trkpt>
      <trkpt lat="43.77991" lon="7.26944">
        <ele>469</ele>
        <time>2011-01-02T10:08:47Z</time>
      </trkpt>
      <trkpt lat="43.77985" lon="7.26955">
        <ele>471</ele>
        <time>2011-01-02T10:08:52Z</time>
      </trkpt>
      <trkpt lat="43.77979" lon="7.26966">
        <ele>473</ele>
        <time>2011-01-02T10:08:58Z</time>
      </trkpt>
      <trkpt lat="43.77975" lon="7.26978">
        <ele>473</ele>
        <time>2011-01-02T10:09:04Z</time>
      </trkpt>
      <trkpt lat="43.77974" lon="7.2699">
        <ele>472</ele>
        <time>2011-01-02T10:09:10Z</time>
      </trkpt>
      <trkpt lat="43.77973" lon="7.27003">
        <ele>473</ele>
        <time>2011-01-02T10:09:16Z</time>
      </trkpt>
      <trkpt lat="43.77971" lon="7.27015">
        <ele>474</ele>
        <time>2011-01-02T10:09:22Z</time>
      </trkpt>
      <trkpt lat="43.77971" lon="7.27019">
        <ele>475</ele>
        <time>2011-01-02T10:09:24Z</time>
      </trkpt>
      <trkpt lat="43.77971" lon="7.27031">
        <ele>475</ele>
        <time>2011-01-02T10:09:30Z</time>
      </trkpt>
      <trkpt lat="43.77971" lon="7.27033">
        <ele>475</ele>
        <time>2011-01-02T10:09:31Z</time>
      </trkpt>
      <trkpt lat="43.77972" lon="7.27048">
        <ele>476</ele>
        <time>2011-01-02T10:09:36Z</time>
      </trkpt>
      <trkpt lat="43.77975" lon="7.2706">
        <ele>477</ele>
        <time>2011-01-02T10:09:41Z</time>
      </trkpt>
      <trkpt lat="43.77979" lon="7.27074">
        <ele>477</ele>
        <time>2011-01-02T10:09:46Z</time>
      </trkpt>
      <trkpt lat="43.77982" lon="7.27088">
        <ele>478</ele>
        <time>2011-01-02T10:09:49Z</time>
      </trkpt>
      <trkpt lat="43.77987" lon="7.271">
        <ele>477</ele>
        <time>2011-01-02T10:09:54Z</time>
      </trkpt>
      <trkpt lat="43.7799" lon="7.27107">
        <ele>476</ele>
        <time>2011-01-02T10:10:09Z</time>
      </trkpt>
      <trkpt lat="43.78" lon="7.27109">
        <ele>474</ele>
        <time>2011-01-02T10:10:32Z</time>
      </trkpt>
      <trkpt lat="43.78011" lon="7.27118">
        <ele>474</ele>
        <time>2011-01-02T10:10:35Z</time>
      </trkpt>
      <trkpt lat="43.78022" lon="7.27125">
        <ele>475</ele>
        <time>2011-01-02T10:10:38Z</time>
      </trkpt>
      <trkpt lat="43.78036" lon="7.2713">
        <ele>475</ele>
        <time>2011-01-02T10:10:40Z</time>
      </trkpt>
      <trkpt lat="43.78045" lon="7.27132">
        <ele>475</ele>
        <time>2011-01-02T10:10:41Z</time>
      </trkpt>
      <trkpt lat="43.78054" lon="7.27136">
        <ele>475</ele>
        <time>2011-01-02T10:10:43Z</time>
      </trkpt>
      <trkpt lat="43.78063" lon="7.27144">
        <ele>475</ele>
        <time>2011-01-02T10:10:44Z</time>
      </trkpt>
      <trkpt lat="43.7807" lon="7.27154">
        <ele>475</ele>
        <time>2011-01-02T10:10:46Z</time>
      </trkpt>
      <trkpt lat="43.78073" lon="7.27167">
        <ele>475</ele>
        <time>2011-01-02T10:10:48Z</time>
      </trkpt>
      <trkpt lat="43.78069" lon="7.2718">
        <ele>474</ele>
        <time>2011-01-02T10:10:49Z</time>
      </trkpt>
      <trkpt lat="43.78064" lon="7.27191">
        <ele>475</ele>
        <time>2011-01-02T10:10:51Z</time>
      </trkpt>
      <trkpt lat="43.78059" lon="7.27202">
        <ele>475</ele>
        <time>2011-01-02T10:10:52Z</time>
      </trkpt>
      <trkpt lat="43.78052" lon="7.27212">
        <ele>476</ele>
        <time>2011-01-02T10:10:54Z</time>
      </trkpt>
      <trkpt lat="43.78044" lon="7.27221">
        <ele>475</ele>
        <time>2011-01-02T10:10:55Z</time>
      </trkpt>
      <trkpt lat="43.78037" lon="7.27229">
        <ele>475</ele>
        <time>2011-01-02T10:10:57Z</time>
      </trkpt>
      <trkpt lat="43.7803" lon="7.27237">
        <ele>475</ele>
        <time>2011-01-02T10:10:58Z</time>
      </trkpt>
      <trkpt lat="43.78022" lon="7.27246">
        <ele>474</ele>
        <time>2011-01-02T10:11:00Z</time>
      </trkpt>
      <trkpt lat="43.78014" lon="7.27254">
        <ele>474</ele>
        <time>2011-01-02T10:11:01Z</time>
      </trkpt>
      <trkpt lat="43.78005" lon="7.27261">
        <ele>473</ele>
        <time>2011-01-02T10:11:03Z</time>
      </trkpt>
      <trkpt lat="43.77997" lon="7.27265">
        <ele>473</ele>
        <time>2011-01-02T10:11:04Z</time>
      </trkpt>
      <trkpt lat="43.77986" lon="7.27266">
        <ele>473</ele>
        <time>2011-01-02T10:11:06Z</time>
      </trkpt>
      <trkpt lat="43.77976" lon="7.27265">
        <ele>471</ele>
        <time>2011-01-02T10:11:07Z</time>
      </trkpt>
      <trkpt lat="43.77965" lon="7.27261">
        <ele>470</ele>
        <time>2011-01-02T10:11:09Z</time>
      </trkpt>
      <trkpt lat="43.77955" lon="7.27254">
        <ele>469</ele>
        <time>2011-01-02T10:11:10Z</time>
      </trkpt>
      <trkpt lat="43.77943" lon="7.27246">
        <ele>468</ele>
        <time>2011-01-02T10:11:12Z</time>
      </trkpt>
      <trkpt lat="43.77932" lon="7.27237">
        <ele>468</ele>
        <time>2011-01-02T10:11:13Z</time>
      </trkpt>
      <trkpt lat="43.77926" lon="7.27232">
        <ele>467</ele>
        <time>2011-01-02T10:11:14Z</time>
      </trkpt>
      <trkpt lat="43.77914" lon="7.27222">
        <ele>466</ele>
        <time>2011-01-02T10:11:16Z</time>
      </trkpt>
      <trkpt lat="43.77901" lon="7.27213">
        <ele>465</ele>
        <time>2011-01-02T10:11:17Z</time>
      </trkpt>
      <trkpt lat="43.77887" lon="7.27208">
        <ele>464</ele>
        <time>2011-01-02T10:11:19Z</time>
      </trkpt>
      <trkpt lat="43.77872" lon="7.27209">
        <ele>463</ele>
        <time>2011-01-02T10:11:20Z</time>
      </trkpt>
      <trkpt lat="43.77856" lon="7.27212">
        <ele>462</ele>
        <time>2011-01-02T10:11:22Z</time>
      </trkpt>
      <trkpt lat="43.77841" lon="7.27216">
        <ele>460</ele>
        <time>2011-01-02T10:11:23Z</time>
      </trkpt>
      <trkpt lat="43.77827" lon="7.27221">
        <ele>459</ele>
        <time>2011-01-02T10:11:25Z</time>
      </trkpt>
      <trkpt lat="43.77813" lon="7.27227">
        <ele>458</ele>
        <time>2011-01-02T10:11:26Z</time>
      </trkpt>
      <trkpt lat="43.77801" lon="7.27233">
        <ele>457</ele>
        <time>2011-01-02T10:11:28Z</time>
      </trkpt>
      <trkpt lat="43.77788" lon="7.27238">
        <ele>456</ele>
        <time>2011-01-02T10:11:30Z</time>
      </trkpt>
      <trkpt lat="43.77777" lon="7.27241">
        <ele>455</ele>
        <time>2011-01-02T10:11:31Z</time>
      </trkpt>
      <trkpt lat="43.77765" lon="7.27245">
        <ele>453</ele>
        <time>2011-01-02T10:11:33Z</time>
      </trkpt>
      <trkpt lat="43.77753" lon="7.27252">
        <ele>452</ele>
        <time>2011-01-02T10:11:36Z</time>
      </trkpt>
      <trkpt lat="43.77743" lon="7.27259">
        <ele>451</ele>
        <time>2011-01-02T10:11:38Z</time>
      </trkpt>
      <trkpt lat="43.77734" lon="7.27269">
        <ele>451</ele>
        <time>2011-01-02T10:11:40Z</time>
      </trkpt>
      <trkpt lat="43.77725" lon="7.27277">
        <ele>450</ele>
        <time>2011-01-02T10:11:42Z</time>
      </trkpt>
      <trkpt lat="43.77717" lon="7.27283">
        <ele>449</ele>
        <time>2011-01-02T10:11:44Z</time>
      </trkpt>
      <trkpt lat="43.77706" lon="7.27286">
        <ele>447</ele>
        <time>2011-01-02T10:11:47Z</time>
      </trkpt>
      <trkpt lat="43.77703" lon="7.27287">
        <ele>447</ele>
        <time>2011-01-02T10:11:47Z</time>
      </trkpt>
      <trkpt lat="43.77691" lon="7.2729">
        <ele>445</ele>
        <time>2011-01-02T10:11:50Z</time>
      </trkpt>
      <trkpt lat="43.7768" lon="7.27291">
        <ele>443</ele>
        <time>2011-01-02T10:11:52Z</time>
      </trkpt>
      <trkpt lat="43.77669" lon="7.2729">
        <ele>442</ele>
        <time>2011-01-02T10:11:54Z</time>
      </trkpt>
      <trkpt lat="43.77659" lon="7.27287">
        <ele>441</ele>
        <time>2011-01-02T10:11:56Z</time>
      </trkpt>
      <trkpt lat="43.7765" lon="7.27286">
        <ele>440</ele>
        <time>2011-01-02T10:11:58Z</time>
      </trkpt>
      <trkpt lat="43.77639" lon="7.27285">
        <ele>438</ele>
        <time>2011-01-02T10:12:01Z</time>
      </trkpt>
      <trkpt lat="43.7763" lon="7.27285">
        <ele>438</ele>
        <time>2011-01-02T10:12:04Z</time>
      </trkpt>
      <trkpt lat="43.7762" lon="7.27285">
        <ele>436</ele>
        <time>2011-01-02T10:12:06Z</time>
      </trkpt>
      <trkpt lat="43.7761" lon="7.27285">
        <ele>435</ele>
        <time>2011-01-02T10:12:10Z</time>
      </trkpt>
      <trkpt lat="43.776" lon="7.27285">
        <ele>435</ele>
        <time>2011-01-02T10:12:14Z</time>
      </trkpt>
      <trkpt lat="43.77591" lon="7.27285">
        <ele>433</ele>
        <time>2011-01-02T10:12:19Z</time>
      </trkpt>
      <trkpt lat="43.77581" lon="7.27284">
        <ele>433</ele>
        <time>2011-01-02T10:12:23Z</time>
      </trkpt>
      <trkpt lat="43.77576" lon="7.27284">
        <ele>433</ele>
        <time>2011-01-02T10:12:25Z</time>
      </trkpt>
      <trkpt lat="43.77567" lon="7.27281">
        <ele>433</ele>
        <time>2011-01-02T10:12:29Z</time>
      </trkpt>
      <trkpt lat="43.77557" lon="7.27279">
        <ele>433</ele>
        <time>2011-01-02T10:12:34Z</time>
      </trkpt>
      <trkpt lat="43.77548" lon="7.27278">
        <ele>435</ele>
        <time>2011-01-02T10:12:39Z</time>
      </trkpt>
      <trkpt lat="43.77536" lon="7.27277">
        <ele>434</ele>
        <time>2011-01-02T10:12:46Z</time>
      </trkpt>
      <trkpt lat="43.77527" lon="7.27277">
        <ele>434</ele>
        <time>2011-01-02T10:12:51Z</time>
      </trkpt>
      <trkpt lat="43.77517" lon="7.27277">
        <ele>435</ele>
        <time>2011-01-02T10:12:57Z</time>
      </trkpt>
      <trkpt lat="43.77506" lon="7.27277">
        <ele>436</ele>
        <time>2011-01-02T10:13:04Z</time>
      </trkpt>
      <trkpt lat="43.77495" lon="7.27276">
        <ele>436</ele>
        <time>2011-01-02T10:13:09Z</time>
      </trkpt>
      <trkpt lat="43.77485" lon="7.27274">
        <ele>436</ele>
        <time>2011-01-02T10:13:15Z</time>
      </trkpt>
      <trkpt lat="43.77476" lon="7.27272">
        <ele>436</ele>
        <time>2011-01-02T10:13:21Z</time>
      </trkpt>
      <trkpt lat="43.77468" lon="7.27269">
        <ele>437</ele>
        <time>2011-01-02T10:13:27Z</time>
      </trkpt>
      <trkpt lat="43.77459" lon="7.27267">
        <ele>439</ele>
        <time>2011-01-02T10:13:34Z</time>
      </trkpt>
      <trkpt lat="43.77449" lon="7.27265">
        <ele>441</ele>
        <time>2011-01-02T10:13:41Z</time>
      </trkpt>
      <trkpt lat="43.7744" lon="7.27263">
        <ele>442</ele>
        <time>2011-01-02T10:13:48Z</time>
      </trkpt>
      <trkpt lat="43.77433" lon="7.27261">
        <ele>442</ele>
        <time>2011-01-02T10:13:53Z</time>
      </trkpt>
      <trkpt lat="43.77416" lon="7.27255">
        <ele>445</ele>
        <time>2011-01-02T10:14:05Z</time>
      </trkpt>
      <trkpt lat="43.77406" lon="7.27252">
        <ele>445</ele>
        <time>2011-01-02T10:14:12Z</time>
      </trkpt>
      <trkpt lat="43.77397" lon="7.27251">
        <ele>447</ele>
        <time>2011-01-02T10:14:19Z</time>
      </trkpt>
      <trkpt lat="43.77385" lon="7.27246">
        <ele>449</ele>
        <time>2011-01-02T10:14:27Z</time>
      </trkpt>
      <trkpt lat="43.77375" lon="7.2724">
        <ele>450</ele>
        <time>2011-01-02T10:14:34Z</time>
      </trkpt>
      <trkpt lat="43.77366" lon="7.27236">
        <ele>454</ele>
        <time>2011-01-02T10:14:44Z</time>
      </trkpt>
      <trkpt lat="43.77356" lon="7.27236">
        <ele>456</ele>
        <time>2011-01-02T10:14:51Z</time>
      </trkpt>
      <trkpt lat="43.77345" lon="7.27236">
        <ele>458</ele>
        <time>2011-01-02T10:14:57Z</time>
      </trkpt>
      <trkpt lat="43.77336" lon="7.27236">
        <ele>458</ele>
        <time>2011-01-02T10:15:03Z</time>
      </trkpt>
      <trkpt lat="43.77327" lon="7.27236">
        <ele>460</ele>
        <time>2011-01-02T10:15:08Z</time>
      </trkpt>
      <trkpt lat="43.77317" lon="7.27239">
        <ele>461</ele>
        <time>2011-01-02T10:15:13Z</time>
      </trkpt>
      <trkpt lat="43.77306" lon="7.27243">
        <ele>461</ele>
        <time>2011-01-02T10:15:19Z</time>
      </trkpt>
      <trkpt lat="43.77298" lon="7.27249">
        <ele>463</ele>
        <time>2011-01-02T10:15:24Z</time>
      </trkpt>
      <trkpt lat="43.77291" lon="7.27258">
        <ele>465</ele>
        <time>2011-01-02T10:15:28Z</time>
      </trkpt>
      <trkpt lat="43.77285" lon="7.27268">
        <ele>466</ele>
        <time>2011-01-02T10:15:32Z</time>
      </trkpt>
      <trkpt lat="43.7728" lon="7.27279">
        <ele>468</ele>
        <time>2011-01-02T10:15:36Z</time>
      </trkpt>
      <trkpt lat="43.77276" lon="7.2729">
        <ele>469</ele>
        <time>2011-01-02T10:15:40Z</time>
      </trkpt>
      <trkpt lat="43.77271" lon="7.27302">
        <ele>469</ele>
        <time>2011-01-02T10:15:43Z</time>
      </trkpt>
      <trkpt lat="43.77266" lon="7.27314">
        <ele>470</ele>
        <time>2011-01-02T10:15:48Z</time>
      </trkpt>
      <trkpt lat="43.77262" lon="7.27327">
        <ele>473</ele>
        <time>2011-01-02T10:15:54Z</time>
      </trkpt>
      <trkpt lat="43.77257" lon="7.2734">
        <ele>474</ele>
        <time>2011-01-02T10:15:59Z</time>
      </trkpt>
      <trkpt lat="43.77253" lon="7.27352">
        <ele>476</ele>
        <time>2011-01-02T10:16:05Z</time>
      </trkpt>
      <trkpt lat="43.77248" lon="7.27364">
        <ele>477</ele>
        <time>2011-01-02T10:16:10Z</time>
      </trkpt>
      <trkpt lat="43.77243" lon="7.27375">
        <ele>479</ele>
        <time>2011-01-02T10:16:15Z</time>
      </trkpt>
      <trkpt lat="43.77237" lon="7.27383">
        <ele>480</ele>
        <time>2011-01-02T10:16:20Z</time>
      </trkpt>
      <trkpt lat="43.77226" lon="7.27382">
        <ele>481</ele>
        <time>2011-01-02T10:16:25Z</time>
      </trkpt>
      <trkpt lat="43.77218" lon="7.27378">
        <ele>480</ele>
        <time>2011-01-02T10:16:29Z</time>
      </trkpt>
      <trkpt lat="43.77205" lon="7.27371">
        <ele>480</ele>
        <time>2011-01-02T10:16:36Z</time>
      </trkpt>
      <trkpt lat="43.77196" lon="7.27365">
        <ele>480</ele>
        <time>2011-01-02T10:16:41Z</time>
      </trkpt>
      <trkpt lat="43.77186" lon="7.27361">
        <ele>478</ele>
        <time>2011-01-02T10:16:47Z</time>
      </trkpt>
      <trkpt lat="43.77176" lon="7.27358">
        <ele>478</ele>
        <time>2011-01-02T10:16:54Z</time>
      </trkpt>
      <trkpt lat="43.77167" lon="7.27355">
        <ele>479</ele>
        <time>2011-01-02T10:16:59Z</time>
      </trkpt>
      <trkpt lat="43.77156" lon="7.27353">
        <ele>479</ele>
        <time>2011-01-02T10:17:04Z</time>
      </trkpt>
      <trkpt lat="43.77151" lon="7.27353">
        <ele>479</ele>
        <time>2011-01-02T10:17:06Z</time>
      </trkpt>
      <trkpt lat="43.77142" lon="7.27351">
        <ele>478</ele>
        <time>2011-01-02T10:17:10Z</time>
      </trkpt>
      <trkpt lat="43.77132" lon="7.27351">
        <ele>478</ele>
        <time>2011-01-02T10:17:15Z</time>
      </trkpt>
      <trkpt lat="43.77123" lon="7.27348">
        <ele>478</ele>
        <time>2011-01-02T10:17:21Z</time>
      </trkpt>
      <trkpt lat="43.77108" lon="7.27341">
        <ele>482</ele>
        <time>2011-01-02T10:17:30Z</time>
      </trkpt>
      <trkpt lat="43.77099" lon="7.27336">
        <ele>484</ele>
        <time>2011-01-02T10:17:35Z</time>
      </trkpt>
      <trkpt lat="43.7709" lon="7.27333">
        <ele>486</ele>
        <time>2011-01-02T10:17:41Z</time>
      </trkpt>
      <trkpt lat="43.77081" lon="7.27327">
        <ele>486</ele>
        <time>2011-01-02T10:17:48Z</time>
      </trkpt>
      <trkpt lat="43.77072" lon="7.27322">
        <ele>487</ele>
        <time>2011-01-02T10:17:54Z</time>
      </trkpt>
      <trkpt lat="43.77061" lon="7.2732">
        <ele>487</ele>
        <time>2011-01-02T10:18:01Z</time>
      </trkpt>
      <trkpt lat="43.77052" lon="7.27319">
        <ele>494</ele>
        <time>2011-01-02T10:18:11Z</time>
      </trkpt>
      <trkpt lat="43.7705" lon="7.27307">
        <ele>495</ele>
        <time>2011-01-02T10:18:30Z</time>
      </trkpt>
      <trkpt lat="43.77044" lon="7.2731">
        <ele>496</ele>
        <time>2011-01-02T10:19:17Z</time>
      </trkpt>
      <trkpt lat="43.77053" lon="7.27308">
        <ele>502</ele>
        <time>2011-01-02T10:22:39Z</time>
      </trkpt>
      <trkpt lat="43.77056" lon="7.27309">
        <ele>502</ele>
        <time>2011-01-02T10:22:42Z</time>
      </trkpt>
      <trkpt lat="43.77066" lon="7.27309">
        <ele>502</ele>
        <time>2011-01-02T10:22:48Z</time>
      </trkpt>
      <trkpt lat="43.77076" lon="7.27308">
        <ele>503</ele>
        <time>2011-01-02T10:22:54Z</time>
      </trkpt>
      <trkpt lat="43.77077" lon="7.2729">
        <ele>501</ele>
        <time>2011-01-02T10:23:06Z</time>
      </trkpt>
      <trkpt lat="43.77069" lon="7.27278">
        <ele>501</ele>
        <time>2011-01-02T10:23:10Z</time>
      </trkpt>
      <trkpt lat="43.77061" lon="7.27271">
        <ele>500</ele>
        <time>2011-01-02T10:23:14Z</time>
      </trkpt>
      <trkpt lat="43.77051" lon="7.27265">
        <ele>501</ele>
        <time>2011-01-02T10:23:19Z</time>
      </trkpt>
      <trkpt lat="43.77041" lon="7.27261">
        <ele>500</ele>
        <time>2011-01-02T10:23:24Z</time>
      </trkpt>
      <trkpt lat="43.77033" lon="7.27265">
        <ele>501</ele>
        <time>2011-01-02T10:23:31Z</time>
      </trkpt>
      <trkpt lat="43.77024" lon="7.27271">
        <ele>501</ele>
        <time>2011-01-02T10:23:38Z</time>
      </trkpt>
      <trkpt lat="43.77015" lon="7.27276">
        <ele>501</ele>
        <time>2011-01-02T10:23:43Z</time>
      </trkpt>
      <trkpt lat="43.77005" lon="7.27281">
        <ele>504</ele>
        <time>2011-01-02T10:23:52Z</time>
      </trkpt>
      <trkpt lat="43.76995" lon="7.27286">
        <ele>506</ele>
        <time>2011-01-02T10:23:59Z</time>
      </trkpt>
      <trkpt lat="43.76977" lon="7.27291">
        <ele>510</ele>
        <time>2011-01-02T10:24:12Z</time>
      </trkpt>
      <trkpt lat="43.7695" lon="7.27288">
        <ele>513</ele>
        <time>2011-01-02T10:24:34Z</time>
      </trkpt>
      <trkpt lat="43.76923" lon="7.27281">
        <ele>517</ele>
        <time>2011-01-02T10:24:55Z</time>
      </trkpt>
      <trkpt lat="43.76896" lon="7.27276">
        <ele>520</ele>
        <time>2011-01-02T10:25:08Z</time>
      </trkpt>
      <trkpt lat="43.76872" lon="7.27275">
        <ele>523</ele>
        <time>2011-01-02T10:25:19Z</time>
      </trkpt>
      <trkpt lat="43.7686" lon="7.27275">
        <ele>524</ele>
        <time>2011-01-02T10:25:24Z</time>
      </trkpt>
      <trkpt lat="43.76849" lon="7.27275">
        <ele>524</ele>
        <time>2011-01-02T10:25:28Z</time>
      </trkpt>
      <trkpt lat="43.76838" lon="7.27275">
        <ele>526</ele>
        <time>2011-01-02T10:25:33Z</time>
      </trkpt>
      <trkpt lat="43.76828" lon="7.27275">
        <ele>527</ele>
        <time>2011-01-02T10:25:37Z</time>
      </trkpt>
      <trkpt lat="43.76818" lon="7.27275">
        <ele>528</ele>
        <time>2011-01-02T10:25:41Z</time>
      </trkpt>
      <trkpt lat="43.76807" lon="7.27274">
        <ele>528</ele>
        <time>2011-01-02T10:25:46Z</time>
      </trkpt>
      <trkpt lat="43.76798" lon="7.27272">
        <ele>529</ele>
        <time>2011-01-02T10:25:50Z</time>
      </trkpt>
      <trkpt lat="43.76788" lon="7.27271">
        <ele>530</ele>
        <time>2011-01-02T10:25:55Z</time>
      </trkpt>
      <trkpt lat="43.76778" lon="7.27269">
        <ele>531</ele>
        <time>2011-01-02T10:26:00Z</time>
      </trkpt>
      <trkpt lat="43.76768" lon="7.2727">
        <ele>530</ele>
        <time>2011-01-02T10:26:04Z</time>
      </trkpt>
      <trkpt lat="43.76759" lon="7.2727">
        <ele>530</ele>
        <time>2011-01-02T10:26:09Z</time>
      </trkpt>
      <trkpt lat="43.76749" lon="7.27271">
        <ele>533</ele>
        <time>2011-01-02T10:26:13Z</time>
      </trkpt>
      <trkpt lat="43.76739" lon="7.27271">
        <ele>534</ele>
        <time>2011-01-02T10:26:18Z</time>
      </trkpt>
      <trkpt lat="43.76729" lon="7.2727">
        <ele>533</ele>
        <time>2011-01-02T10:26:23Z</time>
      </trkpt>
      <trkpt lat="43.76719" lon="7.27269">
        <ele>533</ele>
        <time>2011-01-02T10:26:28Z</time>
      </trkpt>
      <trkpt lat="43.7671" lon="7.27267">
        <ele>533</ele>
        <time>2011-01-02T10:26:33Z</time>
      </trkpt>
      <trkpt lat="43.76699" lon="7.27261">
        <ele>533</ele>
        <time>2011-01-02T10:26:40Z</time>
      </trkpt>
      <trkpt lat="43.7669" lon="7.2726">
        <ele>534</ele>
        <time>2011-01-02T10:26:45Z</time>
      </trkpt>
      <trkpt lat="43.76686" lon="7.27261">
        <ele>535</ele>
        <time>2011-01-02T10:26:47Z</time>
      </trkpt>
      <trkpt lat="43.76677" lon="7.27263">
        <ele>536</ele>
        <time>2011-01-02T10:26:52Z</time>
      </trkpt>
      <trkpt lat="43.76668" lon="7.27263">
        <ele>536</ele>
        <time>2011-01-02T10:26:56Z</time>
      </trkpt>
      <trkpt lat="43.76661" lon="7.27264">
        <ele>538</ele>
        <time>2011-01-02T10:27:01Z</time>
      </trkpt>
      <trkpt lat="43.7665" lon="7.27264">
        <ele>538</ele>
        <time>2011-01-02T10:27:05Z</time>
      </trkpt>
      <trkpt lat="43.76639" lon="7.27264">
        <ele>541</ele>
        <time>2011-01-02T10:27:11Z</time>
      </trkpt>
      <trkpt lat="43.76625" lon="7.27263">
        <ele>543</ele>
        <time>2011-01-02T10:27:18Z</time>
      </trkpt>
      <trkpt lat="43.76622" lon="7.27263">
        <ele>543</ele>
        <time>2011-01-02T10:27:22Z</time>
      </trkpt>
      <trkpt lat="43.76613" lon="7.27265">
        <ele>544</ele>
        <time>2011-01-02T10:27:25Z</time>
      </trkpt>
      <trkpt lat="43.76603" lon="7.27268">
        <ele>545</ele>
        <time>2011-01-02T10:27:31Z</time>
      </trkpt>
      <trkpt lat="43.76595" lon="7.27273">
        <ele>547</ele>
        <time>2011-01-02T10:27:38Z</time>
      </trkpt>
      <trkpt lat="43.76585" lon="7.27272">
        <ele>547</ele>
        <time>2011-01-02T10:27:43Z</time>
      </trkpt>
      <trkpt lat="43.76576" lon="7.27269">
        <ele>548</ele>
        <time>2011-01-02T10:27:47Z</time>
      </trkpt>
      <trkpt lat="43.76569" lon="7.27261">
        <ele>549</ele>
        <time>2011-01-02T10:27:51Z</time>
      </trkpt>
      <trkpt lat="43.76564" lon="7.27249">
        <ele>551</ele>
        <time>2011-01-02T10:27:56Z</time>
      </trkpt>
      <trkpt lat="43.76559" lon="7.27236">
        <ele>552</ele>
        <time>2011-01-02T10:28:00Z</time>
      </trkpt>
      <trkpt lat="43.76554" lon="7.27223">
        <ele>552</ele>
        <time>2011-01-02T10:28:05Z</time>
      </trkpt>
      <trkpt lat="43.76549" lon="7.27211">
        <ele>551</ele>
        <time>2011-01-02T10:28:07Z</time>
      </trkpt>
      <trkpt lat="43.76546" lon="7.27196">
        <ele>551</ele>
        <time>2011-01-02T10:28:10Z</time>
      </trkpt>
      <trkpt lat="43.76548" lon="7.27178">
        <ele>551</ele>
        <time>2011-01-02T10:28:12Z</time>
      </trkpt>
      <trkpt lat="43.76554" lon="7.27163">
        <ele>550</ele>
        <time>2011-01-02T10:28:14Z</time>
      </trkpt>
      <trkpt lat="43.76563" lon="7.27151">
        <ele>550</ele>
        <time>2011-01-02T10:28:17Z</time>
      </trkpt>
      <trkpt lat="43.76571" lon="7.27139">
        <ele>551</ele>
        <time>2011-01-02T10:28:19Z</time>
      </trkpt>
      <trkpt lat="43.76578" lon="7.27127">
        <ele>551</ele>
        <time>2011-01-02T10:28:21Z</time>
      </trkpt>
      <trkpt lat="43.76585" lon="7.27116">
        <ele>550</ele>
        <time>2011-01-02T10:28:23Z</time>
      </trkpt>
      <trkpt lat="43.76593" lon="7.27105">
        <ele>550</ele>
        <time>2011-01-02T10:28:25Z</time>
      </trkpt>
      <trkpt lat="43.76599" lon="7.27096">
        <ele>550</ele>
        <time>2011-01-02T10:28:28Z</time>
      </trkpt>
      <trkpt lat="43.76607" lon="7.27085">
        <ele>550</ele>
        <time>2011-01-02T10:28:31Z</time>
      </trkpt>
      <trkpt lat="43.76613" lon="7.27074">
        <ele>550</ele>
        <time>2011-01-02T10:28:34Z</time>
      </trkpt>
      <trkpt lat="43.76619" lon="7.27061">
        <ele>550</ele>
        <time>2011-01-02T10:28:37Z</time>
      </trkpt>
      <trkpt lat="43.76623" lon="7.27045">
        <ele>551</ele>
        <time>2011-01-02T10:28:40Z</time>
      </trkpt>
      <trkpt lat="43.76621" lon="7.27032">
        <ele>551</ele>
        <time>2011-01-02T10:28:42Z</time>
      </trkpt>
      <trkpt lat="43.76617" lon="7.27017">
        <ele>551</ele>
        <time>2011-01-02T10:28:45Z</time>
      </trkpt>
      <trkpt lat="43.76614" lon="7.27011">
        <ele>552</ele>
        <time>2011-01-02T10:28:47Z</time>
      </trkpt>
      <trkpt lat="43.76607" lon="7.26998">
        <ele>551</ele>
        <time>2011-01-02T10:28:50Z</time>
      </trkpt>
      <trkpt lat="43.76599" lon="7.26986">
        <ele>551</ele>
        <time>2011-01-02T10:28:53Z</time>
      </trkpt>
      <trkpt lat="43.76592" lon="7.26975">
        <ele>552</ele>
        <time>2011-01-02T10:28:56Z</time>
      </trkpt>
      <trkpt lat="43.76584" lon="7.26965">
        <ele>552</ele>
        <time>2011-01-02T10:28:59Z</time>
      </trkpt>
      <trkpt lat="43.76577" lon="7.26953">
        <ele>552</ele>
        <time>2011-01-02T10:29:02Z</time>
      </trkpt>
      <trkpt lat="43.76572" lon="7.26941">
        <ele>553</ele>
        <time>2011-01-02T10:29:05Z</time>
      </trkpt>
      <trkpt lat="43.76568" lon="7.2693">
        <ele>553</ele>
        <time>2011-01-02T10:29:08Z</time>
      </trkpt>
      <trkpt lat="43.76564" lon="7.2691">
        <ele>555</ele>
        <time>2011-01-02T10:29:14Z</time>
      </trkpt>
      <trkpt lat="43.76565" lon="7.26897">
        <ele>556</ele>
        <time>2011-01-02T10:29:18Z</time>
      </trkpt>
      <trkpt lat="43.76566" lon="7.26891">
        <ele>556</ele>
        <time>2011-01-02T10:29:19Z</time>
      </trkpt>
      <trkpt lat="43.76567" lon="7.26875">
        <ele>555</ele>
        <time>2011-01-02T10:29:23Z</time>
      </trkpt>
      <trkpt lat="43.76568" lon="7.26862">
        <ele>555</ele>
        <time>2011-01-02T10:29:26Z</time>
      </trkpt>
      <trkpt lat="43.76569" lon="7.26847">
        <ele>555</ele>
        <time>2011-01-02T10:29:29Z</time>
      </trkpt>
      <trkpt lat="43.7657" lon="7.26833">
        <ele>555</ele>
        <time>2011-01-02T10:29:32Z</time>
      </trkpt>
      <trkpt lat="43.7657" lon="7.26818">
        <ele>555</ele>
        <time>2011-01-02T10:29:35Z</time>
      </trkpt>
      <trkpt lat="43.7657" lon="7.26814">
        <ele>555</ele>
        <time>2011-01-02T10:29:36Z</time>
      </trkpt>
      <trkpt lat="43.76567" lon="7.26794">
        <ele>555</ele>
        <time>2011-01-02T10:29:40Z</time>
      </trkpt>
      <trkpt lat="43.76563" lon="7.26782">
        <ele>555</ele>
        <time>2011-01-02T10:29:42Z</time>
      </trkpt>
      <trkpt lat="43.76557" lon="7.26768">
        <ele>556</ele>
        <time>2011-01-02T10:29:45Z</time>
      </trkpt>
      <trkpt lat="43.76553" lon="7.26752">
        <ele>557</ele>
        <time>2011-01-02T10:29:47Z</time>
      </trkpt>
      <trkpt lat="43.76552" lon="7.26735">
        <ele>557</ele>
        <time>2011-01-02T10:29:49Z</time>
      </trkpt>
      <trkpt lat="43.76551" lon="7.26722">
        <ele>557</ele>
        <time>2011-01-02T10:29:51Z</time>
      </trkpt>
      <trkpt lat="43.76551" lon="7.26708">
        <ele>558</ele>
        <time>2011-01-02T10:29:52Z</time>
      </trkpt>
      <trkpt lat="43.76551" lon="7.26694">
        <ele>558</ele>
        <time>2011-01-02T10:29:54Z</time>
      </trkpt>
      <trkpt lat="43.76551" lon="7.2668">
        <ele>558</ele>
        <time>2011-01-02T10:29:55Z</time>
      </trkpt>
      <trkpt lat="43.76552" lon="7.26666">
        <ele>558</ele>
        <time>2011-01-02T10:29:57Z</time>
      </trkpt>
      <trkpt lat="43.76552" lon="7.26652">
        <ele>558</ele>
        <time>2011-01-02T10:29:58Z</time>
      </trkpt>
      <trkpt lat="43.76553" lon="7.26639">
        <ele>558</ele>
        <time>2011-01-02T10:30:00Z</time>
      </trkpt>
      <trkpt lat="43.76553" lon="7.26626">
        <ele>558</ele>
        <time>2011-01-02T10:30:01Z</time>
      </trkpt>
      <trkpt lat="43.76552" lon="7.26614">
        <ele>557</ele>
        <time>2011-01-02T10:30:03Z</time>
      </trkpt>
      <trkpt lat="43.76549" lon="7.26597">
        <ele>556</ele>
        <time>2011-01-02T10:30:05Z</time>
      </trkpt>
      <trkpt lat="43.76545" lon="7.26584">
        <ele>556</ele>
        <time>2011-01-02T10:30:07Z</time>
      </trkpt>
      <trkpt lat="43.76539" lon="7.26573">
        <ele>557</ele>
        <time>2011-01-02T10:30:09Z</time>
      </trkpt>
      <trkpt lat="43.76531" lon="7.26561">
        <ele>557</ele>
        <time>2011-01-02T10:30:12Z</time>
      </trkpt>
      <trkpt lat="43.76525" lon="7.26548">
        <ele>557</ele>
        <time>2011-01-02T10:30:14Z</time>
      </trkpt>
      <trkpt lat="43.76519" lon="7.26536">
        <ele>556</ele>
        <time>2011-01-02T10:30:16Z</time>
      </trkpt>
      <trkpt lat="43.76514" lon="7.26523">
        <ele>556</ele>
        <time>2011-01-02T10:30:18Z</time>
      </trkpt>
      <trkpt lat="43.76509" lon="7.26512">
        <ele>556</ele>
        <time>2011-01-02T10:30:20Z</time>
      </trkpt>
      <trkpt lat="43.76503" lon="7.265">
        <ele>556</ele>
        <time>2011-01-02T10:30:23Z</time>
      </trkpt>
      <trkpt lat="43.765" lon="7.26488">
        <ele>556</ele>
        <time>2011-01-02T10:30:25Z</time>
      </trkpt>
      <trkpt lat="43.76501" lon="7.26473">
        <ele>556</ele>
        <time>2011-01-02T10:30:28Z</time>
      </trkpt>
      <trkpt lat="43.76507" lon="7.2646">
        <ele>555</ele>
        <time>2011-01-02T10:30:31Z</time>
      </trkpt>
      <trkpt lat="43.76514" lon="7.2645">
        <ele>555</ele>
        <time>2011-01-02T10:30:34Z</time>
      </trkpt>
      <trkpt lat="43.76521" lon="7.26441">
        <ele>554</ele>
        <time>2011-01-02T10:30:37Z</time>
      </trkpt>
      <trkpt lat="43.76529" lon="7.26433">
        <ele>554</ele>
        <time>2011-01-02T10:30:40Z</time>
      </trkpt>
      <trkpt lat="43.76538" lon="7.26425">
        <ele>554</ele>
        <time>2011-01-02T10:30:45Z</time>
      </trkpt>
      <trkpt lat="43.76546" lon="7.26416">
        <ele>554</ele>
        <time>2011-01-02T10:30:49Z</time>
      </trkpt>
      <trkpt lat="43.76555" lon="7.26409">
        <ele>554</ele>
        <time>2011-01-02T10:30:54Z</time>
      </trkpt>
      <trkpt lat="43.76563" lon="7.26402">
        <ele>554</ele>
        <time>2011-01-02T10:30:58Z</time>
      </trkpt>
      <trkpt lat="43.76572" lon="7.26397">
        <ele>554</ele>
        <time>2011-01-02T10:31:02Z</time>
      </trkpt>
      <trkpt lat="43.76581" lon="7.26391">
        <ele>555</ele>
        <time>2011-01-02T10:31:07Z</time>
      </trkpt>
      <trkpt lat="43.76591" lon="7.26386">
        <ele>556</ele>
        <time>2011-01-02T10:31:12Z</time>
      </trkpt>
      <trkpt lat="43.76597" lon="7.26383">
        <ele>556</ele>
        <time>2011-01-02T10:31:15Z</time>
      </trkpt>
      <trkpt lat="43.76606" lon="7.26378">
        <ele>556</ele>
        <time>2011-01-02T10:31:20Z</time>
      </trkpt>
      <trkpt lat="43.76613" lon="7.26374">
        <ele>555</ele>
        <time>2011-01-02T10:31:24Z</time>
      </trkpt>
      <trkpt lat="43.76621" lon="7.26368">
        <ele>555</ele>
        <time>2011-01-02T10:31:28Z</time>
      </trkpt>
      <trkpt lat="43.76638" lon="7.26357">
        <ele>555</ele>
        <time>2011-01-02T10:31:37Z</time>
      </trkpt>
      <trkpt lat="43.76647" lon="7.26351">
        <ele>556</ele>
        <time>2011-01-02T10:31:42Z</time>
      </trkpt>
      <trkpt lat="43.76661" lon="7.26339">
        <ele>557</ele>
        <time>2011-01-02T10:31:50Z</time>
      </trkpt>
      <trkpt lat="43.76669" lon="7.26333">
        <ele>558</ele>
        <time>2011-01-02T10:31:55Z</time>
      </trkpt>
      <trkpt lat="43.76677" lon="7.26325">
        <ele>558</ele>
        <time>2011-01-02T10:31:59Z</time>
      </trkpt>
      <trkpt lat="43.76685" lon="7.26318">
        <ele>559</ele>
        <time>2011-01-02T10:32:04Z</time>
      </trkpt>
      <trkpt lat="43.76694" lon="7.2631">
        <ele>559</ele>
        <time>2011-01-02T10:32:08Z</time>
      </trkpt>
      <trkpt lat="43.76702" lon="7.26302">
        <ele>561</ele>
        <time>2011-01-02T10:32:13Z</time>
      </trkpt>
      <trkpt lat="43.7671" lon="7.26293">
        <ele>561</ele>
        <time>2011-01-02T10:32:17Z</time>
      </trkpt>
      <trkpt lat="43.76718" lon="7.26283">
        <ele>562</ele>
        <time>2011-01-02T10:32:22Z</time>
      </trkpt>
      <trkpt lat="43.76724" lon="7.26274">
        <ele>562</ele>
        <time>2011-01-02T10:32:26Z</time>
      </trkpt>
      <trkpt lat="43.76731" lon="7.26265">
        <ele>563</ele>
        <time>2011-01-02T10:32:29Z</time>
      </trkpt>
      <trkpt lat="43.76737" lon="7.26256">
        <ele>564</ele>
        <time>2011-01-02T10:32:33Z</time>
      </trkpt>
      <trkpt lat="43.76744" lon="7.26246">
        <ele>564</ele>
        <time>2011-01-02T10:32:37Z</time>
      </trkpt>
      <trkpt lat="43.7675" lon="7.26236">
        <ele>564</ele>
        <time>2011-01-02T10:32:41Z</time>
      </trkpt>
      <trkpt lat="43.76756" lon="7.26225">
        <ele>564</ele>
        <time>2011-01-02T10:32:44Z</time>
      </trkpt>
      <trkpt lat="43.76757" lon="7.26213">
        <ele>564</ele>
        <time>2011-01-02T10:32:48Z</time>
      </trkpt>
      <trkpt lat="43.76754" lon="7.26199">
        <ele>565</ele>
        <time>2011-01-02T10:32:52Z</time>
      </trkpt>
      <trkpt lat="43.7675" lon="7.26188">
        <ele>565</ele>
        <time>2011-01-02T10:32:55Z</time>
      </trkpt>
      <trkpt lat="43.76743" lon="7.26177">
        <ele>565</ele>
        <time>2011-01-02T10:33:00Z</time>
      </trkpt>
      <trkpt lat="43.76737" lon="7.26166">
        <ele>566</ele>
        <time>2011-01-02T10:33:04Z</time>
      </trkpt>
      <trkpt lat="43.7673" lon="7.26155">
        <ele>567</ele>
        <time>2011-01-02T10:33:09Z</time>
      </trkpt>
      <trkpt lat="43.76723" lon="7.26145">
        <ele>568</ele>
        <time>2011-01-02T10:33:13Z</time>
      </trkpt>
      <trkpt lat="43.76717" lon="7.26134">
        <ele>568</ele>
        <time>2011-01-02T10:33:18Z</time>
      </trkpt>
      <trkpt lat="43.76711" lon="7.26123">
        <ele>570</ele>
        <time>2011-01-02T10:33:22Z</time>
      </trkpt>
      <trkpt lat="43.76705" lon="7.26112">
        <ele>571</ele>
        <time>2011-01-02T10:33:27Z</time>
      </trkpt>
      <trkpt lat="43.76699" lon="7.26102">
        <ele>571</ele>
        <time>2011-01-02T10:33:31Z</time>
      </trkpt>
      <trkpt lat="43.76694" lon="7.26091">
        <ele>572</ele>
        <time>2011-01-02T10:33:35Z</time>
      </trkpt>
      <trkpt lat="43.76688" lon="7.2608">
        <ele>572</ele>
        <time>2011-01-02T10:33:40Z</time>
      </trkpt>
      <trkpt lat="43.76683" lon="7.26068">
        <ele>573</ele>
        <time>2011-01-02T10:33:44Z</time>
      </trkpt>
      <trkpt lat="43.76681" lon="7.26065">
        <ele>573</ele>
        <time>2011-01-02T10:33:46Z</time>
      </trkpt>
      <trkpt lat="43.76675" lon="7.26055">
        <ele>574</ele>
        <time>2011-01-02T10:33:50Z</time>
      </trkpt>
      <trkpt lat="43.76668" lon="7.26046">
        <ele>575</ele>
        <time>2011-01-02T10:33:55Z</time>
      </trkpt>
      <trkpt lat="43.7666" lon="7.26038">
        <ele>578</ele>
        <time>2011-01-02T10:33:59Z</time>
      </trkpt>
      <trkpt lat="43.76667" lon="7.26029">
        <ele>581</ele>
        <time>2011-01-02T10:34:07Z</time>
      </trkpt>
      <trkpt lat="43.76677" lon="7.26034">
        <ele>583</ele>
        <time>2011-01-02T10:34:12Z</time>
      </trkpt>
      <trkpt lat="43.76685" lon="7.26043">
        <ele>584</ele>
        <time>2011-01-02T10:34:16Z</time>
      </trkpt>
      <trkpt lat="43.76693" lon="7.26051">
        <ele>586</ele>
        <time>2011-01-02T10:34:20Z</time>
      </trkpt>
      <trkpt lat="43.76701" lon="7.26058">
        <ele>587</ele>
        <time>2011-01-02T10:34:25Z</time>
      </trkpt>
      <trkpt lat="43.76709" lon="7.26065">
        <ele>587</ele>
        <time>2011-01-02T10:34:29Z</time>
      </trkpt>
      <trkpt lat="43.76717" lon="7.26073">
        <ele>588</ele>
        <time>2011-01-02T10:34:34Z</time>
      </trkpt>
      <trkpt lat="43.76725" lon="7.26081">
        <ele>587</ele>
        <time>2011-01-02T10:34:40Z</time>
      </trkpt>
      <trkpt lat="43.76734" lon="7.26088">
        <ele>588</ele>
        <time>2011-01-02T10:34:45Z</time>
      </trkpt>
      <trkpt lat="43.76742" lon="7.26096">
        <ele>589</ele>
        <time>2011-01-02T10:34:51Z</time>
      </trkpt>
      <trkpt lat="43.7675" lon="7.26104">
        <ele>590</ele>
        <time>2011-01-02T10:34:56Z</time>
      </trkpt>
      <trkpt lat="43.76757" lon="7.26112">
        <ele>591</ele>
        <time>2011-01-02T10:35:01Z</time>
      </trkpt>
      <trkpt lat="43.76765" lon="7.26122">
        <ele>592</ele>
        <time>2011-01-02T10:35:07Z</time>
      </trkpt>
      <trkpt lat="43.76773" lon="7.26131">
        <ele>593</ele>
        <time>2011-01-02T10:35:12Z</time>
      </trkpt>
      <trkpt lat="43.7678" lon="7.26138">
        <ele>594</ele>
        <time>2011-01-02T10:35:16Z</time>
      </trkpt>
      <trkpt lat="43.76788" lon="7.26146">
        <ele>594</ele>
        <time>2011-01-02T10:35:21Z</time>
      </trkpt>
      <trkpt lat="43.76796" lon="7.26153">
        <ele>597</ele>
        <time>2011-01-02T10:35:27Z</time>
      </trkpt>
      <trkpt lat="43.76804" lon="7.2616">
        <ele>597</ele>
        <time>2011-01-02T10:35:36Z</time>
      </trkpt>
      <trkpt lat="43.76813" lon="7.26167">
        <ele>598</ele>
        <time>2011-01-02T10:35:43Z</time>
      </trkpt>
      <trkpt lat="43.76821" lon="7.26173">
        <ele>599</ele>
        <time>2011-01-02T10:35:49Z</time>
      </trkpt>
      <trkpt lat="43.76829" lon="7.2618">
        <ele>602</ele>
        <time>2011-01-02T10:35:54Z</time>
      </trkpt>
      <trkpt lat="43.76837" lon="7.26186">
        <ele>602</ele>
        <time>2011-01-02T10:35:59Z</time>
      </trkpt>
      <trkpt lat="43.76844" lon="7.26196">
        <ele>602</ele>
        <time>2011-01-02T10:36:05Z</time>
      </trkpt>
      <trkpt lat="43.76846" lon="7.26209">
        <ele>603</ele>
        <time>2011-01-02T10:36:11Z</time>
      </trkpt>
      <trkpt lat="43.76845" lon="7.26223">
        <ele>603</ele>
        <time>2011-01-02T10:36:17Z</time>
      </trkpt>
      <trkpt lat="43.76841" lon="7.26235">
        <ele>603</ele>
        <time>2011-01-02T10:36:22Z</time>
      </trkpt>
      <trkpt lat="43.76836" lon="7.26246">
        <ele>604</ele>
        <time>2011-01-02T10:36:27Z</time>
      </trkpt>
      <trkpt lat="43.7683" lon="7.26256">
        <ele>606</ele>
        <time>2011-01-02T10:36:31Z</time>
      </trkpt>
      <trkpt lat="43.76824" lon="7.26267">
        <ele>607</ele>
        <time>2011-01-02T10:36:36Z</time>
      </trkpt>
      <trkpt lat="43.76819" lon="7.26278">
        <ele>608</ele>
        <time>2011-01-02T10:36:41Z</time>
      </trkpt>
      <trkpt lat="43.76813" lon="7.26288">
        <ele>609</ele>
        <time>2011-01-02T10:36:47Z</time>
      </trkpt>
      <trkpt lat="43.76808" lon="7.26299">
        <ele>608</ele>
        <time>2011-01-02T10:36:52Z</time>
      </trkpt>
      <trkpt lat="43.76804" lon="7.26312">
        <ele>610</ele>
        <time>2011-01-02T10:36:58Z</time>
      </trkpt>
      <trkpt lat="43.76801" lon="7.26325">
        <ele>611</ele>
        <time>2011-01-02T10:37:03Z</time>
      </trkpt>
      <trkpt lat="43.76796" lon="7.26337">
        <ele>612</ele>
        <time>2011-01-02T10:37:08Z</time>
      </trkpt>
      <trkpt lat="43.76792" lon="7.2635">
        <ele>613</ele>
        <time>2011-01-02T10:37:13Z</time>
      </trkpt>
      <trkpt lat="43.76787" lon="7.26361">
        <ele>615</ele>
        <time>2011-01-02T10:37:19Z</time>
      </trkpt>
      <trkpt lat="43.76782" lon="7.26373">
        <ele>615</ele>
        <time>2011-01-02T10:37:25Z</time>
      </trkpt>
      <trkpt lat="43.76777" lon="7.26385">
        <ele>617</ele>
        <time>2011-01-02T10:37:31Z</time>
      </trkpt>
      <trkpt lat="43.7677" lon="7.26394">
        <ele>617</ele>
        <time>2011-01-02T10:37:36Z</time>
      </trkpt>
      <trkpt lat="43.76764" lon="7.26405">
        <ele>617</ele>
        <time>2011-01-02T10:37:42Z</time>
      </trkpt>
      <trkpt lat="43.76758" lon="7.26415">
        <ele>618</ele>
        <time>2011-01-02T10:37:48Z</time>
      </trkpt>
      <trkpt lat="43.76748" lon="7.26431">
        <ele>620</ele>
        <time>2011-01-02T10:37:57Z</time>
      </trkpt>
      <trkpt lat="43.76742" lon="7.26441">
        <ele>622</ele>
        <time>2011-01-02T10:38:02Z</time>
      </trkpt>
      <trkpt lat="43.76736" lon="7.26451">
        <ele>622</ele>
        <time>2011-01-02T10:38:08Z</time>
      </trkpt>
      <trkpt lat="43.76731" lon="7.26464">
        <ele>624</ele>
        <time>2011-01-02T10:38:14Z</time>
      </trkpt>
      <trkpt lat="43.7674" lon="7.26468">
        <ele>626</ele>
        <time>2011-01-02T10:38:20Z</time>
      </trkpt>
      <trkpt lat="43.76748" lon="7.2646">
        <ele>626</ele>
        <time>2011-01-02T10:38:24Z</time>
      </trkpt>
      <trkpt lat="43.7675" lon="7.26457">
        <ele>626</ele>
        <time>2011-01-02T10:38:26Z</time>
      </trkpt>
      <trkpt lat="43.76756" lon="7.26446">
        <ele>625</ele>
        <time>2011-01-02T10:38:31Z</time>
      </trkpt>
      <trkpt lat="43.76763" lon="7.26435">
        <ele>626</ele>
        <time>2011-01-02T10:38:36Z</time>
      </trkpt>
      <trkpt lat="43.76767" lon="7.26429">
        <ele>627</ele>
        <time>2011-01-02T10:38:39Z</time>
      </trkpt>
      <trkpt lat="43.76774" lon="7.26422">
        <ele>627</ele>
        <time>2011-01-02T10:38:44Z</time>
      </trkpt>
      <trkpt lat="43.76783" lon="7.26415">
        <ele>628</ele>
        <time>2011-01-02T10:38:49Z</time>
      </trkpt>
      <trkpt lat="43.76792" lon="7.26409">
        <ele>629</ele>
        <time>2011-01-02T10:38:54Z</time>
      </trkpt>
      <trkpt lat="43.768" lon="7.26402">
        <ele>630</ele>
        <time>2011-01-02T10:38:59Z</time>
      </trkpt>
      <trkpt lat="43.76807" lon="7.26394">
        <ele>630</ele>
        <time>2011-01-02T10:39:04Z</time>
      </trkpt>
      <trkpt lat="43.76813" lon="7.26385">
        <ele>631</ele>
        <time>2011-01-02T10:39:08Z</time>
      </trkpt>
      <trkpt lat="43.7682" lon="7.26376">
        <ele>632</ele>
        <time>2011-01-02T10:39:13Z</time>
      </trkpt>
      <trkpt lat="43.76827" lon="7.26366">
        <ele>634</ele>
        <time>2011-01-02T10:39:19Z</time>
      </trkpt>
      <trkpt lat="43.76835" lon="7.26356">
        <ele>635</ele>
        <time>2011-01-02T10:39:24Z</time>
      </trkpt>
      <trkpt lat="43.76841" lon="7.26347">
        <ele>635</ele>
        <time>2011-01-02T10:39:29Z</time>
      </trkpt>
      <trkpt lat="43.76848" lon="7.26338">
        <ele>636</ele>
        <time>2011-01-02T10:39:34Z</time>
      </trkpt>
      <trkpt lat="43.76856" lon="7.2633">
        <ele>638</ele>
        <time>2011-01-02T10:39:39Z</time>
      </trkpt>
      <trkpt lat="43.76864" lon="7.2632">
        <ele>638</ele>
        <time>2011-01-02T10:39:44Z</time>
      </trkpt>
      <trkpt lat="43.76871" lon="7.26311">
        <ele>638</ele>
        <time>2011-01-02T10:39:48Z</time>
      </trkpt>
      <trkpt lat="43.76878" lon="7.26303">
        <ele>639</ele>
        <time>2011-01-02T10:39:52Z</time>
      </trkpt>
      <trkpt lat="43.76885" lon="7.26294">
        <ele>640</ele>
        <time>2011-01-02T10:39:58Z</time>
      </trkpt>
      <trkpt lat="43.76893" lon="7.26285">
        <ele>640</ele>
        <time>2011-01-02T10:40:03Z</time>
      </trkpt>
      <trkpt lat="43.769" lon="7.26276">
        <ele>642</ele>
        <time>2011-01-02T10:40:08Z</time>
      </trkpt>
      <trkpt lat="43.76907" lon="7.26266">
        <ele>642</ele>
        <time>2011-01-02T10:40:12Z</time>
      </trkpt>
      <trkpt lat="43.76914" lon="7.26256">
        <ele>643</ele>
        <time>2011-01-02T10:40:17Z</time>
      </trkpt>
      <trkpt lat="43.7692" lon="7.26246">
        <ele>644</ele>
        <time>2011-01-02T10:40:21Z</time>
      </trkpt>
      <trkpt lat="43.76928" lon="7.26236">
        <ele>644</ele>
        <time>2011-01-02T10:40:26Z</time>
      </trkpt>
      <trkpt lat="43.76935" lon="7.26228">
        <ele>645</ele>
        <time>2011-01-02T10:40:32Z</time>
      </trkpt>
      <trkpt lat="43.76941" lon="7.26218">
        <ele>645</ele>
        <time>2011-01-02T10:40:38Z</time>
      </trkpt>
      <trkpt lat="43.76947" lon="7.26206">
        <ele>646</ele>
        <time>2011-01-02T10:40:44Z</time>
      </trkpt>
      <trkpt lat="43.7695" lon="7.26194">
        <ele>647</ele>
        <time>2011-01-02T10:40:49Z</time>
      </trkpt>
      <trkpt lat="43.76951" lon="7.26181">
        <ele>648</ele>
        <time>2011-01-02T10:40:55Z</time>
      </trkpt>
      <trkpt lat="43.76947" lon="7.26169">
        <ele>648</ele>
        <time>2011-01-02T10:41:00Z</time>
      </trkpt>
      <trkpt lat="43.76942" lon="7.26157">
        <ele>650</ele>
        <time>2011-01-02T10:41:05Z</time>
      </trkpt>
      <trkpt lat="43.76949" lon="7.26149">
        <ele>652</ele>
        <time>2011-01-02T10:41:14Z</time>
      </trkpt>
      <trkpt lat="43.76958" lon="7.26155">
        <ele>652</ele>
        <time>2011-01-02T10:41:19Z</time>
      </trkpt>
      <trkpt lat="43.76965" lon="7.26166">
        <ele>654</ele>
        <time>2011-01-02T10:41:23Z</time>
      </trkpt>
      <trkpt lat="43.76968" lon="7.26178">
        <ele>654</ele>
        <time>2011-01-02T10:41:27Z</time>
      </trkpt>
      <trkpt lat="43.76969" lon="7.26191">
        <ele>655</ele>
        <time>2011-01-02T10:41:32Z</time>
      </trkpt>
      <trkpt lat="43.76965" lon="7.26206">
        <ele>657</ele>
        <time>2011-01-02T10:41:38Z</time>
      </trkpt>
      <trkpt lat="43.76961" lon="7.26217">
        <ele>659</ele>
        <time>2011-01-02T10:41:43Z</time>
      </trkpt>
      <trkpt lat="43.76956" lon="7.26229">
        <ele>661</ele>
        <time>2011-01-02T10:41:47Z</time>
      </trkpt>
      <trkpt lat="43.76952" lon="7.2624">
        <ele>662</ele>
        <time>2011-01-02T10:41:51Z</time>
      </trkpt>
      <trkpt lat="43.76949" lon="7.26253">
        <ele>662</ele>
        <time>2011-01-02T10:41:56Z</time>
      </trkpt>
      <trkpt lat="43.76946" lon="7.26266">
        <ele>663</ele>
        <time>2011-01-02T10:42:00Z</time>
      </trkpt>
      <trkpt lat="43.76942" lon="7.26278">
        <ele>665</ele>
        <time>2011-01-02T10:42:04Z</time>
      </trkpt>
      <trkpt lat="43.76938" lon="7.26291">
        <ele>666</ele>
        <time>2011-01-02T10:42:09Z</time>
      </trkpt>
      <trkpt lat="43.76933" lon="7.26303">
        <ele>667</ele>
        <time>2011-01-02T10:42:13Z</time>
      </trkpt>
      <trkpt lat="43.76931" lon="7.26307">
        <ele>668</ele>
        <time>2011-01-02T10:42:15Z</time>
      </trkpt>
      <trkpt lat="43.76926" lon="7.26319">
        <ele>668</ele>
        <time>2011-01-02T10:42:19Z</time>
      </trkpt>
      <trkpt lat="43.76921" lon="7.26332">
        <ele>669</ele>
        <time>2011-01-02T10:42:24Z</time>
      </trkpt>
      <trkpt lat="43.76917" lon="7.26344">
        <ele>670</ele>
        <time>2011-01-02T10:42:28Z</time>
      </trkpt>
      <trkpt lat="43.76913" lon="7.26355">
        <ele>670</ele>
        <time>2011-01-02T10:42:33Z</time>
      </trkpt>
      <trkpt lat="43.76908" lon="7.26366">
        <ele>671</ele>
        <time>2011-01-02T10:42:38Z</time>
      </trkpt>
      <trkpt lat="43.76903" lon="7.26378">
        <ele>672</ele>
        <time>2011-01-02T10:42:43Z</time>
      </trkpt>
      <trkpt lat="43.76899" lon="7.26391">
        <ele>672</ele>
        <time>2011-01-02T10:42:48Z</time>
      </trkpt>
      <trkpt lat="43.76894" lon="7.26403">
        <ele>671</ele>
        <time>2011-01-02T10:42:54Z</time>
      </trkpt>
      <trkpt lat="43.76889" lon="7.26415">
        <ele>672</ele>
        <time>2011-01-02T10:43:00Z</time>
      </trkpt>
      <trkpt lat="43.76884" lon="7.26427">
        <ele>673</ele>
        <time>2011-01-02T10:43:05Z</time>
      </trkpt>
      <trkpt lat="43.76879" lon="7.26439">
        <ele>675</ele>
        <time>2011-01-02T10:43:10Z</time>
      </trkpt>
      <trkpt lat="43.76875" lon="7.26452">
        <ele>673</ele>
        <time>2011-01-02T10:43:16Z</time>
      </trkpt>
      <trkpt lat="43.76873" lon="7.26465">
        <ele>673</ele>
        <time>2011-01-02T10:43:20Z</time>
      </trkpt>
      <trkpt lat="43.7687" lon="7.26477">
        <ele>674</ele>
        <time>2011-01-02T10:43:24Z</time>
      </trkpt>
      <trkpt lat="43.76866" lon="7.2649">
        <ele>675</ele>
        <time>2011-01-02T10:43:30Z</time>
      </trkpt>
      <trkpt lat="43.76862" lon="7.26502">
        <ele>676</ele>
        <time>2011-01-02T10:43:35Z</time>
      </trkpt>
      <trkpt lat="43.76859" lon="7.26515">
        <ele>676</ele>
        <time>2011-01-02T10:43:40Z</time>
      </trkpt>
      <trkpt lat="43.76856" lon="7.26528">
        <ele>677</ele>
        <time>2011-01-02T10:43:45Z</time>
      </trkpt>
      <trkpt lat="43.76856" lon="7.26529">
        <ele>678</ele>
        <time>2011-01-02T10:43:46Z</time>
      </trkpt>
      <trkpt lat="43.76853" lon="7.26542">
        <ele>679</ele>
        <time>2011-01-02T10:43:51Z</time>
      </trkpt>
      <trkpt lat="43.76851" lon="7.26554">
        <ele>679</ele>
        <time>2011-01-02T10:43:56Z</time>
      </trkpt>
      <trkpt lat="43.7685" lon="7.2656">
        <ele>680</ele>
        <time>2011-01-02T10:43:58Z</time>
      </trkpt>
      <trkpt lat="43.7685" lon="7.26573">
        <ele>681</ele>
        <time>2011-01-02T10:44:03Z</time>
      </trkpt>
      <trkpt lat="43.7685" lon="7.26586">
        <ele>682</ele>
        <time>2011-01-02T10:44:09Z</time>
      </trkpt>
      <trkpt lat="43.76861" lon="7.26579">
        <ele>685</ele>
        <time>2011-01-02T10:44:17Z</time>
      </trkpt>
      <trkpt lat="43.76865" lon="7.26567">
        <ele>685</ele>
        <time>2011-01-02T10:44:22Z</time>
      </trkpt>
      <trkpt lat="43.76866" lon="7.26554">
        <ele>685</ele>
        <time>2011-01-02T10:44:26Z</time>
      </trkpt>
      <trkpt lat="43.76869" lon="7.26541">
        <ele>687</ele>
        <time>2011-01-02T10:44:31Z</time>
      </trkpt>
      <trkpt lat="43.76874" lon="7.26529">
        <ele>688</ele>
        <time>2011-01-02T10:44:37Z</time>
      </trkpt>
      <trkpt lat="43.7688" lon="7.26519">
        <ele>688</ele>
        <time>2011-01-02T10:44:42Z</time>
      </trkpt>
      <trkpt lat="43.76887" lon="7.26509">
        <ele>689</ele>
        <time>2011-01-02T10:44:47Z</time>
      </trkpt>
      <trkpt lat="43.76893" lon="7.265">
        <ele>690</ele>
        <time>2011-01-02T10:44:53Z</time>
      </trkpt>
      <trkpt lat="43.76901" lon="7.26489">
        <ele>692</ele>
        <time>2011-01-02T10:44:59Z</time>
      </trkpt>
      <trkpt lat="43.76908" lon="7.26478">
        <ele>693</ele>
        <time>2011-01-02T10:45:06Z</time>
      </trkpt>
      <trkpt lat="43.76909" lon="7.26476">
        <ele>693</ele>
        <time>2011-01-02T10:45:07Z</time>
      </trkpt>
      <trkpt lat="43.76915" lon="7.26468">
        <ele>694</ele>
        <time>2011-01-02T10:45:13Z</time>
      </trkpt>
      <trkpt lat="43.76917" lon="7.26466">
        <ele>693</ele>
        <time>2011-01-02T10:45:14Z</time>
      </trkpt>
      <trkpt lat="43.76924" lon="7.26457">
        <ele>695</ele>
        <time>2011-01-02T10:45:20Z</time>
      </trkpt>
      <trkpt lat="43.76932" lon="7.26447">
        <ele>697</ele>
        <time>2011-01-02T10:45:26Z</time>
      </trkpt>
      <trkpt lat="43.7694" lon="7.26436">
        <ele>698</ele>
        <time>2011-01-02T10:45:33Z</time>
      </trkpt>
      <trkpt lat="43.76946" lon="7.26426">
        <ele>700</ele>
        <time>2011-01-02T10:45:39Z</time>
      </trkpt>
      <trkpt lat="43.76953" lon="7.26416">
        <ele>701</ele>
        <time>2011-01-02T10:45:45Z</time>
      </trkpt>
      <trkpt lat="43.76959" lon="7.26407">
        <ele>701</ele>
        <time>2011-01-02T10:45:52Z</time>
      </trkpt>
      <trkpt lat="43.76967" lon="7.26398">
        <ele>703</ele>
        <time>2011-01-02T10:45:58Z</time>
      </trkpt>
      <trkpt lat="43.76974" lon="7.26388">
        <ele>704</ele>
        <time>2011-01-02T10:46:05Z</time>
      </trkpt>
      <trkpt lat="43.76983" lon="7.26377">
        <ele>706</ele>
        <time>2011-01-02T10:46:12Z</time>
      </trkpt>
      <trkpt lat="43.76989" lon="7.26365">
        <ele>709</ele>
        <time>2011-01-02T10:46:19Z</time>
      </trkpt>
      <trkpt lat="43.76995" lon="7.26355">
        <ele>711</ele>
        <time>2011-01-02T10:46:25Z</time>
      </trkpt>
      <trkpt lat="43.76996" lon="7.26354">
        <ele>711</ele>
        <time>2011-01-02T10:46:26Z</time>
      </trkpt>
      <trkpt lat="43.77003" lon="7.26345">
        <ele>711</ele>
        <time>2011-01-02T10:46:32Z</time>
      </trkpt>
      <trkpt lat="43.77011" lon="7.26336">
        <ele>711</ele>
        <time>2011-01-02T10:46:39Z</time>
      </trkpt>
      <trkpt lat="43.77018" lon="7.26327">
        <ele>711</ele>
        <time>2011-01-02T10:46:45Z</time>
      </trkpt>
      <trkpt lat="43.77025" lon="7.26318">
        <ele>712</ele>
        <time>2011-01-02T10:46:51Z</time>
      </trkpt>
      <trkpt lat="43.77033" lon="7.26309">
        <ele>714</ele>
        <time>2011-01-02T10:46:59Z</time>
      </trkpt>
      <trkpt lat="43.77041" lon="7.263">
        <ele>716</ele>
        <time>2011-01-02T10:47:05Z</time>
      </trkpt>
      <trkpt lat="43.77049" lon="7.26291">
        <ele>718</ele>
        <time>2011-01-02T10:47:11Z</time>
      </trkpt>
      <trkpt lat="43.77056" lon="7.26284">
        <ele>719</ele>
        <time>2011-01-02T10:47:16Z</time>
      </trkpt>
      <trkpt lat="43.77063" lon="7.26276">
        <ele>719</ele>
        <time>2011-01-02T10:47:22Z</time>
      </trkpt>
      <trkpt lat="43.77066" lon="7.26273">
        <ele>720</ele>
        <time>2011-01-02T10:47:24Z</time>
      </trkpt>
      <trkpt lat="43.77074" lon="7.26266">
        <ele>720</ele>
        <time>2011-01-02T10:47:30Z</time>
      </trkpt>
      <trkpt lat="43.7708" lon="7.26261">
        <ele>721</ele>
        <time>2011-01-02T10:47:34Z</time>
      </trkpt>
      <trkpt lat="43.77087" lon="7.26254">
        <ele>721</ele>
        <time>2011-01-02T10:47:39Z</time>
      </trkpt>
      <trkpt lat="43.77095" lon="7.26247">
        <ele>722</ele>
        <time>2011-01-02T10:47:45Z</time>
      </trkpt>
      <trkpt lat="43.77102" lon="7.26238">
        <ele>723</ele>
        <time>2011-01-02T10:47:51Z</time>
      </trkpt>
      <trkpt lat="43.77109" lon="7.26231">
        <ele>724</ele>
        <time>2011-01-02T10:47:56Z</time>
      </trkpt>
      <trkpt lat="43.77115" lon="7.26223">
        <ele>724</ele>
        <time>2011-01-02T10:48:02Z</time>
      </trkpt>
      <trkpt lat="43.77123" lon="7.26214">
        <ele>726</ele>
        <time>2011-01-02T10:48:08Z</time>
      </trkpt>
      <trkpt lat="43.7713" lon="7.26206">
        <ele>727</ele>
        <time>2011-01-02T10:48:15Z</time>
      </trkpt>
      <trkpt lat="43.77137" lon="7.26197">
        <ele>729</ele>
        <time>2011-01-02T10:48:21Z</time>
      </trkpt>
      <trkpt lat="43.77139" lon="7.26193">
        <ele>729</ele>
        <time>2011-01-02T10:48:23Z</time>
      </trkpt>
      <trkpt lat="43.77146" lon="7.26183">
        <ele>731</ele>
        <time>2011-01-02T10:48:29Z</time>
      </trkpt>
      <trkpt lat="43.77153" lon="7.26174">
        <ele>732</ele>
        <time>2011-01-02T10:48:35Z</time>
      </trkpt>
      <trkpt lat="43.7716" lon="7.26165">
        <ele>732</ele>
        <time>2011-01-02T10:48:41Z</time>
      </trkpt>
      <trkpt lat="43.77166" lon="7.26155">
        <ele>734</ele>
        <time>2011-01-02T10:48:47Z</time>
      </trkpt>
      <trkpt lat="43.77172" lon="7.26145">
        <ele>735</ele>
        <time>2011-01-02T10:48:53Z</time>
      </trkpt>
      <trkpt lat="43.77175" lon="7.26142">
        <ele>736</ele>
        <time>2011-01-02T10:48:55Z</time>
      </trkpt>
      <trkpt lat="43.77181" lon="7.26132">
        <ele>739</ele>
        <time>2011-01-02T10:49:02Z</time>
      </trkpt>
      <trkpt lat="43.77188" lon="7.26122">
        <ele>739</ele>
        <time>2011-01-02T10:49:08Z</time>
      </trkpt>
      <trkpt lat="43.77195" lon="7.26112">
        <ele>739</ele>
        <time>2011-01-02T10:49:15Z</time>
      </trkpt>
      <trkpt lat="43.77201" lon="7.26101">
        <ele>738</ele>
        <time>2011-01-02T10:49:21Z</time>
      </trkpt>
      <trkpt lat="43.77205" lon="7.26092">
        <ele>740</ele>
        <time>2011-01-02T10:49:26Z</time>
      </trkpt>
      <trkpt lat="43.7721" lon="7.26081">
        <ele>743</ele>
        <time>2011-01-02T10:49:32Z</time>
      </trkpt>
      <trkpt lat="43.77215" lon="7.26069">
        <ele>743</ele>
        <time>2011-01-02T10:49:38Z</time>
      </trkpt>
      <trkpt lat="43.7722" lon="7.26058">
        <ele>744</ele>
        <time>2011-01-02T10:49:44Z</time>
      </trkpt>
      <trkpt lat="43.77227" lon="7.26047">
        <ele>744</ele>
        <time>2011-01-02T10:49:50Z</time>
      </trkpt>
      <trkpt lat="43.77232" lon="7.26036">
        <ele>747</ele>
        <time>2011-01-02T10:49:55Z</time>
      </trkpt>
      <trkpt lat="43.77237" lon="7.26026">
        <ele>747</ele>
        <time>2011-01-02T10:50:01Z</time>
      </trkpt>
      <trkpt lat="43.77243" lon="7.26014">
        <ele>749</ele>
        <time>2011-01-02T10:50:07Z</time>
      </trkpt>
      <trkpt lat="43.77245" lon="7.26001">
        <ele>749</ele>
        <time>2011-01-02T10:50:13Z</time>
      </trkpt>
      <trkpt lat="43.77248" lon="7.25987">
        <ele>752</ele>
        <time>2011-01-02T10:50:22Z</time>
      </trkpt>
      <trkpt lat="43.77244" lon="7.25974">
        <ele>754</ele>
        <time>2011-01-02T10:50:28Z</time>
      </trkpt>
      <trkpt lat="43.77238" lon="7.25964">
        <ele>754</ele>
        <time>2011-01-02T10:50:33Z</time>
      </trkpt>
      <trkpt lat="43.77236" lon="7.25961">
        <ele>754</ele>
        <time>2011-01-02T10:50:35Z</time>
      </trkpt>
      <trkpt lat="43.77227" lon="7.25956">
        <ele>754</ele>
        <time>2011-01-02T10:51:09Z</time>
      </trkpt>
      <trkpt lat="43.77218" lon="7.25951">
        <ele>763</ele>
        <time>2011-01-02T10:54:57Z</time>
      </trkpt>
      <trkpt lat="43.77217" lon="7.25939">
        <ele>763</ele>
        <time>2011-01-02T10:55:10Z</time>
      </trkpt>
      <trkpt lat="43.77226" lon="7.2594">
        <ele>761</ele>
        <time>2011-01-02T10:55:22Z</time>
      </trkpt>
      <trkpt lat="43.77233" lon="7.25949">
        <ele>759</ele>
        <time>2011-01-02T10:56:30Z</time>
      </trkpt>
      <trkpt lat="43.77242" lon="7.25948">
        <ele>759</ele>
        <time>2011-01-02T10:56:36Z</time>
      </trkpt>
      <trkpt lat="43.77252" lon="7.25945">
        <ele>758</ele>
        <time>2011-01-02T10:56:42Z</time>
      </trkpt>
      <trkpt lat="43.77261" lon="7.2594">
        <ele>758</ele>
        <time>2011-01-02T10:56:48Z</time>
      </trkpt>
      <trkpt lat="43.77265" lon="7.25937">
        <ele>758</ele>
        <time>2011-01-02T10:56:50Z</time>
      </trkpt>
      <trkpt lat="43.77274" lon="7.25931">
        <ele>758</ele>
        <time>2011-01-02T10:56:56Z</time>
      </trkpt>
      <trkpt lat="43.77282" lon="7.25924">
        <ele>760</ele>
        <time>2011-01-02T10:57:01Z</time>
      </trkpt>
      <trkpt lat="43.77293" lon="7.25918">
        <ele>761</ele>
        <time>2011-01-02T10:57:07Z</time>
      </trkpt>
      <trkpt lat="43.77302" lon="7.25915">
        <ele>760</ele>
        <time>2011-01-02T10:57:12Z</time>
      </trkpt>
      <trkpt lat="43.77308" lon="7.2591">
        <ele>762</ele>
        <time>2011-01-02T10:57:18Z</time>
      </trkpt>
      <trkpt lat="43.77318" lon="7.25903">
        <ele>763</ele>
        <time>2011-01-02T10:57:27Z</time>
      </trkpt>
      <trkpt lat="43.77326" lon="7.25896">
        <ele>764</ele>
        <time>2011-01-02T10:57:34Z</time>
      </trkpt>
      <trkpt lat="43.77333" lon="7.25887">
        <ele>765</ele>
        <time>2011-01-02T10:57:41Z</time>
      </trkpt>
      <trkpt lat="43.77336" lon="7.25874">
        <ele>764</ele>
        <time>2011-01-02T10:57:47Z</time>
      </trkpt>
      <trkpt lat="43.7734" lon="7.25862">
        <ele>764</ele>
        <time>2011-01-02T10:57:54Z</time>
      </trkpt>
      <trkpt lat="43.77346" lon="7.25855">
        <ele>765</ele>
        <time>2011-01-02T10:57:59Z</time>
      </trkpt>
      <trkpt lat="43.77355" lon="7.2585">
        <ele>766</ele>
        <time>2011-01-02T10:58:06Z</time>
      </trkpt>
      <trkpt lat="43.77364" lon="7.25846">
        <ele>767</ele>
        <time>2011-01-02T10:58:11Z</time>
      </trkpt>
      <trkpt lat="43.7737" lon="7.25843">
        <ele>767</ele>
        <time>2011-01-02T10:58:15Z</time>
      </trkpt>
      <trkpt lat="43.77376" lon="7.25834">
        <ele>768</ele>
        <time>2011-01-02T10:58:26Z</time>
      </trkpt>
      <trkpt lat="43.77381" lon="7.25818">
        <ele>769</ele>
        <time>2011-01-02T10:58:32Z</time>
      </trkpt>
      <trkpt lat="43.77385" lon="7.25804">
        <ele>769</ele>
        <time>2011-01-02T10:58:37Z</time>
      </trkpt>
      <trkpt lat="43.77389" lon="7.2579">
        <ele>770</ele>
        <time>2011-01-02T10:58:42Z</time>
      </trkpt>
      <trkpt lat="43.77392" lon="7.25778">
        <ele>771</ele>
        <time>2011-01-02T10:58:47Z</time>
      </trkpt>
      <trkpt lat="43.77394" lon="7.25761">
        <ele>772</ele>
        <time>2011-01-02T10:58:53Z</time>
      </trkpt>
      <trkpt lat="43.77392" lon="7.25748">
        <ele>773</ele>
        <time>2011-01-02T10:58:59Z</time>
      </trkpt>
      <trkpt lat="43.77387" lon="7.25735">
        <ele>776</ele>
        <time>2011-01-02T10:59:04Z</time>
      </trkpt>
      <trkpt lat="43.77387" lon="7.25733">
        <ele>776</ele>
        <time>2011-01-02T10:59:07Z</time>
      </trkpt>
      <trkpt lat="43.7738" lon="7.25722">
        <ele>780</ele>
        <time>2011-01-02T10:59:23Z</time>
      </trkpt>
      <trkpt lat="43.77376" lon="7.2571">
        <ele>782</ele>
        <time>2011-01-02T10:59:35Z</time>
      </trkpt>
      <trkpt lat="43.77368" lon="7.25704">
        <ele>786</ele>
        <time>2011-01-02T10:59:49Z</time>
      </trkpt>
      <trkpt lat="43.77358" lon="7.25691">
        <ele>788</ele>
        <time>2011-01-02T11:00:32Z</time>
      </trkpt>
      <trkpt lat="43.77354" lon="7.25683">
        <ele>790</ele>
        <time>2011-01-02T11:00:41Z</time>
      </trkpt>
      <trkpt lat="43.77346" lon="7.25675">
        <ele>791</ele>
        <time>2011-01-02T11:00:54Z</time>
      </trkpt>
      <trkpt lat="43.77339" lon="7.25665">
        <ele>793</ele>
        <time>2011-01-02T11:01:11Z</time>
      </trkpt>
      <trkpt lat="43.77335" lon="7.2565">
        <ele>797</ele>
        <time>2011-01-02T11:01:28Z</time>
      </trkpt>
      <trkpt lat="43.77332" lon="7.25635">
        <ele>800</ele>
        <time>2011-01-02T11:01:45Z</time>
      </trkpt>
      <trkpt lat="43.77328" lon="7.25623">
        <ele>805</ele>
        <time>2011-01-02T11:02:09Z</time>
      </trkpt>
      <trkpt lat="43.77321" lon="7.25612">
        <ele>810</ele>
        <time>2011-01-02T11:02:26Z</time>
      </trkpt>
      <trkpt lat="43.77313" lon="7.25602">
        <ele>810</ele>
        <time>2011-01-02T11:02:47Z</time>
      </trkpt>
      <trkpt lat="43.77305" lon="7.25594">
        <ele>813</ele>
        <time>2011-01-02T11:03:09Z</time>
      </trkpt>
      <trkpt lat="43.77301" lon="7.25578">
        <ele>813</ele>
        <time>2011-01-02T11:03:26Z</time>
      </trkpt>
      <trkpt lat="43.77301" lon="7.25565">
        <ele>814</ele>
        <time>2011-01-02T11:03:49Z</time>
      </trkpt>
      <trkpt lat="43.77298" lon="7.25552">
        <ele>815</ele>
        <time>2011-01-02T11:04:08Z</time>
      </trkpt>
      <trkpt lat="43.7729" lon="7.25542">
        <ele>815</ele>
        <time>2011-01-02T11:04:26Z</time>
      </trkpt>
      <trkpt lat="43.77286" lon="7.25539">
        <ele>817</ele>
        <time>2011-01-02T11:04:34Z</time>
      </trkpt>
      <trkpt lat="43.77276" lon="7.25528">
        <ele>823</ele>
        <time>2011-01-02T11:04:57Z</time>
      </trkpt>
      <trkpt lat="43.77266" lon="7.25518">
        <ele>836</ele>
        <time>2011-01-02T11:05:34Z</time>
      </trkpt>
      <trkpt lat="43.77265" lon="7.25517">
        <ele>837</ele>
        <time>2011-01-02T11:05:37Z</time>
      </trkpt>
      <trkpt lat="43.77259" lon="7.25508">
        <ele>841</ele>
        <time>2011-01-02T11:05:55Z</time>
      </trkpt>
      <trkpt lat="43.77254" lon="7.25497">
        <ele>842</ele>
        <time>2011-01-02T11:06:18Z</time>
      </trkpt>
      <trkpt lat="43.77249" lon="7.25485">
        <ele>842</ele>
        <time>2011-01-02T11:06:37Z</time>
      </trkpt>
      <trkpt lat="43.77245" lon="7.25474">
        <ele>845</ele>
        <time>2011-01-02T11:06:56Z</time>
      </trkpt>
      <trkpt lat="43.77239" lon="7.25463">
        <ele>847</ele>
        <time>2011-01-02T11:07:18Z</time>
      </trkpt>
      <trkpt lat="43.77235" lon="7.25452">
        <ele>856</ele>
        <time>2011-01-02T11:07:50Z</time>
      </trkpt>
      <trkpt lat="43.77227" lon="7.25442">
        <ele>857</ele>
        <time>2011-01-02T11:08:09Z</time>
      </trkpt>
      <trkpt lat="43.77231" lon="7.25431">
        <ele>885</ele>
        <time>2011-01-02T11:11:18Z</time>
      </trkpt>
      <trkpt lat="43.7724" lon="7.25424">
        <ele>885</ele>
        <time>2011-01-02T11:11:23Z</time>
      </trkpt>
      <trkpt lat="43.77248" lon="7.25415">
        <ele>883</ele>
        <time>2011-01-02T11:11:27Z</time>
      </trkpt>
      <trkpt lat="43.77256" lon="7.25407">
        <ele>882</ele>
        <time>2011-01-02T11:11:32Z</time>
      </trkpt>
      <trkpt lat="43.77266" lon="7.25399">
        <ele>879</ele>
        <time>2011-01-02T11:11:35Z</time>
      </trkpt>
      <trkpt lat="43.77274" lon="7.25392">
        <ele>878</ele>
        <time>2011-01-02T11:11:37Z</time>
      </trkpt>
      <trkpt lat="43.77283" lon="7.25386">
        <ele>877</ele>
        <time>2011-01-02T11:11:40Z</time>
      </trkpt>
      <trkpt lat="43.77287" lon="7.25385">
        <ele>877</ele>
        <time>2011-01-02T11:11:41Z</time>
      </trkpt>
      <trkpt lat="43.77296" lon="7.25385">
        <ele>877</ele>
        <time>2011-01-02T11:11:44Z</time>
      </trkpt>
      <trkpt lat="43.77306" lon="7.25387">
        <ele>876</ele>
        <time>2011-01-02T11:11:47Z</time>
      </trkpt>
      <trkpt lat="43.77315" lon="7.2539">
        <ele>876</ele>
        <time>2011-01-02T11:11:50Z</time>
      </trkpt>
      <trkpt lat="43.77326" lon="7.2539">
        <ele>876</ele>
        <time>2011-01-02T11:11:53Z</time>
      </trkpt>
      <trkpt lat="43.77337" lon="7.25386">
        <ele>875</ele>
        <time>2011-01-02T11:11:57Z</time>
      </trkpt>
      <trkpt lat="43.77346" lon="7.25382">
        <ele>874</ele>
        <time>2011-01-02T11:12:00Z</time>
      </trkpt>
      <trkpt lat="43.77357" lon="7.25376">
        <ele>874</ele>
        <time>2011-01-02T11:12:03Z</time>
      </trkpt>
      <trkpt lat="43.77367" lon="7.25371">
        <ele>873</ele>
        <time>2011-01-02T11:12:07Z</time>
      </trkpt>
      <trkpt lat="43.77377" lon="7.25369">
        <ele>872</ele>
        <time>2011-01-02T11:12:11Z</time>
      </trkpt>
      <trkpt lat="43.77387" lon="7.25366">
        <ele>870</ele>
        <time>2011-01-02T11:12:14Z</time>
      </trkpt>
      <trkpt lat="43.77396" lon="7.25362">
        <ele>869</ele>
        <time>2011-01-02T11:12:17Z</time>
      </trkpt>
      <trkpt lat="43.77406" lon="7.2536">
        <ele>870</ele>
        <time>2011-01-02T11:12:20Z</time>
      </trkpt>
      <trkpt lat="43.7741" lon="7.25359">
        <ele>872</ele>
        <time>2011-01-02T11:12:22Z</time>
      </trkpt>
      <trkpt lat="43.7742" lon="7.25357">
        <ele>872</ele>
        <time>2011-01-02T11:12:25Z</time>
      </trkpt>
      <trkpt lat="43.77429" lon="7.2535">
        <ele>876</ele>
        <time>2011-01-02T11:12:28Z</time>
      </trkpt>
      <trkpt lat="43.77439" lon="7.25345">
        <ele>877</ele>
        <time>2011-01-02T11:12:31Z</time>
      </trkpt>
      <trkpt lat="43.77447" lon="7.25338">
        <ele>878</ele>
        <time>2011-01-02T11:12:34Z</time>
      </trkpt>
      <trkpt lat="43.77456" lon="7.25327">
        <ele>877</ele>
        <time>2011-01-02T11:12:38Z</time>
      </trkpt>
      <trkpt lat="43.77466" lon="7.25322">
        <ele>876</ele>
        <time>2011-01-02T11:12:41Z</time>
      </trkpt>
      <trkpt lat="43.77475" lon="7.2532">
        <ele>876</ele>
        <time>2011-01-02T11:12:44Z</time>
      </trkpt>
      <trkpt lat="43.77486" lon="7.25321">
        <ele>876</ele>
        <time>2011-01-02T11:12:48Z</time>
      </trkpt>
      <trkpt lat="43.77495" lon="7.25318">
        <ele>874</ele>
        <time>2011-01-02T11:12:51Z</time>
      </trkpt>
      <trkpt lat="43.77505" lon="7.25314">
        <ele>874</ele>
        <time>2011-01-02T11:12:54Z</time>
      </trkpt>
      <trkpt lat="43.77514" lon="7.25308">
        <ele>871</ele>
        <time>2011-01-02T11:13:00Z</time>
      </trkpt>
      <trkpt lat="43.77523" lon="7.25297">
        <ele>868</ele>
        <time>2011-01-02T11:13:05Z</time>
      </trkpt>
      <trkpt lat="43.77532" lon="7.2529">
        <ele>865</ele>
        <time>2011-01-02T11:13:09Z</time>
      </trkpt>
      <trkpt lat="43.77534" lon="7.25292">
        <ele>864</ele>
        <time>2011-01-02T11:13:10Z</time>
      </trkpt>
      <trkpt lat="43.77544" lon="7.25286">
        <ele>862</ele>
        <time>2011-01-02T11:13:14Z</time>
      </trkpt>
      <trkpt lat="43.77554" lon="7.25284">
        <ele>860</ele>
        <time>2011-01-02T11:13:17Z</time>
      </trkpt>
      <trkpt lat="43.77562" lon="7.25279">
        <ele>858</ele>
        <time>2011-01-02T11:13:20Z</time>
      </trkpt>
      <trkpt lat="43.7757" lon="7.25271">
        <ele>856</ele>
        <time>2011-01-02T11:13:23Z</time>
      </trkpt>
      <trkpt lat="43.7758" lon="7.25267">
        <ele>853</ele>
        <time>2011-01-02T11:13:27Z</time>
      </trkpt>
      <trkpt lat="43.77584" lon="7.25259">
        <ele>851</ele>
        <time>2011-01-02T11:13:30Z</time>
      </trkpt>
      <trkpt lat="43.77589" lon="7.25248">
        <ele>846</ele>
        <time>2011-01-02T11:13:35Z</time>
      </trkpt>
      <trkpt lat="43.77591" lon="7.25235">
        <ele>844</ele>
        <time>2011-01-02T11:13:41Z</time>
      </trkpt>
      <trkpt lat="43.77595" lon="7.25223">
        <ele>841</ele>
        <time>2011-01-02T11:13:45Z</time>
      </trkpt>
      <trkpt lat="43.77599" lon="7.25211">
        <ele>839</ele>
        <time>2011-01-02T11:13:50Z</time>
      </trkpt>
      <trkpt lat="43.77599" lon="7.25197">
        <ele>837</ele>
        <time>2011-01-02T11:13:54Z</time>
      </trkpt>
      <trkpt lat="43.77593" lon="7.25186">
        <ele>835</ele>
        <time>2011-01-02T11:13:58Z</time>
      </trkpt>
      <trkpt lat="43.77595" lon="7.25184">
        <ele>834</ele>
        <time>2011-01-02T11:13:59Z</time>
      </trkpt>
      <trkpt lat="43.776" lon="7.25172">
        <ele>832</ele>
        <time>2011-01-02T11:14:03Z</time>
      </trkpt>
      <trkpt lat="43.77605" lon="7.25162">
        <ele>828</ele>
        <time>2011-01-02T11:14:06Z</time>
      </trkpt>
      <trkpt lat="43.77616" lon="7.25158">
        <ele>824</ele>
        <time>2011-01-02T11:14:09Z</time>
      </trkpt>
      <trkpt lat="43.77625" lon="7.25154">
        <ele>819</ele>
        <time>2011-01-02T11:14:13Z</time>
      </trkpt>
      <trkpt lat="43.77626" lon="7.25143">
        <ele>815</ele>
        <time>2011-01-02T11:14:16Z</time>
      </trkpt>
      <trkpt lat="43.77622" lon="7.25131">
        <ele>810</ele>
        <time>2011-01-02T11:14:20Z</time>
      </trkpt>
      <trkpt lat="43.77633" lon="7.25128">
        <ele>802</ele>
        <time>2011-01-02T11:14:26Z</time>
      </trkpt>
      <trkpt lat="43.77644" lon="7.25129">
        <ele>799</ele>
        <time>2011-01-02T11:14:29Z</time>
      </trkpt>
      <trkpt lat="43.77654" lon="7.25124">
        <ele>795</ele>
        <time>2011-01-02T11:14:33Z</time>
      </trkpt>
      <trkpt lat="43.77656" lon="7.2511">
        <ele>790</ele>
        <time>2011-01-02T11:14:39Z</time>
      </trkpt>
      <trkpt lat="43.77665" lon="7.25102">
        <ele>787</ele>
        <time>2011-01-02T11:14:42Z</time>
      </trkpt>
      <trkpt lat="43.77676" lon="7.251">
        <ele>785</ele>
        <time>2011-01-02T11:14:45Z</time>
      </trkpt>
      <trkpt lat="43.77686" lon="7.25101">
        <ele>783</ele>
        <time>2011-01-02T11:14:47Z</time>
      </trkpt>
      <trkpt lat="43.77696" lon="7.25099">
        <ele>780</ele>
        <time>2011-01-02T11:14:49Z</time>
      </trkpt>
      <trkpt lat="43.77702" lon="7.2509">
        <ele>778</ele>
        <time>2011-01-02T11:14:53Z</time>
      </trkpt>
      <trkpt lat="43.77711" lon="7.2508">
        <ele>776</ele>
        <time>2011-01-02T11:14:56Z</time>
      </trkpt>
      <trkpt lat="43.77718" lon="7.25072">
        <ele>774</ele>
        <time>2011-01-02T11:14:59Z</time>
      </trkpt>
      <trkpt lat="43.77726" lon="7.25059">
        <ele>772</ele>
        <time>2011-01-02T11:15:02Z</time>
      </trkpt>
      <trkpt lat="43.77731" lon="7.25049">
        <ele>771</ele>
        <time>2011-01-02T11:15:05Z</time>
      </trkpt>
      <trkpt lat="43.77736" lon="7.25034">
        <ele>770</ele>
        <time>2011-01-02T11:15:08Z</time>
      </trkpt>
      <trkpt lat="43.7774" lon="7.25022">
        <ele>768</ele>
        <time>2011-01-02T11:15:10Z</time>
      </trkpt>
      <trkpt lat="43.77746" lon="7.25008">
        <ele>766</ele>
        <time>2011-01-02T11:15:13Z</time>
      </trkpt>
      <trkpt lat="43.77751" lon="7.24997">
        <ele>764</ele>
        <time>2011-01-02T11:15:17Z</time>
      </trkpt>
      <trkpt lat="43.7776" lon="7.24993">
        <ele>762</ele>
        <time>2011-01-02T11:15:20Z</time>
      </trkpt>
      <trkpt lat="43.77766" lon="7.24984">
        <ele>760</ele>
        <time>2011-01-02T11:15:24Z</time>
      </trkpt>
      <trkpt lat="43.77772" lon="7.24975">
        <ele>757</ele>
        <time>2011-01-02T11:15:28Z</time>
      </trkpt>
      <trkpt lat="43.77782" lon="7.24973">
        <ele>755</ele>
        <time>2011-01-02T11:15:32Z</time>
      </trkpt>
      <trkpt lat="43.7779" lon="7.24965">
        <ele>752</ele>
        <time>2011-01-02T11:15:38Z</time>
      </trkpt>
      <trkpt lat="43.77786" lon="7.24954">
        <ele>749</ele>
        <time>2011-01-02T11:15:41Z</time>
      </trkpt>
      <trkpt lat="43.77795" lon="7.24949">
        <ele>745</ele>
        <time>2011-01-02T11:15:46Z</time>
      </trkpt>
      <trkpt lat="43.77801" lon="7.24937">
        <ele>739</ele>
        <time>2011-01-02T11:15:53Z</time>
      </trkpt>
      <trkpt lat="43.77811" lon="7.24934">
        <ele>736</ele>
        <time>2011-01-02T11:15:57Z</time>
      </trkpt>
      <trkpt lat="43.77821" lon="7.24934">
        <ele>733</ele>
        <time>2011-01-02T11:16:00Z</time>
      </trkpt>
      <trkpt lat="43.7782" lon="7.24921">
        <ele>726</ele>
        <time>2011-01-02T11:16:07Z</time>
      </trkpt>
      <trkpt lat="43.77811" lon="7.24914">
        <ele>724</ele>
        <time>2011-01-02T11:16:11Z</time>
      </trkpt>
      <trkpt lat="43.77803" lon="7.24905">
        <ele>723</ele>
        <time>2011-01-02T11:16:14Z</time>
      </trkpt>
      <trkpt lat="43.77795" lon="7.24896">
        <ele>722</ele>
        <time>2011-01-02T11:16:16Z</time>
      </trkpt>
      <trkpt lat="43.77785" lon="7.2489">
        <ele>712</ele>
        <time>2011-01-02T11:17:26Z</time>
      </trkpt>
      <trkpt lat="43.77788" lon="7.24889">
        <ele>705</ele>
        <time>2011-01-02T11:18:20Z</time>
      </trkpt>
      <trkpt lat="43.77798" lon="7.24885">
        <ele>705</ele>
        <time>2011-01-02T11:22:18Z</time>
      </trkpt>
      <trkpt lat="43.77808" lon="7.24889">
        <ele>706</ele>
        <time>2011-01-02T11:22:22Z</time>
      </trkpt>
      <trkpt lat="43.77817" lon="7.24894">
        <ele>704</ele>
        <time>2011-01-02T11:22:26Z</time>
      </trkpt>
      <trkpt lat="43.77825" lon="7.24904">
        <ele>703</ele>
        <time>2011-01-02T11:22:31Z</time>
      </trkpt>
      <trkpt lat="43.77833" lon="7.24911">
        <ele>703</ele>
        <time>2011-01-02T11:22:36Z</time>
      </trkpt>
      <trkpt lat="43.77837" lon="7.24899">
        <ele>700</ele>
        <time>2011-01-02T11:22:58Z</time>
      </trkpt>
      <trkpt lat="43.7784" lon="7.24887">
        <ele>699</ele>
        <time>2011-01-02T11:23:03Z</time>
      </trkpt>
      <trkpt lat="43.77849" lon="7.24883">
        <ele>699</ele>
        <time>2011-01-02T11:23:11Z</time>
      </trkpt>
      <trkpt lat="43.77859" lon="7.24887">
        <ele>698</ele>
        <time>2011-01-02T11:23:17Z</time>
      </trkpt>
      <trkpt lat="43.77868" lon="7.24888">
        <ele>697</ele>
        <time>2011-01-02T11:23:21Z</time>
      </trkpt>
      <trkpt lat="43.77877" lon="7.24884">
        <ele>694</ele>
        <time>2011-01-02T11:23:26Z</time>
      </trkpt>
      <trkpt lat="43.7788" lon="7.24878">
        <ele>694</ele>
        <time>2011-01-02T11:23:29Z</time>
      </trkpt>
      <trkpt lat="43.77887" lon="7.2487">
        <ele>695</ele>
        <time>2011-01-02T11:23:34Z</time>
      </trkpt>
      <trkpt lat="43.77897" lon="7.24864">
        <ele>694</ele>
        <time>2011-01-02T11:23:37Z</time>
      </trkpt>
      <trkpt lat="43.77907" lon="7.24856">
        <ele>692</ele>
        <time>2011-01-02T11:23:40Z</time>
      </trkpt>
      <trkpt lat="43.77914" lon="7.24846">
        <ele>690</ele>
        <time>2011-01-02T11:23:43Z</time>
      </trkpt>
      <trkpt lat="43.77922" lon="7.24839">
        <ele>686</ele>
        <time>2011-01-02T11:23:47Z</time>
      </trkpt>
      <trkpt lat="43.77932" lon="7.24838">
        <ele>684</ele>
        <time>2011-01-02T11:23:51Z</time>
      </trkpt>
      <trkpt lat="43.77941" lon="7.24843">
        <ele>683</ele>
        <time>2011-01-02T11:23:55Z</time>
      </trkpt>
      <trkpt lat="43.77948" lon="7.24853">
        <ele>681</ele>
        <time>2011-01-02T11:23:59Z</time>
      </trkpt>
      <trkpt lat="43.77957" lon="7.24857">
        <ele>678</ele>
        <time>2011-01-02T11:24:03Z</time>
      </trkpt>
      <trkpt lat="43.77966" lon="7.24863">
        <ele>675</ele>
        <time>2011-01-02T11:24:07Z</time>
      </trkpt>
      <trkpt lat="43.77976" lon="7.24864">
        <ele>672</ele>
        <time>2011-01-02T11:24:12Z</time>
      </trkpt>
      <trkpt lat="43.77985" lon="7.24866">
        <ele>669</ele>
        <time>2011-01-02T11:24:20Z</time>
      </trkpt>
      <trkpt lat="43.77994" lon="7.24864">
        <ele>668</ele>
        <time>2011-01-02T11:24:25Z</time>
      </trkpt>
      <trkpt lat="43.78003" lon="7.24866">
        <ele>665</ele>
        <time>2011-01-02T11:24:34Z</time>
      </trkpt>
      <trkpt lat="43.78011" lon="7.24872">
        <ele>645</ele>
        <time>2011-01-02T11:25:31Z</time>
      </trkpt>
      <trkpt lat="43.78013" lon="7.24872">
        <ele>645</ele>
        <time>2011-01-02T11:25:32Z</time>
      </trkpt>
      <trkpt lat="43.78022" lon="7.24872">
        <ele>645</ele>
        <time>2011-01-02T11:25:35Z</time>
      </trkpt>
      <trkpt lat="43.78032" lon="7.2487">
        <ele>644</ele>
        <time>2011-01-02T11:25:38Z</time>
      </trkpt>
      <trkpt lat="43.78043" lon="7.2487">
        <ele>644</ele>
        <time>2011-01-02T11:25:42Z</time>
      </trkpt>
      <trkpt lat="43.78053" lon="7.2487">
        <ele>644</ele>
        <time>2011-01-02T11:25:45Z</time>
      </trkpt>
      <trkpt lat="43.78065" lon="7.2487">
        <ele>643</ele>
        <time>2011-01-02T11:25:48Z</time>
      </trkpt>
      <trkpt lat="43.78076" lon="7.2487">
        <ele>642</ele>
        <time>2011-01-02T11:25:52Z</time>
      </trkpt>
      <trkpt lat="43.78086" lon="7.24869">
        <ele>641</ele>
        <time>2011-01-02T11:25:55Z</time>
      </trkpt>
      <trkpt lat="43.78096" lon="7.24867">
        <ele>640</ele>
        <time>2011-01-02T11:25:58Z</time>
      </trkpt>
      <trkpt lat="43.78105" lon="7.24867">
        <ele>638</ele>
        <time>2011-01-02T11:26:01Z</time>
      </trkpt>
      <trkpt lat="43.78114" lon="7.24869">
        <ele>636</ele>
        <time>2011-01-02T11:26:03Z</time>
      </trkpt>
      <trkpt lat="43.78125" lon="7.24872">
        <ele>635</ele>
        <time>2011-01-02T11:26:06Z</time>
      </trkpt>
      <trkpt lat="43.78135" lon="7.24878">
        <ele>633</ele>
        <time>2011-01-02T11:26:08Z</time>
      </trkpt>
      <trkpt lat="43.78144" lon="7.24885">
        <ele>631</ele>
        <time>2011-01-02T11:26:10Z</time>
      </trkpt>
      <trkpt lat="43.78156" lon="7.24892">
        <ele>630</ele>
        <time>2011-01-02T11:26:13Z</time>
      </trkpt>
      <trkpt lat="43.78165" lon="7.24898">
        <ele>629</ele>
        <time>2011-01-02T11:26:14Z</time>
      </trkpt>
      <trkpt lat="43.78173" lon="7.24905">
        <ele>628</ele>
        <time>2011-01-02T11:26:16Z</time>
      </trkpt>
      <trkpt lat="43.78183" lon="7.24916">
        <ele>627</ele>
        <time>2011-01-02T11:26:18Z</time>
      </trkpt>
      <trkpt lat="43.78191" lon="7.24928">
        <ele>626</ele>
        <time>2011-01-02T11:26:20Z</time>
      </trkpt>
      <trkpt lat="43.782" lon="7.24937">
        <ele>625</ele>
        <time>2011-01-02T11:26:24Z</time>
      </trkpt>
      <trkpt lat="43.78205" lon="7.24951">
        <ele>622</ele>
        <time>2011-01-02T11:26:27Z</time>
      </trkpt>
      <trkpt lat="43.78208" lon="7.24964">
        <ele>621</ele>
        <time>2011-01-02T11:26:29Z</time>
      </trkpt>
      <trkpt lat="43.78211" lon="7.24977">
        <ele>620</ele>
        <time>2011-01-02T11:26:31Z</time>
      </trkpt>
      <trkpt lat="43.78215" lon="7.24988">
        <ele>619</ele>
        <time>2011-01-02T11:26:33Z</time>
      </trkpt>
      <trkpt lat="43.78219" lon="7.25001">
        <ele>619</ele>
        <time>2011-01-02T11:26:36Z</time>
      </trkpt>
      <trkpt lat="43.7822" lon="7.25016">
        <ele>618</ele>
        <time>2011-01-02T11:26:38Z</time>
      </trkpt>
      <trkpt lat="43.78222" lon="7.25032">
        <ele>617</ele>
        <time>2011-01-02T11:26:40Z</time>
      </trkpt>
      <trkpt lat="43.78222" lon="7.25046">
        <ele>615</ele>
        <time>2011-01-02T11:26:42Z</time>
      </trkpt>
      <trkpt lat="43.78222" lon="7.2506">
        <ele>614</ele>
        <time>2011-01-02T11:26:46Z</time>
      </trkpt>
      <trkpt lat="43.78223" lon="7.25073">
        <ele>612</ele>
        <time>2011-01-02T11:26:51Z</time>
      </trkpt>
      <trkpt lat="43.78223" lon="7.25088">
        <ele>611</ele>
        <time>2011-01-02T11:26:55Z</time>
      </trkpt>
      <trkpt lat="43.7822" lon="7.25102">
        <ele>609</ele>
        <time>2011-01-02T11:26:57Z</time>
      </trkpt>
      <trkpt lat="43.78216" lon="7.25117">
        <ele>607</ele>
        <time>2011-01-02T11:27:00Z</time>
      </trkpt>
      <trkpt lat="43.78212" lon="7.25129">
        <ele>604</ele>
        <time>2011-01-02T11:27:04Z</time>
      </trkpt>
      <trkpt lat="43.78207" lon="7.25141">
        <ele>601</ele>
        <time>2011-01-02T11:27:09Z</time>
      </trkpt>
      <trkpt lat="43.78202" lon="7.25153">
        <ele>599</ele>
        <time>2011-01-02T11:27:13Z</time>
      </trkpt>
      <trkpt lat="43.78196" lon="7.25164">
        <ele>598</ele>
        <time>2011-01-02T11:27:18Z</time>
      </trkpt>
      <trkpt lat="43.78191" lon="7.25175">
        <ele>597</ele>
        <time>2011-01-02T11:27:22Z</time>
      </trkpt>
      <trkpt lat="43.78189" lon="7.25179">
        <ele>597</ele>
        <time>2011-01-02T11:27:24Z</time>
      </trkpt>
      <trkpt lat="43.78183" lon="7.2519">
        <ele>596</ele>
        <time>2011-01-02T11:27:29Z</time>
      </trkpt>
      <trkpt lat="43.78177" lon="7.252">
        <ele>596</ele>
        <time>2011-01-02T11:27:33Z</time>
      </trkpt>
      <trkpt lat="43.78169" lon="7.25212">
        <ele>593</ele>
        <time>2011-01-02T11:27:41Z</time>
      </trkpt>
      <trkpt lat="43.78163" lon="7.25223">
        <ele>593</ele>
        <time>2011-01-02T11:27:48Z</time>
      </trkpt>
      <trkpt lat="43.78156" lon="7.25227">
        <ele>584</ele>
        <time>2011-01-02T11:28:52Z</time>
      </trkpt>
      <trkpt lat="43.78153" lon="7.2524">
        <ele>584</ele>
        <time>2011-01-02T11:30:06Z</time>
      </trkpt>
      <trkpt lat="43.78156" lon="7.25253">
        <ele>585</ele>
        <time>2011-01-02T11:30:10Z</time>
      </trkpt>
      <trkpt lat="43.78162" lon="7.25262">
        <ele>585</ele>
        <time>2011-01-02T11:30:11Z</time>
      </trkpt>
      <trkpt lat="43.78171" lon="7.2527">
        <ele>586</ele>
        <time>2011-01-02T11:30:13Z</time>
      </trkpt>
      <trkpt lat="43.7818" lon="7.25277">
        <ele>585</ele>
        <time>2011-01-02T11:30:14Z</time>
      </trkpt>
      <trkpt lat="43.7819" lon="7.25283">
        <ele>585</ele>
        <time>2011-01-02T11:30:17Z</time>
      </trkpt>
      <trkpt lat="43.78202" lon="7.25278">
        <ele>584</ele>
        <time>2011-01-02T11:30:23Z</time>
      </trkpt>
      <trkpt lat="43.78208" lon="7.25268">
        <ele>585</ele>
        <time>2011-01-02T11:30:27Z</time>
      </trkpt>
      <trkpt lat="43.78215" lon="7.25258">
        <ele>586</ele>
        <time>2011-01-02T11:30:32Z</time>
      </trkpt>
      <trkpt lat="43.78223" lon="7.2525">
        <ele>586</ele>
        <time>2011-01-02T11:30:38Z</time>
      </trkpt>
      <trkpt lat="43.78231" lon="7.25244">
        <ele>585</ele>
        <time>2011-01-02T11:30:44Z</time>
      </trkpt>
      <trkpt lat="43.78235" lon="7.25241">
        <ele>585</ele>
        <time>2011-01-02T11:30:48Z</time>
      </trkpt>
      <trkpt lat="43.78245" lon="7.25235">
        <ele>584</ele>
        <time>2011-01-02T11:30:57Z</time>
      </trkpt>
      <trkpt lat="43.78255" lon="7.25231">
        <ele>584</ele>
        <time>2011-01-02T11:31:06Z</time>
      </trkpt>
      <trkpt lat="43.78263" lon="7.25225">
        <ele>583</ele>
        <time>2011-01-02T11:31:13Z</time>
      </trkpt>
      <trkpt lat="43.78272" lon="7.25219">
        <ele>582</ele>
        <time>2011-01-02T11:31:19Z</time>
      </trkpt>
      <trkpt lat="43.7828" lon="7.25213">
        <ele>583</ele>
        <time>2011-01-02T11:31:25Z</time>
      </trkpt>
      <trkpt lat="43.78288" lon="7.25207">
        <ele>583</ele>
        <time>2011-01-02T11:31:30Z</time>
      </trkpt>
      <trkpt lat="43.78297" lon="7.25201">
        <ele>584</ele>
        <time>2011-01-02T11:31:35Z</time>
      </trkpt>
      <trkpt lat="43.78305" lon="7.25196">
        <ele>585</ele>
        <time>2011-01-02T11:31:40Z</time>
      </trkpt>
      <trkpt lat="43.78314" lon="7.2519">
        <ele>586</ele>
        <time>2011-01-02T11:31:46Z</time>
      </trkpt>
      <trkpt lat="43.78315" lon="7.25189">
        <ele>587</ele>
        <time>2011-01-02T11:31:46Z</time>
      </trkpt>
      <trkpt lat="43.78324" lon="7.25184">
        <ele>587</ele>
        <time>2011-01-02T11:31:52Z</time>
      </trkpt>
      <trkpt lat="43.78334" lon="7.25178">
        <ele>587</ele>
        <time>2011-01-02T11:31:57Z</time>
      </trkpt>
      <trkpt lat="43.78343" lon="7.25172">
        <ele>587</ele>
        <time>2011-01-02T11:32:03Z</time>
      </trkpt>
      <trkpt lat="43.78352" lon="7.25166">
        <ele>588</ele>
        <time>2011-01-02T11:32:08Z</time>
      </trkpt>
      <trkpt lat="43.78361" lon="7.2516">
        <ele>589</ele>
        <time>2011-01-02T11:32:13Z</time>
      </trkpt>
      <trkpt lat="43.78369" lon="7.25156">
        <ele>590</ele>
        <time>2011-01-02T11:32:18Z</time>
      </trkpt>
      <trkpt lat="43.78378" lon="7.25151">
        <ele>591</ele>
        <time>2011-01-02T11:32:24Z</time>
      </trkpt>
      <trkpt lat="43.78389" lon="7.25147">
        <ele>592</ele>
        <time>2011-01-02T11:32:30Z</time>
      </trkpt>
      <trkpt lat="43.78399" lon="7.25143">
        <ele>593</ele>
        <time>2011-01-02T11:32:35Z</time>
      </trkpt>
      <trkpt lat="43.78408" lon="7.25139">
        <ele>594</ele>
        <time>2011-01-02T11:32:41Z</time>
      </trkpt>
      <trkpt lat="43.78415" lon="7.25133">
        <ele>595</ele>
        <time>2011-01-02T11:32:45Z</time>
      </trkpt>
      <trkpt lat="43.78424" lon="7.25124">
        <ele>596</ele>
        <time>2011-01-02T11:32:51Z</time>
      </trkpt>
      <trkpt lat="43.78432" lon="7.25116">
        <ele>596</ele>
        <time>2011-01-02T11:32:56Z</time>
      </trkpt>
      <trkpt lat="43.7844" lon="7.25107">
        <ele>596</ele>
        <time>2011-01-02T11:33:01Z</time>
      </trkpt>
      <trkpt lat="43.78447" lon="7.25099">
        <ele>597</ele>
        <time>2011-01-02T11:33:06Z</time>
      </trkpt>
      <trkpt lat="43.78454" lon="7.25091">
        <ele>598</ele>
        <time>2011-01-02T11:33:10Z</time>
      </trkpt>
      <trkpt lat="43.78462" lon="7.25082">
        <ele>598</ele>
        <time>2011-01-02T11:33:16Z</time>
      </trkpt>
      <trkpt lat="43.7847" lon="7.25073">
        <ele>599</ele>
        <time>2011-01-02T11:33:21Z</time>
      </trkpt>
      <trkpt lat="43.78471" lon="7.25072">
        <ele>600</ele>
        <time>2011-01-02T11:33:22Z</time>
      </trkpt>
      <trkpt lat="43.78478" lon="7.25062">
        <ele>601</ele>
        <time>2011-01-02T11:33:26Z</time>
      </trkpt>
      <trkpt lat="43.78485" lon="7.25052">
        <ele>603</ele>
        <time>2011-01-02T11:33:31Z</time>
      </trkpt>
      <trkpt lat="43.78492" lon="7.25041">
        <ele>604</ele>
        <time>2011-01-02T11:33:35Z</time>
      </trkpt>
      <trkpt lat="43.78497" lon="7.25031">
        <ele>605</ele>
        <time>2011-01-02T11:33:39Z</time>
      </trkpt>
      <trkpt lat="43.78504" lon="7.2502">
        <ele>605</ele>
        <time>2011-01-02T11:33:43Z</time>
      </trkpt>
      <trkpt lat="43.7851" lon="7.25008">
        <ele>605</ele>
        <time>2011-01-02T11:33:47Z</time>
      </trkpt>
      <trkpt lat="43.78513" lon="7.25004">
        <ele>605</ele>
        <time>2011-01-02T11:33:48Z</time>
      </trkpt>
      <trkpt lat="43.78521" lon="7.24994">
        <ele>605</ele>
        <time>2011-01-02T11:33:52Z</time>
      </trkpt>
      <trkpt lat="43.78529" lon="7.24984">
        <ele>606</ele>
        <time>2011-01-02T11:33:56Z</time>
      </trkpt>
      <trkpt lat="43.78537" lon="7.24977">
        <ele>607</ele>
        <time>2011-01-02T11:33:59Z</time>
      </trkpt>
      <trkpt lat="43.78539" lon="7.24975">
        <ele>607</ele>
        <time>2011-01-02T11:34:00Z</time>
      </trkpt>
      <trkpt lat="43.78548" lon="7.24967">
        <ele>608</ele>
        <time>2011-01-02T11:34:03Z</time>
      </trkpt>
      <trkpt lat="43.78558" lon="7.2496">
        <ele>608</ele>
        <time>2011-01-02T11:34:06Z</time>
      </trkpt>
      <trkpt lat="43.78569" lon="7.24952">
        <ele>608</ele>
        <time>2011-01-02T11:34:09Z</time>
      </trkpt>
      <trkpt lat="43.78574" lon="7.24949">
        <ele>609</ele>
        <time>2011-01-02T11:34:10Z</time>
      </trkpt>
      <trkpt lat="43.78585" lon="7.24943">
        <ele>610</ele>
        <time>2011-01-02T11:34:14Z</time>
      </trkpt>
      <trkpt lat="43.78596" lon="7.24937">
        <ele>610</ele>
        <time>2011-01-02T11:34:17Z</time>
      </trkpt>
      <trkpt lat="43.78606" lon="7.24932">
        <ele>610</ele>
        <time>2011-01-02T11:34:20Z</time>
      </trkpt>
      <trkpt lat="43.78616" lon="7.24929">
        <ele>611</ele>
        <time>2011-01-02T11:34:22Z</time>
      </trkpt>
      <trkpt lat="43.78625" lon="7.24926">
        <ele>612</ele>
        <time>2011-01-02T11:34:24Z</time>
      </trkpt>
      <trkpt lat="43.78634" lon="7.24924">
        <ele>612</ele>
        <time>2011-01-02T11:34:27Z</time>
      </trkpt>
      <trkpt lat="43.78645" lon="7.2492">
        <ele>612</ele>
        <time>2011-01-02T11:34:30Z</time>
      </trkpt>
      <trkpt lat="43.78656" lon="7.24917">
        <ele>612</ele>
        <time>2011-01-02T11:34:33Z</time>
      </trkpt>
      <trkpt lat="43.78663" lon="7.24908">
        <ele>612</ele>
        <time>2011-01-02T11:34:37Z</time>
      </trkpt>
      <trkpt lat="43.78662" lon="7.24892">
        <ele>612</ele>
        <time>2011-01-02T11:34:40Z</time>
      </trkpt>
      <trkpt lat="43.78658" lon="7.24878">
        <ele>612</ele>
        <time>2011-01-02T11:34:42Z</time>
      </trkpt>
      <trkpt lat="43.78654" lon="7.24863">
        <ele>613</ele>
        <time>2011-01-02T11:34:45Z</time>
      </trkpt>
      <trkpt lat="43.78649" lon="7.24847">
        <ele>614</ele>
        <time>2011-01-02T11:34:47Z</time>
      </trkpt>
      <trkpt lat="43.78646" lon="7.24831">
        <ele>614</ele>
        <time>2011-01-02T11:34:49Z</time>
      </trkpt>
      <trkpt lat="43.78642" lon="7.24816">
        <ele>614</ele>
        <time>2011-01-02T11:34:52Z</time>
      </trkpt>
      <trkpt lat="43.78642" lon="7.24801">
        <ele>612</ele>
        <time>2011-01-02T11:34:55Z</time>
      </trkpt>
      <trkpt lat="43.78649" lon="7.24792">
        <ele>612</ele>
        <time>2011-01-02T11:34:57Z</time>
      </trkpt>
      <trkpt lat="43.78658" lon="7.24784">
        <ele>613</ele>
        <time>2011-01-02T11:34:59Z</time>
      </trkpt>
      <trkpt lat="43.78668" lon="7.24776">
        <ele>613</ele>
        <time>2011-01-02T11:35:01Z</time>
      </trkpt>
      <trkpt lat="43.78677" lon="7.24769">
        <ele>613</ele>
        <time>2011-01-02T11:35:04Z</time>
      </trkpt>
      <trkpt lat="43.78685" lon="7.24762">
        <ele>614</ele>
        <time>2011-01-02T11:35:06Z</time>
      </trkpt>
      <trkpt lat="43.78696" lon="7.24762">
        <ele>616</ele>
        <time>2011-01-02T11:35:09Z</time>
      </trkpt>
      <trkpt lat="43.78705" lon="7.24765">
        <ele>616</ele>
        <time>2011-01-02T11:35:11Z</time>
      </trkpt>
      <trkpt lat="43.78715" lon="7.24767">
        <ele>616</ele>
        <time>2011-01-02T11:35:14Z</time>
      </trkpt>
      <trkpt lat="43.78724" lon="7.24767">
        <ele>616</ele>
        <time>2011-01-02T11:35:16Z</time>
      </trkpt>
      <trkpt lat="43.78735" lon="7.24766">
        <ele>616</ele>
        <time>2011-01-02T11:35:19Z</time>
      </trkpt>
      <trkpt lat="43.78745" lon="7.24763">
        <ele>616</ele>
        <time>2011-01-02T11:35:22Z</time>
      </trkpt>
      <trkpt lat="43.78754" lon="7.24758">
        <ele>616</ele>
        <time>2011-01-02T11:35:25Z</time>
      </trkpt>
      <trkpt lat="43.78761" lon="7.24748">
        <ele>616</ele>
        <time>2011-01-02T11:35:28Z</time>
      </trkpt>
      <trkpt lat="43.78763" lon="7.24742">
        <ele>616</ele>
        <time>2011-01-02T11:35:30Z</time>
      </trkpt>
      <trkpt lat="43.78765" lon="7.24729">
        <ele>616</ele>
        <time>2011-01-02T11:35:33Z</time>
      </trkpt>
      <trkpt lat="43.78767" lon="7.24714">
        <ele>615</ele>
        <time>2011-01-02T11:35:36Z</time>
      </trkpt>
      <trkpt lat="43.78769" lon="7.24708">
        <ele>616</ele>
        <time>2011-01-02T11:35:38Z</time>
      </trkpt>
      <trkpt lat="43.78771" lon="7.24695">
        <ele>617</ele>
        <time>2011-01-02T11:35:41Z</time>
      </trkpt>
      <trkpt lat="43.78773" lon="7.24681">
        <ele>618</ele>
        <time>2011-01-02T11:35:45Z</time>
      </trkpt>
      <trkpt lat="43.78775" lon="7.24668">
        <ele>617</ele>
        <time>2011-01-02T11:35:48Z</time>
      </trkpt>
      <trkpt lat="43.78777" lon="7.24655">
        <ele>616</ele>
        <time>2011-01-02T11:35:52Z</time>
      </trkpt>
      <trkpt lat="43.78779" lon="7.24643">
        <ele>616</ele>
        <time>2011-01-02T11:35:56Z</time>
      </trkpt>
      <trkpt lat="43.78783" lon="7.2463">
        <ele>616</ele>
        <time>2011-01-02T11:36:00Z</time>
      </trkpt>
      <trkpt lat="43.78788" lon="7.24619">
        <ele>616</ele>
        <time>2011-01-02T11:36:03Z</time>
      </trkpt>
      <trkpt lat="43.78792" lon="7.24608">
        <ele>617</ele>
        <time>2011-01-02T11:36:07Z</time>
      </trkpt>
      <trkpt lat="43.78797" lon="7.24597">
        <ele>617</ele>
        <time>2011-01-02T11:36:11Z</time>
      </trkpt>
      <trkpt lat="43.78806" lon="7.24597">
        <ele>617</ele>
        <time>2011-01-02T11:36:16Z</time>
      </trkpt>
      <trkpt lat="43.78812" lon="7.24609">
        <ele>618</ele>
        <time>2011-01-02T11:36:21Z</time>
      </trkpt>
      <trkpt lat="43.78818" lon="7.2462">
        <ele>619</ele>
        <time>2011-01-02T11:36:27Z</time>
      </trkpt>
      <trkpt lat="43.78826" lon="7.24629">
        <ele>620</ele>
        <time>2011-01-02T11:36:32Z</time>
      </trkpt>
      <trkpt lat="43.78835" lon="7.24635">
        <ele>622</ele>
        <time>2011-01-02T11:36:36Z</time>
      </trkpt>
      <trkpt lat="43.78836" lon="7.24636">
        <ele>622</ele>
        <time>2011-01-02T11:36:37Z</time>
      </trkpt>
      <trkpt lat="43.78844" lon="7.24643">
        <ele>623</ele>
        <time>2011-01-02T11:36:41Z</time>
      </trkpt>
      <trkpt lat="43.78853" lon="7.24649">
        <ele>624</ele>
        <time>2011-01-02T11:36:47Z</time>
      </trkpt>
      <trkpt lat="43.78862" lon="7.24653">
        <ele>625</ele>
        <time>2011-01-02T11:36:52Z</time>
      </trkpt>
      <trkpt lat="43.78872" lon="7.24653">
        <ele>626</ele>
        <time>2011-01-02T11:36:58Z</time>
      </trkpt>
      <trkpt lat="43.78881" lon="7.24647">
        <ele>627</ele>
        <time>2011-01-02T11:37:02Z</time>
      </trkpt>
      <trkpt lat="43.7889" lon="7.24641">
        <ele>629</ele>
        <time>2011-01-02T11:37:07Z</time>
      </trkpt>
      <trkpt lat="43.78891" lon="7.2464">
        <ele>629</ele>
        <time>2011-01-02T11:37:08Z</time>
      </trkpt>
      <trkpt lat="43.78902" lon="7.24639">
        <ele>629</ele>
        <time>2011-01-02T11:37:12Z</time>
      </trkpt>
      <trkpt lat="43.78913" lon="7.2464">
        <ele>630</ele>
        <time>2011-01-02T11:37:17Z</time>
      </trkpt>
      <trkpt lat="43.78922" lon="7.24642">
        <ele>630</ele>
        <time>2011-01-02T11:37:21Z</time>
      </trkpt>
      <trkpt lat="43.78931" lon="7.2465">
        <ele>630</ele>
        <time>2011-01-02T11:37:25Z</time>
      </trkpt>
      <trkpt lat="43.78938" lon="7.2466">
        <ele>629</ele>
        <time>2011-01-02T11:37:30Z</time>
      </trkpt>
      <trkpt lat="43.7894" lon="7.24664">
        <ele>630</ele>
        <time>2011-01-02T11:37:33Z</time>
      </trkpt>
      <trkpt lat="43.78949" lon="7.24676">
        <ele>631</ele>
        <time>2011-01-02T11:37:37Z</time>
      </trkpt>
      <trkpt lat="43.78955" lon="7.24685">
        <ele>632</ele>
        <time>2011-01-02T11:37:41Z</time>
      </trkpt>
      <trkpt lat="43.78964" lon="7.24691">
        <ele>633</ele>
        <time>2011-01-02T11:37:45Z</time>
      </trkpt>
      <trkpt lat="43.78974" lon="7.24693">
        <ele>634</ele>
        <time>2011-01-02T11:37:49Z</time>
      </trkpt>
      <trkpt lat="43.78984" lon="7.24692">
        <ele>634</ele>
        <time>2011-01-02T11:37:52Z</time>
      </trkpt>
      <trkpt lat="43.78993" lon="7.2469">
        <ele>634</ele>
        <time>2011-01-02T11:37:56Z</time>
      </trkpt>
      <trkpt lat="43.79003" lon="7.24688">
        <ele>634</ele>
        <time>2011-01-02T11:38:01Z</time>
      </trkpt>
      <trkpt lat="43.79012" lon="7.24685">
        <ele>635</ele>
        <time>2011-01-02T11:38:05Z</time>
      </trkpt>
      <trkpt lat="43.79023" lon="7.24681">
        <ele>636</ele>
        <time>2011-01-02T11:38:09Z</time>
      </trkpt>
      <trkpt lat="43.79032" lon="7.24678">
        <ele>636</ele>
        <time>2011-01-02T11:38:14Z</time>
      </trkpt>
      <trkpt lat="43.79042" lon="7.24678">
        <ele>637</ele>
        <time>2011-01-02T11:38:18Z</time>
      </trkpt>
      <trkpt lat="43.79051" lon="7.24679">
        <ele>638</ele>
        <time>2011-01-02T11:38:23Z</time>
      </trkpt>
      <trkpt lat="43.79056" lon="7.24679">
        <ele>638</ele>
        <time>2011-01-02T11:38:25Z</time>
      </trkpt>
      <trkpt lat="43.79066" lon="7.24677">
        <ele>638</ele>
        <time>2011-01-02T11:38:29Z</time>
      </trkpt>
      <trkpt lat="43.79076" lon="7.24673">
        <ele>638</ele>
        <time>2011-01-02T11:38:34Z</time>
      </trkpt>
      <trkpt lat="43.79086" lon="7.24669">
        <ele>639</ele>
        <time>2011-01-02T11:38:38Z</time>
      </trkpt>
      <trkpt lat="43.79096" lon="7.24667">
        <ele>640</ele>
        <time>2011-01-02T11:38:43Z</time>
      </trkpt>
      <trkpt lat="43.79107" lon="7.24665">
        <ele>641</ele>
        <time>2011-01-02T11:38:47Z</time>
      </trkpt>
      <trkpt lat="43.79116" lon="7.24662">
        <ele>641</ele>
        <time>2011-01-02T11:38:51Z</time>
      </trkpt>
      <trkpt lat="43.79125" lon="7.24658">
        <ele>641</ele>
        <time>2011-01-02T11:38:54Z</time>
      </trkpt>
      <trkpt lat="43.79131" lon="7.24654">
        <ele>641</ele>
        <time>2011-01-02T11:38:57Z</time>
      </trkpt>
      <trkpt lat="43.79141" lon="7.24649">
        <ele>643</ele>
        <time>2011-01-02T11:39:01Z</time>
      </trkpt>
      <trkpt lat="43.79151" lon="7.24645">
        <ele>644</ele>
        <time>2011-01-02T11:39:04Z</time>
      </trkpt>
      <trkpt lat="43.79153" lon="7.24644">
        <ele>644</ele>
        <time>2011-01-02T11:39:05Z</time>
      </trkpt>
      <trkpt lat="43.79163" lon="7.24638">
        <ele>644</ele>
        <time>2011-01-02T11:39:09Z</time>
      </trkpt>
      <trkpt lat="43.79172" lon="7.24634">
        <ele>645</ele>
        <time>2011-01-02T11:39:13Z</time>
      </trkpt>
      <trkpt lat="43.79181" lon="7.24631">
        <ele>646</ele>
        <time>2011-01-02T11:39:16Z</time>
      </trkpt>
      <trkpt lat="43.79191" lon="7.24626">
        <ele>646</ele>
        <time>2011-01-02T11:39:21Z</time>
      </trkpt>
      <trkpt lat="43.79199" lon="7.2462">
        <ele>648</ele>
        <time>2011-01-02T11:39:25Z</time>
      </trkpt>
      <trkpt lat="43.79207" lon="7.2461">
        <ele>648</ele>
        <time>2011-01-02T11:39:29Z</time>
      </trkpt>
      <trkpt lat="43.79213" lon="7.24599">
        <ele>649</ele>
        <time>2011-01-02T11:39:34Z</time>
      </trkpt>
      <trkpt lat="43.79218" lon="7.24587">
        <ele>650</ele>
        <time>2011-01-02T11:39:38Z</time>
      </trkpt>
      <trkpt lat="43.79223" lon="7.24576">
        <ele>651</ele>
        <time>2011-01-02T11:39:42Z</time>
      </trkpt>
      <trkpt lat="43.79229" lon="7.24564">
        <ele>651</ele>
        <time>2011-01-02T11:39:47Z</time>
      </trkpt>
      <trkpt lat="43.79237" lon="7.24553">
        <ele>651</ele>
        <time>2011-01-02T11:39:51Z</time>
      </trkpt>
      <trkpt lat="43.79239" lon="7.2455">
        <ele>651</ele>
        <time>2011-01-02T11:39:53Z</time>
      </trkpt>
      <trkpt lat="43.79246" lon="7.24541">
        <ele>653</ele>
        <time>2011-01-02T11:39:57Z</time>
      </trkpt>
      <trkpt lat="43.79254" lon="7.24534">
        <ele>653</ele>
        <time>2011-01-02T11:40:01Z</time>
      </trkpt>
      <trkpt lat="43.79262" lon="7.24526">
        <ele>653</ele>
        <time>2011-01-02T11:40:05Z</time>
      </trkpt>
      <trkpt lat="43.79271" lon="7.24518">
        <ele>654</ele>
        <time>2011-01-02T11:40:10Z</time>
      </trkpt>
      <trkpt lat="43.79278" lon="7.2451">
        <ele>655</ele>
        <time>2011-01-02T11:40:14Z</time>
      </trkpt>
      <trkpt lat="43.79287" lon="7.24501">
        <ele>656</ele>
        <time>2011-01-02T11:40:19Z</time>
      </trkpt>
      <trkpt lat="43.79295" lon="7.24493">
        <ele>656</ele>
        <time>2011-01-02T11:40:23Z</time>
      </trkpt>
      <trkpt lat="43.79302" lon="7.24484">
        <ele>657</ele>
        <time>2011-01-02T11:40:28Z</time>
      </trkpt>
      <trkpt lat="43.7931" lon="7.24474">
        <ele>657</ele>
        <time>2011-01-02T11:40:32Z</time>
      </trkpt>
      <trkpt lat="43.79314" lon="7.24469">
        <ele>658</ele>
        <time>2011-01-02T11:40:34Z</time>
      </trkpt>
      <trkpt lat="43.79322" lon="7.24461">
        <ele>659</ele>
        <time>2011-01-02T11:40:39Z</time>
      </trkpt>
      <trkpt lat="43.79328" lon="7.24458">
        <ele>659</ele>
        <time>2011-01-02T11:40:42Z</time>
      </trkpt>
      <trkpt lat="43.79337" lon="7.24453">
        <ele>659</ele>
        <time>2011-01-02T11:40:47Z</time>
      </trkpt>
      <trkpt lat="43.79343" lon="7.2445">
        <ele>660</ele>
        <time>2011-01-02T11:40:50Z</time>
      </trkpt>
      <trkpt lat="43.79352" lon="7.24445">
        <ele>660</ele>
        <time>2011-01-02T11:40:54Z</time>
      </trkpt>
      <trkpt lat="43.79361" lon="7.24438">
        <ele>661</ele>
        <time>2011-01-02T11:41:00Z</time>
      </trkpt>
      <trkpt lat="43.7937" lon="7.24431">
        <ele>662</ele>
        <time>2011-01-02T11:41:05Z</time>
      </trkpt>
      <trkpt lat="43.79378" lon="7.24426">
        <ele>663</ele>
        <time>2011-01-02T11:41:09Z</time>
      </trkpt>
      <trkpt lat="43.79387" lon="7.24421">
        <ele>663</ele>
        <time>2011-01-02T11:41:14Z</time>
      </trkpt>
      <trkpt lat="43.79389" lon="7.24419">
        <ele>663</ele>
        <time>2011-01-02T11:41:15Z</time>
      </trkpt>
      <trkpt lat="43.79397" lon="7.24413">
        <ele>663</ele>
        <time>2011-01-02T11:41:20Z</time>
      </trkpt>
      <trkpt lat="43.79405" lon="7.24408">
        <ele>664</ele>
        <time>2011-01-02T11:41:25Z</time>
      </trkpt>
      <trkpt lat="43.79414" lon="7.244">
        <ele>664</ele>
        <time>2011-01-02T11:41:31Z</time>
      </trkpt>
      <trkpt lat="43.79422" lon="7.24392">
        <ele>665</ele>
        <time>2011-01-02T11:41:36Z</time>
      </trkpt>
      <trkpt lat="43.7943" lon="7.24385">
        <ele>666</ele>
        <time>2011-01-02T11:41:42Z</time>
      </trkpt>
      <trkpt lat="43.79438" lon="7.24376">
        <ele>667</ele>
        <time>2011-01-02T11:41:47Z</time>
      </trkpt>
      <trkpt lat="43.79445" lon="7.24369">
        <ele>669</ele>
        <time>2011-01-02T11:41:52Z</time>
      </trkpt>
      <trkpt lat="43.79452" lon="7.24363">
        <ele>669</ele>
        <time>2011-01-02T11:41:56Z</time>
      </trkpt>
      <trkpt lat="43.7946" lon="7.24356">
        <ele>670</ele>
        <time>2011-01-02T11:42:00Z</time>
      </trkpt>
      <trkpt lat="43.79467" lon="7.24348">
        <ele>671</ele>
        <time>2011-01-02T11:42:05Z</time>
      </trkpt>
      <trkpt lat="43.79474" lon="7.2434">
        <ele>672</ele>
        <time>2011-01-02T11:42:10Z</time>
      </trkpt>
      <trkpt lat="43.79482" lon="7.24331">
        <ele>672</ele>
        <time>2011-01-02T11:42:14Z</time>
      </trkpt>
      <trkpt lat="43.7949" lon="7.24322">
        <ele>672</ele>
        <time>2011-01-02T11:42:19Z</time>
      </trkpt>
      <trkpt lat="43.79497" lon="7.24313">
        <ele>673</ele>
        <time>2011-01-02T11:42:24Z</time>
      </trkpt>
      <trkpt lat="43.79504" lon="7.24305">
        <ele>674</ele>
        <time>2011-01-02T11:42:28Z</time>
      </trkpt>
      <trkpt lat="43.79509" lon="7.243">
        <ele>674</ele>
        <time>2011-01-02T11:42:32Z</time>
      </trkpt>
      <trkpt lat="43.79516" lon="7.24291">
        <ele>674</ele>
        <time>2011-01-02T11:42:36Z</time>
      </trkpt>
      <trkpt lat="43.79523" lon="7.24282">
        <ele>674</ele>
        <time>2011-01-02T11:42:41Z</time>
      </trkpt>
      <trkpt lat="43.7953" lon="7.24272">
        <ele>675</ele>
        <time>2011-01-02T11:42:46Z</time>
      </trkpt>
      <trkpt lat="43.79537" lon="7.24262">
        <ele>675</ele>
        <time>2011-01-02T11:42:50Z</time>
      </trkpt>
      <trkpt lat="43.79544" lon="7.24252">
        <ele>675</ele>
        <time>2011-01-02T11:42:55Z</time>
      </trkpt>
      <trkpt lat="43.7955" lon="7.24241">
        <ele>676</ele>
        <time>2011-01-02T11:42:59Z</time>
      </trkpt>
      <trkpt lat="43.79555" lon="7.24229">
        <ele>677</ele>
        <time>2011-01-02T11:43:05Z</time>
      </trkpt>
      <trkpt lat="43.79558" lon="7.24217">
        <ele>675</ele>
        <time>2011-01-02T11:43:10Z</time>
      </trkpt>
      <trkpt lat="43.79562" lon="7.24204">
        <ele>676</ele>
        <time>2011-01-02T11:43:14Z</time>
      </trkpt>
      <trkpt lat="43.79563" lon="7.24202">
        <ele>676</ele>
        <time>2011-01-02T11:43:15Z</time>
      </trkpt>
      <trkpt lat="43.79567" lon="7.24189">
        <ele>676</ele>
        <time>2011-01-02T11:43:20Z</time>
      </trkpt>
      <trkpt lat="43.79571" lon="7.24177">
        <ele>676</ele>
        <time>2011-01-02T11:43:24Z</time>
      </trkpt>
      <trkpt lat="43.79575" lon="7.24165">
        <ele>678</ele>
        <time>2011-01-02T11:43:29Z</time>
      </trkpt>
      <trkpt lat="43.79582" lon="7.24155">
        <ele>679</ele>
        <time>2011-01-02T11:43:34Z</time>
      </trkpt>
      <trkpt lat="43.79588" lon="7.24164">
        <ele>680</ele>
        <time>2011-01-02T11:43:41Z</time>
      </trkpt>
      <trkpt lat="43.79585" lon="7.24177">
        <ele>681</ele>
        <time>2011-01-02T11:43:46Z</time>
      </trkpt>
      <trkpt lat="43.79581" lon="7.24189">
        <ele>681</ele>
        <time>2011-01-02T11:43:52Z</time>
      </trkpt>
      <trkpt lat="43.79578" lon="7.24201">
        <ele>683</ele>
        <time>2011-01-02T11:43:57Z</time>
      </trkpt>
      <trkpt lat="43.79576" lon="7.24214">
        <ele>684</ele>
        <time>2011-01-02T11:44:03Z</time>
      </trkpt>
      <trkpt lat="43.79574" lon="7.24225">
        <ele>684</ele>
        <time>2011-01-02T11:44:07Z</time>
      </trkpt>
      <trkpt lat="43.79574" lon="7.24238">
        <ele>686</ele>
        <time>2011-01-02T11:44:13Z</time>
      </trkpt>
      <trkpt lat="43.79572" lon="7.24252">
        <ele>686</ele>
        <time>2011-01-02T11:44:18Z</time>
      </trkpt>
      <trkpt lat="43.79569" lon="7.24264">
        <ele>687</ele>
        <time>2011-01-02T11:44:23Z</time>
      </trkpt>
      <trkpt lat="43.79566" lon="7.24276">
        <ele>689</ele>
        <time>2011-01-02T11:44:29Z</time>
      </trkpt>
      <trkpt lat="43.79565" lon="7.24279">
        <ele>690</ele>
        <time>2011-01-02T11:44:30Z</time>
      </trkpt>
      <trkpt lat="43.7956" lon="7.2429">
        <ele>690</ele>
        <time>2011-01-02T11:44:36Z</time>
      </trkpt>
      <trkpt lat="43.79554" lon="7.24302">
        <ele>692</ele>
        <time>2011-01-02T11:44:41Z</time>
      </trkpt>
      <trkpt lat="43.7955" lon="7.24314">
        <ele>693</ele>
        <time>2011-01-02T11:44:46Z</time>
      </trkpt>
      <trkpt lat="43.79544" lon="7.24326">
        <ele>695</ele>
        <time>2011-01-02T11:44:51Z</time>
      </trkpt>
      <trkpt lat="43.79539" lon="7.24336">
        <ele>696</ele>
        <time>2011-01-02T11:44:56Z</time>
      </trkpt>
      <trkpt lat="43.79533" lon="7.24347">
        <ele>696</ele>
        <time>2011-01-02T11:45:01Z</time>
      </trkpt>
      <trkpt lat="43.79527" lon="7.24356">
        <ele>697</ele>
        <time>2011-01-02T11:45:05Z</time>
      </trkpt>
      <trkpt lat="43.7952" lon="7.24367">
        <ele>699</ele>
        <time>2011-01-02T11:45:11Z</time>
      </trkpt>
      <trkpt lat="43.79517" lon="7.24372">
        <ele>699</ele>
        <time>2011-01-02T11:45:13Z</time>
      </trkpt>
      <trkpt lat="43.79511" lon="7.24383">
        <ele>700</ele>
        <time>2011-01-02T11:45:18Z</time>
      </trkpt>
      <trkpt lat="43.79505" lon="7.24393">
        <ele>701</ele>
        <time>2011-01-02T11:45:22Z</time>
      </trkpt>
      <trkpt lat="43.79499" lon="7.24403">
        <ele>701</ele>
        <time>2011-01-02T11:45:27Z</time>
      </trkpt>
      <trkpt lat="43.79492" lon="7.24414">
        <ele>702</ele>
        <time>2011-01-02T11:45:32Z</time>
      </trkpt>
      <trkpt lat="43.79487" lon="7.24422">
        <ele>703</ele>
        <time>2011-01-02T11:45:36Z</time>
      </trkpt>
      <trkpt lat="43.79481" lon="7.24433">
        <ele>703</ele>
        <time>2011-01-02T11:45:41Z</time>
      </trkpt>
      <trkpt lat="43.79475" lon="7.24443">
        <ele>703</ele>
        <time>2011-01-02T11:45:46Z</time>
      </trkpt>
      <trkpt lat="43.79468" lon="7.24454">
        <ele>704</ele>
        <time>2011-01-02T11:45:51Z</time>
      </trkpt>
      <trkpt lat="43.79461" lon="7.24463">
        <ele>705</ele>
        <time>2011-01-02T11:45:56Z</time>
      </trkpt>
      <trkpt lat="43.79454" lon="7.2447">
        <ele>706</ele>
        <time>2011-01-02T11:45:59Z</time>
      </trkpt>
      <trkpt lat="43.79447" lon="7.24478">
        <ele>707</ele>
        <time>2011-01-02T11:46:04Z</time>
      </trkpt>
      <trkpt lat="43.79443" lon="7.24483">
        <ele>707</ele>
        <time>2011-01-02T11:46:07Z</time>
      </trkpt>
      <trkpt lat="43.79436" lon="7.24492">
        <ele>708</ele>
        <time>2011-01-02T11:46:12Z</time>
      </trkpt>
      <trkpt lat="43.79434" lon="7.24494">
        <ele>708</ele>
        <time>2011-01-02T11:46:14Z</time>
      </trkpt>
      <trkpt lat="43.79427" lon="7.24503">
        <ele>710</ele>
        <time>2011-01-02T11:46:19Z</time>
      </trkpt>
      <trkpt lat="43.79419" lon="7.24512">
        <ele>710</ele>
        <time>2011-01-02T11:46:24Z</time>
      </trkpt>
      <trkpt lat="43.79412" lon="7.24521">
        <ele>711</ele>
        <time>2011-01-02T11:46:28Z</time>
      </trkpt>
      <trkpt lat="43.79411" lon="7.24522">
        <ele>710</ele>
        <time>2011-01-02T11:46:29Z</time>
      </trkpt>
      <trkpt lat="43.79404" lon="7.24531">
        <ele>712</ele>
        <time>2011-01-02T11:46:34Z</time>
      </trkpt>
      <trkpt lat="43.79399" lon="7.24537">
        <ele>712</ele>
        <time>2011-01-02T11:46:37Z</time>
      </trkpt>
      <trkpt lat="43.79393" lon="7.24546">
        <ele>713</ele>
        <time>2011-01-02T11:46:41Z</time>
      </trkpt>
      <trkpt lat="43.79386" lon="7.24554">
        <ele>714</ele>
        <time>2011-01-02T11:46:46Z</time>
      </trkpt>
      <trkpt lat="43.79379" lon="7.24565">
        <ele>715</ele>
        <time>2011-01-02T11:46:51Z</time>
      </trkpt>
      <trkpt lat="43.79375" lon="7.24571">
        <ele>716</ele>
        <time>2011-01-02T11:46:54Z</time>
      </trkpt>
      <trkpt lat="43.79371" lon="7.24583">
        <ele>717</ele>
        <time>2011-01-02T11:47:00Z</time>
      </trkpt>
      <trkpt lat="43.79366" lon="7.24596">
        <ele>719</ele>
        <time>2011-01-02T11:47:05Z</time>
      </trkpt>
      <trkpt lat="43.79363" lon="7.24607">
        <ele>720</ele>
        <time>2011-01-02T11:47:09Z</time>
      </trkpt>
      <trkpt lat="43.79361" lon="7.24611">
        <ele>720</ele>
        <time>2011-01-02T11:47:11Z</time>
      </trkpt>
      <trkpt lat="43.79357" lon="7.24623">
        <ele>721</ele>
        <time>2011-01-02T11:47:16Z</time>
      </trkpt>
      <trkpt lat="43.79353" lon="7.24635">
        <ele>721</ele>
        <time>2011-01-02T11:47:20Z</time>
      </trkpt>
      <trkpt lat="43.79349" lon="7.24647">
        <ele>721</ele>
        <time>2011-01-02T11:47:25Z</time>
      </trkpt>
      <trkpt lat="43.79345" lon="7.2466">
        <ele>720</ele>
        <time>2011-01-02T11:47:29Z</time>
      </trkpt>
      <trkpt lat="43.79341" lon="7.24673">
        <ele>721</ele>
        <time>2011-01-02T11:47:34Z</time>
      </trkpt>
      <trkpt lat="43.79338" lon="7.24686">
        <ele>721</ele>
        <time>2011-01-02T11:47:38Z</time>
      </trkpt>
      <trkpt lat="43.79334" lon="7.24699">
        <ele>722</ele>
        <time>2011-01-02T11:47:43Z</time>
      </trkpt>
      <trkpt lat="43.79331" lon="7.24712">
        <ele>723</ele>
        <time>2011-01-02T11:47:47Z</time>
      </trkpt>
      <trkpt lat="43.79328" lon="7.24726">
        <ele>723</ele>
        <time>2011-01-02T11:47:52Z</time>
      </trkpt>
      <trkpt lat="43.79326" lon="7.2474">
        <ele>724</ele>
        <time>2011-01-02T11:47:57Z</time>
      </trkpt>
      <trkpt lat="43.79325" lon="7.24753">
        <ele>724</ele>
        <time>2011-01-02T11:48:00Z</time>
      </trkpt>
      <trkpt lat="43.79326" lon="7.24766">
        <ele>724</ele>
        <time>2011-01-02T11:48:05Z</time>
      </trkpt>
      <trkpt lat="43.79327" lon="7.2478">
        <ele>725</ele>
        <time>2011-01-02T11:48:10Z</time>
      </trkpt>
      <trkpt lat="43.79332" lon="7.24792">
        <ele>725</ele>
        <time>2011-01-02T11:48:58Z</time>
      </trkpt>
      <trkpt lat="43.79333" lon="7.24807">
        <ele>729</ele>
        <time>2011-01-02T11:49:44Z</time>
      </trkpt>
      <trkpt lat="43.79338" lon="7.24818">
        <ele>730</ele>
        <time>2011-01-02T11:49:47Z</time>
      </trkpt>
      <trkpt lat="43.79346" lon="7.24826">
        <ele>730</ele>
        <time>2011-01-02T11:49:49Z</time>
      </trkpt>
      <trkpt lat="43.79354" lon="7.24833">
        <ele>730</ele>
        <time>2011-01-02T11:49:51Z</time>
      </trkpt>
      <trkpt lat="43.79365" lon="7.24838">
        <ele>730</ele>
        <time>2011-01-02T11:49:54Z</time>
      </trkpt>
      <trkpt lat="43.79375" lon="7.2484">
        <ele>730</ele>
        <time>2011-01-02T11:49:58Z</time>
      </trkpt>
      <trkpt lat="43.79385" lon="7.24842">
        <ele>730</ele>
        <time>2011-01-02T11:50:01Z</time>
      </trkpt>
      <trkpt lat="43.79394" lon="7.24845">
        <ele>730</ele>
        <time>2011-01-02T11:50:04Z</time>
      </trkpt>
      <trkpt lat="43.79403" lon="7.24848">
        <ele>729</ele>
        <time>2011-01-02T11:50:07Z</time>
      </trkpt>
      <trkpt lat="43.79413" lon="7.24853">
        <ele>729</ele>
        <time>2011-01-02T11:50:11Z</time>
      </trkpt>
      <trkpt lat="43.79423" lon="7.2486">
        <ele>728</ele>
        <time>2011-01-02T11:50:15Z</time>
      </trkpt>
      <trkpt lat="43.79429" lon="7.24863">
        <ele>728</ele>
        <time>2011-01-02T11:50:17Z</time>
      </trkpt>
      <trkpt lat="43.79438" lon="7.24868">
        <ele>728</ele>
        <time>2011-01-02T11:50:20Z</time>
      </trkpt>
      <trkpt lat="43.79447" lon="7.24872">
        <ele>728</ele>
        <time>2011-01-02T11:50:23Z</time>
      </trkpt>
      <trkpt lat="43.79455" lon="7.24875">
        <ele>728</ele>
        <time>2011-01-02T11:50:26Z</time>
      </trkpt>
      <trkpt lat="43.79465" lon="7.24879">
        <ele>728</ele>
        <time>2011-01-02T11:50:30Z</time>
      </trkpt>
      <trkpt lat="43.79475" lon="7.24882">
        <ele>728</ele>
        <time>2011-01-02T11:50:34Z</time>
      </trkpt>
      <trkpt lat="43.79485" lon="7.24886">
        <ele>729</ele>
        <time>2011-01-02T11:50:38Z</time>
      </trkpt>
      <trkpt lat="43.79496" lon="7.24889">
        <ele>730</ele>
        <time>2011-01-02T11:50:43Z</time>
      </trkpt>
      <trkpt lat="43.79505" lon="7.24892">
        <ele>731</ele>
        <time>2011-01-02T11:50:46Z</time>
      </trkpt>
      <trkpt lat="43.79515" lon="7.24892">
        <ele>731</ele>
        <time>2011-01-02T11:50:50Z</time>
      </trkpt>
      <trkpt lat="43.79522" lon="7.24893">
        <ele>731</ele>
        <time>2011-01-02T11:50:53Z</time>
      </trkpt>
      <trkpt lat="43.79532" lon="7.24894">
        <ele>732</ele>
        <time>2011-01-02T11:50:57Z</time>
      </trkpt>
      <trkpt lat="43.79542" lon="7.24894">
        <ele>732</ele>
        <time>2011-01-02T11:51:01Z</time>
      </trkpt>
      <trkpt lat="43.79552" lon="7.24894">
        <ele>732</ele>
        <time>2011-01-02T11:51:05Z</time>
      </trkpt>
      <trkpt lat="43.79562" lon="7.24895">
        <ele>733</ele>
        <time>2011-01-02T11:51:09Z</time>
      </trkpt>
      <trkpt lat="43.79572" lon="7.24897">
        <ele>732</ele>
        <time>2011-01-02T11:51:13Z</time>
      </trkpt>
      <trkpt lat="43.79577" lon="7.24897">
        <ele>732</ele>
        <time>2011-01-02T11:51:15Z</time>
      </trkpt>
      <trkpt lat="43.79587" lon="7.24898">
        <ele>733</ele>
        <time>2011-01-02T11:51:20Z</time>
      </trkpt>
      <trkpt lat="43.79596" lon="7.24898">
        <ele>733</ele>
        <time>2011-01-02T11:51:24Z</time>
      </trkpt>
      <trkpt lat="43.79605" lon="7.24898">
        <ele>733</ele>
        <time>2011-01-02T11:51:28Z</time>
      </trkpt>
      <trkpt lat="43.79616" lon="7.24896">
        <ele>733</ele>
        <time>2011-01-02T11:51:32Z</time>
      </trkpt>
      <trkpt lat="43.79627" lon="7.24895">
        <ele>733</ele>
        <time>2011-01-02T11:51:36Z</time>
      </trkpt>
      <trkpt lat="43.79636" lon="7.24893">
        <ele>733</ele>
        <time>2011-01-02T11:51:40Z</time>
      </trkpt>
      <trkpt lat="43.79646" lon="7.24887">
        <ele>733</ele>
        <time>2011-01-02T11:51:44Z</time>
      </trkpt>
      <trkpt lat="43.79654" lon="7.2488">
        <ele>734</ele>
        <time>2011-01-02T11:51:50Z</time>
      </trkpt>
      <trkpt lat="43.79662" lon="7.24873">
        <ele>734</ele>
        <time>2011-01-02T11:51:55Z</time>
      </trkpt>
      <trkpt lat="43.79669" lon="7.24865">
        <ele>735</ele>
        <time>2011-01-02T11:52:01Z</time>
      </trkpt>
      <trkpt lat="43.79677" lon="7.24858">
        <ele>736</ele>
        <time>2011-01-02T11:52:06Z</time>
      </trkpt>
      <trkpt lat="43.79684" lon="7.2485">
        <ele>736</ele>
        <time>2011-01-02T11:52:11Z</time>
      </trkpt>
      <trkpt lat="43.79691" lon="7.24841">
        <ele>736</ele>
        <time>2011-01-02T11:52:16Z</time>
      </trkpt>
      <trkpt lat="43.79699" lon="7.24834">
        <ele>738</ele>
        <time>2011-01-02T11:52:21Z</time>
      </trkpt>
      <trkpt lat="43.79707" lon="7.24826">
        <ele>738</ele>
        <time>2011-01-02T11:52:26Z</time>
      </trkpt>
      <trkpt lat="43.79714" lon="7.24819">
        <ele>738</ele>
        <time>2011-01-02T11:52:30Z</time>
      </trkpt>
      <trkpt lat="43.79719" lon="7.24813">
        <ele>739</ele>
        <time>2011-01-02T11:52:33Z</time>
      </trkpt>
      <trkpt lat="43.79727" lon="7.24806">
        <ele>740</ele>
        <time>2011-01-02T11:52:39Z</time>
      </trkpt>
      <trkpt lat="43.79736" lon="7.24799">
        <ele>741</ele>
        <time>2011-01-02T11:52:44Z</time>
      </trkpt>
      <trkpt lat="43.79745" lon="7.24794">
        <ele>741</ele>
        <time>2011-01-02T11:52:50Z</time>
      </trkpt>
      <trkpt lat="43.79752" lon="7.24791">
        <ele>741</ele>
        <time>2011-01-02T11:52:54Z</time>
      </trkpt>
      <trkpt lat="43.79762" lon="7.24787">
        <ele>742</ele>
        <time>2011-01-02T11:53:00Z</time>
      </trkpt>
      <trkpt lat="43.79772" lon="7.24783">
        <ele>742</ele>
        <time>2011-01-02T11:53:05Z</time>
      </trkpt>
      <trkpt lat="43.79777" lon="7.24781">
        <ele>743</ele>
        <time>2011-01-02T11:53:08Z</time>
      </trkpt>
      <trkpt lat="43.79787" lon="7.24775">
        <ele>744</ele>
        <time>2011-01-02T11:53:12Z</time>
      </trkpt>
      <trkpt lat="43.79796" lon="7.24767">
        <ele>744</ele>
        <time>2011-01-02T11:53:15Z</time>
      </trkpt>
      <trkpt lat="43.79806" lon="7.24759">
        <ele>744</ele>
        <time>2011-01-02T11:53:18Z</time>
      </trkpt>
      <trkpt lat="43.79815" lon="7.2475">
        <ele>744</ele>
        <time>2011-01-02T11:53:21Z</time>
      </trkpt>
      <trkpt lat="43.79823" lon="7.2474">
        <ele>744</ele>
        <time>2011-01-02T11:53:24Z</time>
      </trkpt>
      <trkpt lat="43.7983" lon="7.2473">
        <ele>744</ele>
        <time>2011-01-02T11:53:28Z</time>
      </trkpt>
      <trkpt lat="43.79836" lon="7.2472">
        <ele>745</ele>
        <time>2011-01-02T11:53:32Z</time>
      </trkpt>
      <trkpt lat="43.79838" lon="7.24717">
        <ele>745</ele>
        <time>2011-01-02T11:53:33Z</time>
      </trkpt>
      <trkpt lat="43.79845" lon="7.24706">
        <ele>746</ele>
        <time>2011-01-02T11:53:38Z</time>
      </trkpt>
      <trkpt lat="43.79852" lon="7.24696">
        <ele>749</ele>
        <time>2011-01-02T11:53:43Z</time>
      </trkpt>
      <trkpt lat="43.79861" lon="7.24688">
        <ele>751</ele>
        <time>2011-01-02T11:53:49Z</time>
      </trkpt>
      <trkpt lat="43.79867" lon="7.24683">
        <ele>751</ele>
        <time>2011-01-02T11:53:52Z</time>
      </trkpt>
      <trkpt lat="43.79876" lon="7.24678">
        <ele>753</ele>
        <time>2011-01-02T11:53:57Z</time>
      </trkpt>
      <trkpt lat="43.79884" lon="7.24672">
        <ele>753</ele>
        <time>2011-01-02T11:54:02Z</time>
      </trkpt>
      <trkpt lat="43.79894" lon="7.24666">
        <ele>754</ele>
        <time>2011-01-02T11:54:06Z</time>
      </trkpt>
      <trkpt lat="43.79896" lon="7.24665">
        <ele>754</ele>
        <time>2011-01-02T11:54:07Z</time>
      </trkpt>
      <trkpt lat="43.79904" lon="7.24657">
        <ele>754</ele>
        <time>2011-01-02T11:54:12Z</time>
      </trkpt>
      <trkpt lat="43.79912" lon="7.24647">
        <ele>754</ele>
        <time>2011-01-02T11:54:16Z</time>
      </trkpt>
      <trkpt lat="43.79917" lon="7.24639">
        <ele>754</ele>
        <time>2011-01-02T11:54:20Z</time>
      </trkpt>
      <trkpt lat="43.79923" lon="7.24629">
        <ele>755</ele>
        <time>2011-01-02T11:54:25Z</time>
      </trkpt>
      <trkpt lat="43.79929" lon="7.24619">
        <ele>756</ele>
        <time>2011-01-02T11:54:29Z</time>
      </trkpt>
      <trkpt lat="43.79934" lon="7.24606">
        <ele>757</ele>
        <time>2011-01-02T11:54:35Z</time>
      </trkpt>
      <trkpt lat="43.79938" lon="7.24594">
        <ele>757</ele>
        <time>2011-01-02T11:54:39Z</time>
      </trkpt>
      <trkpt lat="43.79937" lon="7.24581">
        <ele>757</ele>
        <time>2011-01-02T11:54:44Z</time>
      </trkpt>
      <trkpt lat="43.79939" lon="7.24568">
        <ele>758</ele>
        <time>2011-01-02T11:54:47Z</time>
      </trkpt>
      <trkpt lat="43.79943" lon="7.24556">
        <ele>758</ele>
        <time>2011-01-02T11:54:51Z</time>
      </trkpt>
      <trkpt lat="43.79949" lon="7.24546">
        <ele>759</ele>
        <time>2011-01-02T11:54:55Z</time>
      </trkpt>
      <trkpt lat="43.79952" lon="7.24543">
        <ele>760</ele>
        <time>2011-01-02T11:54:57Z</time>
      </trkpt>
      <trkpt lat="43.79961" lon="7.24538">
        <ele>761</ele>
        <time>2011-01-02T11:55:00Z</time>
      </trkpt>
      <trkpt lat="43.79966" lon="7.24537">
        <ele>762</ele>
        <time>2011-01-02T11:55:03Z</time>
      </trkpt>
      <trkpt lat="43.79977" lon="7.24536">
        <ele>763</ele>
        <time>2011-01-02T11:55:07Z</time>
      </trkpt>
      <trkpt lat="43.79987" lon="7.24536">
        <ele>763</ele>
        <time>2011-01-02T11:55:12Z</time>
      </trkpt>
      <trkpt lat="43.79994" lon="7.24537">
        <ele>764</ele>
        <time>2011-01-02T11:55:15Z</time>
      </trkpt>
      <trkpt lat="43.80004" lon="7.24538">
        <ele>764</ele>
        <time>2011-01-02T11:55:20Z</time>
      </trkpt>
      <trkpt lat="43.80013" lon="7.24541">
        <ele>765</ele>
        <time>2011-01-02T11:55:25Z</time>
      </trkpt>
      <trkpt lat="43.80018" lon="7.24543">
        <ele>765</ele>
        <time>2011-01-02T11:55:27Z</time>
      </trkpt>
      <trkpt lat="43.80026" lon="7.24548">
        <ele>766</ele>
        <time>2011-01-02T11:55:32Z</time>
      </trkpt>
      <trkpt lat="43.80031" lon="7.24549">
        <ele>767</ele>
        <time>2011-01-02T11:55:34Z</time>
      </trkpt>
      <trkpt lat="43.80037" lon="7.24538">
        <ele>768</ele>
        <time>2011-01-02T11:55:40Z</time>
      </trkpt>
      <trkpt lat="43.80037" lon="7.2453">
        <ele>769</ele>
        <time>2011-01-02T11:55:43Z</time>
      </trkpt>
      <trkpt lat="43.8004" lon="7.24517">
        <ele>770</ele>
        <time>2011-01-02T11:55:49Z</time>
      </trkpt>
      <trkpt lat="43.80046" lon="7.24506">
        <ele>772</ele>
        <time>2011-01-02T11:55:53Z</time>
      </trkpt>
      <trkpt lat="43.80051" lon="7.24495">
        <ele>773</ele>
        <time>2011-01-02T11:55:58Z</time>
      </trkpt>
      <trkpt lat="43.80052" lon="7.24493">
        <ele>773</ele>
        <time>2011-01-02T11:56:00Z</time>
      </trkpt>
      <trkpt lat="43.80062" lon="7.24487">
        <ele>774</ele>
        <time>2011-01-02T11:56:05Z</time>
      </trkpt>
      <trkpt lat="43.80071" lon="7.24483">
        <ele>774</ele>
        <time>2011-01-02T11:56:10Z</time>
      </trkpt>
      <trkpt lat="43.8008" lon="7.24481">
        <ele>775</ele>
        <time>2011-01-02T11:56:13Z</time>
      </trkpt>
      <trkpt lat="43.8009" lon="7.24485">
        <ele>776</ele>
        <time>2011-01-02T11:56:17Z</time>
      </trkpt>
      <trkpt lat="43.80098" lon="7.24494">
        <ele>777</ele>
        <time>2011-01-02T11:56:21Z</time>
      </trkpt>
      <trkpt lat="43.801" lon="7.24498">
        <ele>777</ele>
        <time>2011-01-02T11:56:23Z</time>
      </trkpt>
      <trkpt lat="43.80107" lon="7.24508">
        <ele>779</ele>
        <time>2011-01-02T11:56:28Z</time>
      </trkpt>
      <trkpt lat="43.80113" lon="7.24519">
        <ele>779</ele>
        <time>2011-01-02T11:56:33Z</time>
      </trkpt>
      <trkpt lat="43.80119" lon="7.2453">
        <ele>779</ele>
        <time>2011-01-02T11:56:38Z</time>
      </trkpt>
      <trkpt lat="43.80125" lon="7.24542">
        <ele>779</ele>
        <time>2011-01-02T11:56:44Z</time>
      </trkpt>
      <trkpt lat="43.80129" lon="7.24548">
        <ele>780</ele>
        <time>2011-01-02T11:56:47Z</time>
      </trkpt>
      <trkpt lat="43.80135" lon="7.24556">
        <ele>781</ele>
        <time>2011-01-02T11:56:52Z</time>
      </trkpt>
      <trkpt lat="43.80143" lon="7.24566">
        <ele>781</ele>
        <time>2011-01-02T11:56:58Z</time>
      </trkpt>
      <trkpt lat="43.8015" lon="7.24575">
        <ele>782</ele>
        <time>2011-01-02T11:57:05Z</time>
      </trkpt>
      <trkpt lat="43.80151" lon="7.24578">
        <ele>783</ele>
        <time>2011-01-02T11:57:06Z</time>
      </trkpt>
      <trkpt lat="43.80158" lon="7.24586">
        <ele>783</ele>
        <time>2011-01-02T11:57:13Z</time>
      </trkpt>
      <trkpt lat="43.80164" lon="7.24589">
        <ele>784</ele>
        <time>2011-01-02T11:57:16Z</time>
      </trkpt>
      <trkpt lat="43.80173" lon="7.24588">
        <ele>785</ele>
        <time>2011-01-02T11:57:23Z</time>
      </trkpt>
      <trkpt lat="43.80182" lon="7.24587">
        <ele>786</ele>
        <time>2011-01-02T11:57:29Z</time>
      </trkpt>
      <trkpt lat="43.80191" lon="7.24583">
        <ele>788</ele>
        <time>2011-01-02T11:57:36Z</time>
      </trkpt>
      <trkpt lat="43.802" lon="7.24581">
        <ele>788</ele>
        <time>2011-01-02T11:57:44Z</time>
      </trkpt>
      <trkpt lat="43.80204" lon="7.2458">
        <ele>789</ele>
        <time>2011-01-02T11:57:47Z</time>
      </trkpt>
      <trkpt lat="43.80212" lon="7.24574">
        <ele>791</ele>
        <time>2011-01-02T11:57:55Z</time>
      </trkpt>
      <trkpt lat="43.80221" lon="7.2457">
        <ele>793</ele>
        <time>2011-01-02T11:58:02Z</time>
      </trkpt>
      <trkpt lat="43.80226" lon="7.24569">
        <ele>794</ele>
        <time>2011-01-02T11:58:07Z</time>
      </trkpt>
      <trkpt lat="43.80234" lon="7.24564">
        <ele>797</ele>
        <time>2011-01-02T11:58:16Z</time>
      </trkpt>
      <trkpt lat="43.80239" lon="7.24553">
        <ele>798</ele>
        <time>2011-01-02T11:58:25Z</time>
      </trkpt>
      <trkpt lat="43.80247" lon="7.24545">
        <ele>800</ele>
        <time>2011-01-02T11:58:33Z</time>
      </trkpt>
      <trkpt lat="43.80256" lon="7.2454">
        <ele>802</ele>
        <time>2011-01-02T11:58:41Z</time>
      </trkpt>
      <trkpt lat="43.80266" lon="7.24539">
        <ele>803</ele>
        <time>2011-01-02T11:58:49Z</time>
      </trkpt>
      <trkpt lat="43.80275" lon="7.24538">
        <ele>805</ele>
        <time>2011-01-02T11:58:56Z</time>
      </trkpt>
      <trkpt lat="43.80279" lon="7.24538">
        <ele>806</ele>
        <time>2011-01-02T11:58:59Z</time>
      </trkpt>
      <trkpt lat="43.80288" lon="7.24536">
        <ele>807</ele>
        <time>2011-01-02T11:59:07Z</time>
      </trkpt>
      <trkpt lat="43.80298" lon="7.24531">
        <ele>810</ele>
        <time>2011-01-02T11:59:15Z</time>
      </trkpt>
      <trkpt lat="43.80306" lon="7.24527">
        <ele>812</ele>
        <time>2011-01-02T11:59:22Z</time>
      </trkpt>
      <trkpt lat="43.80315" lon="7.24523">
        <ele>814</ele>
        <time>2011-01-02T11:59:29Z</time>
      </trkpt>
      <trkpt lat="43.80319" lon="7.24523">
        <ele>814</ele>
        <time>2011-01-02T11:59:31Z</time>
      </trkpt>
      <trkpt lat="43.80328" lon="7.24522">
        <ele>815</ele>
        <time>2011-01-02T11:59:36Z</time>
      </trkpt>
      <trkpt lat="43.80339" lon="7.24522">
        <ele>816</ele>
        <time>2011-01-02T11:59:41Z</time>
      </trkpt>
      <trkpt lat="43.80341" lon="7.24521">
        <ele>816</ele>
        <time>2011-01-02T11:59:41Z</time>
      </trkpt>
      <trkpt lat="43.80351" lon="7.24521">
        <ele>816</ele>
        <time>2011-01-02T11:59:45Z</time>
      </trkpt>
      <trkpt lat="43.80361" lon="7.24521">
        <ele>817</ele>
        <time>2011-01-02T11:59:49Z</time>
      </trkpt>
      <trkpt lat="43.80363" lon="7.24521">
        <ele>817</ele>
        <time>2011-01-02T11:59:50Z</time>
      </trkpt>
      <trkpt lat="43.80373" lon="7.2452">
        <ele>817</ele>
        <time>2011-01-02T11:59:54Z</time>
      </trkpt>
      <trkpt lat="43.80382" lon="7.24518">
        <ele>818</ele>
        <time>2011-01-02T11:59:58Z</time>
      </trkpt>
      <trkpt lat="43.80392" lon="7.24517">
        <ele>818</ele>
        <time>2011-01-02T12:00:02Z</time>
      </trkpt>
      <trkpt lat="43.80402" lon="7.24516">
        <ele>819</ele>
        <time>2011-01-02T12:00:06Z</time>
      </trkpt>
      <trkpt lat="43.80412" lon="7.24515">
        <ele>819</ele>
        <time>2011-01-02T12:00:10Z</time>
      </trkpt>
      <trkpt lat="43.80422" lon="7.24513">
        <ele>819</ele>
        <time>2011-01-02T12:00:14Z</time>
      </trkpt>
      <trkpt lat="43.80432" lon="7.24512">
        <ele>820</ele>
        <time>2011-01-02T12:00:18Z</time>
      </trkpt>
      <trkpt lat="43.80441" lon="7.24511">
        <ele>822</ele>
        <time>2011-01-02T12:00:22Z</time>
      </trkpt>
      <trkpt lat="43.80446" lon="7.2451">
        <ele>822</ele>
        <time>2011-01-02T12:00:24Z</time>
      </trkpt>
      <trkpt lat="43.80456" lon="7.24509">
        <ele>823</ele>
        <time>2011-01-02T12:00:29Z</time>
      </trkpt>
      <trkpt lat="43.80465" lon="7.24508">
        <ele>824</ele>
        <time>2011-01-02T12:00:33Z</time>
      </trkpt>
      <trkpt lat="43.80471" lon="7.24507">
        <ele>824</ele>
        <time>2011-01-02T12:00:36Z</time>
      </trkpt>
      <trkpt lat="43.8048" lon="7.24506">
        <ele>824</ele>
        <time>2011-01-02T12:00:40Z</time>
      </trkpt>
      <trkpt lat="43.8049" lon="7.24505">
        <ele>824</ele>
        <time>2011-01-02T12:00:44Z</time>
      </trkpt>
      <trkpt lat="43.80501" lon="7.24504">
        <ele>825</ele>
        <time>2011-01-02T12:00:47Z</time>
      </trkpt>
      <trkpt lat="43.80512" lon="7.24504">
        <ele>825</ele>
        <time>2011-01-02T12:00:50Z</time>
      </trkpt>
      <trkpt lat="43.80522" lon="7.24504">
        <ele>825</ele>
        <time>2011-01-02T12:00:53Z</time>
      </trkpt>
      <trkpt lat="43.80532" lon="7.24505">
        <ele>826</ele>
        <time>2011-01-02T12:00:57Z</time>
      </trkpt>
      <trkpt lat="43.80542" lon="7.24507">
        <ele>826</ele>
        <time>2011-01-02T12:01:01Z</time>
      </trkpt>
      <trkpt lat="43.80553" lon="7.24508">
        <ele>827</ele>
        <time>2011-01-02T12:01:05Z</time>
      </trkpt>
      <trkpt lat="43.80564" lon="7.24508">
        <ele>827</ele>
        <time>2011-01-02T12:01:08Z</time>
      </trkpt>
      <trkpt lat="43.80573" lon="7.24506">
        <ele>827</ele>
        <time>2011-01-02T12:01:10Z</time>
      </trkpt>
      <trkpt lat="43.80583" lon="7.24505">
        <ele>826</ele>
        <time>2011-01-02T12:01:14Z</time>
      </trkpt>
      <trkpt lat="43.80593" lon="7.24503">
        <ele>827</ele>
        <time>2011-01-02T12:01:17Z</time>
      </trkpt>
      <trkpt lat="43.80595" lon="7.24503">
        <ele>827</ele>
        <time>2011-01-02T12:01:17Z</time>
      </trkpt>
      <trkpt lat="43.80606" lon="7.245">
        <ele>827</ele>
        <time>2011-01-02T12:01:21Z</time>
      </trkpt>
      <trkpt lat="43.80617" lon="7.24499">
        <ele>827</ele>
        <time>2011-01-02T12:01:24Z</time>
      </trkpt>
      <trkpt lat="43.80626" lon="7.24499">
        <ele>826</ele>
        <time>2011-01-02T12:01:29Z</time>
      </trkpt>
      <trkpt lat="43.80638" lon="7.24498">
        <ele>827</ele>
        <time>2011-01-02T12:01:33Z</time>
      </trkpt>
      <trkpt lat="43.80648" lon="7.24498">
        <ele>827</ele>
        <time>2011-01-02T12:01:35Z</time>
      </trkpt>
      <trkpt lat="43.80658" lon="7.24496">
        <ele>827</ele>
        <time>2011-01-02T12:01:38Z</time>
      </trkpt>
      <trkpt lat="43.8067" lon="7.24494">
        <ele>827</ele>
        <time>2011-01-02T12:01:41Z</time>
      </trkpt>
      <trkpt lat="43.8068" lon="7.24493">
        <ele>827</ele>
        <time>2011-01-02T12:01:44Z</time>
      </trkpt>
      <trkpt lat="43.80689" lon="7.24492">
        <ele>827</ele>
        <time>2011-01-02T12:01:47Z</time>
      </trkpt>
      <trkpt lat="43.807" lon="7.2449">
        <ele>827</ele>
        <time>2011-01-02T12:01:51Z</time>
      </trkpt>
      <trkpt lat="43.8071" lon="7.24489">
        <ele>828</ele>
        <time>2011-01-02T12:01:55Z</time>
      </trkpt>
      <trkpt lat="43.80719" lon="7.24487">
        <ele>828</ele>
        <time>2011-01-02T12:01:59Z</time>
      </trkpt>
      <trkpt lat="43.80728" lon="7.24485">
        <ele>829</ele>
        <time>2011-01-02T12:02:02Z</time>
      </trkpt>
      <trkpt lat="43.80739" lon="7.24485">
        <ele>829</ele>
        <time>2011-01-02T12:02:06Z</time>
      </trkpt>
      <trkpt lat="43.80748" lon="7.24484">
        <ele>829</ele>
        <time>2011-01-02T12:02:09Z</time>
      </trkpt>
      <trkpt lat="43.80759" lon="7.24485">
        <ele>830</ele>
        <time>2011-01-02T12:02:12Z</time>
      </trkpt>
      <trkpt lat="43.80768" lon="7.24486">
        <ele>830</ele>
        <time>2011-01-02T12:02:15Z</time>
      </trkpt>
      <trkpt lat="43.80778" lon="7.24488">
        <ele>830</ele>
        <time>2011-01-02T12:02:19Z</time>
      </trkpt>
      <trkpt lat="43.80789" lon="7.24492">
        <ele>830</ele>
        <time>2011-01-02T12:02:22Z</time>
      </trkpt>
      <trkpt lat="43.80798" lon="7.245">
        <ele>829</ele>
        <time>2011-01-02T12:02:25Z</time>
      </trkpt>
      <trkpt lat="43.80802" lon="7.24511">
        <ele>828</ele>
        <time>2011-01-02T12:02:28Z</time>
      </trkpt>
      <trkpt lat="43.80805" lon="7.24522">
        <ele>829</ele>
        <time>2011-01-02T12:02:31Z</time>
      </trkpt>
      <trkpt lat="43.80809" lon="7.24534">
        <ele>829</ele>
        <time>2011-01-02T12:02:35Z</time>
      </trkpt>
      <trkpt lat="43.80812" lon="7.24547">
        <ele>830</ele>
        <time>2011-01-02T12:02:38Z</time>
      </trkpt>
      <trkpt lat="43.8082" lon="7.24556">
        <ele>830</ele>
        <time>2011-01-02T12:02:43Z</time>
      </trkpt>
      <trkpt lat="43.80828" lon="7.24552">
        <ele>831</ele>
        <time>2011-01-02T12:02:46Z</time>
      </trkpt>
      <trkpt lat="43.80837" lon="7.24548">
        <ele>832</ele>
        <time>2011-01-02T12:02:50Z</time>
      </trkpt>
      <trkpt lat="43.80843" lon="7.24545">
        <ele>833</ele>
        <time>2011-01-02T12:02:53Z</time>
      </trkpt>
      <trkpt lat="43.80851" lon="7.24541">
        <ele>834</ele>
        <time>2011-01-02T12:02:56Z</time>
      </trkpt>
      <trkpt lat="43.80861" lon="7.24538">
        <ele>835</ele>
        <time>2011-01-02T12:03:01Z</time>
      </trkpt>
      <trkpt lat="43.8087" lon="7.24532">
        <ele>835</ele>
        <time>2011-01-02T12:03:04Z</time>
      </trkpt>
      <trkpt lat="43.80879" lon="7.24526">
        <ele>836</ele>
        <time>2011-01-02T12:03:07Z</time>
      </trkpt>
      <trkpt lat="43.8089" lon="7.24522">
        <ele>836</ele>
        <time>2011-01-02T12:03:10Z</time>
      </trkpt>
      <trkpt lat="43.80899" lon="7.24521">
        <ele>836</ele>
        <time>2011-01-02T12:03:13Z</time>
      </trkpt>
      <trkpt lat="43.80908" lon="7.2452">
        <ele>836</ele>
        <time>2011-01-02T12:03:15Z</time>
      </trkpt>
      <trkpt lat="43.80918" lon="7.24514">
        <ele>835</ele>
        <time>2011-01-02T12:03:19Z</time>
      </trkpt>
      <trkpt lat="43.80929" lon="7.24507">
        <ele>835</ele>
        <time>2011-01-02T12:03:43Z</time>
      </trkpt>
      <trkpt lat="43.80929" lon="7.24507">
        <ele>835</ele>
        <time>2011-01-02T12:04:14Z</time>
      </trkpt>
      <trkpt lat="43.80921" lon="7.245">
        <ele>822</ele>
        <time>2011-01-02T12:08:25Z</time>
      </trkpt>
      <trkpt lat="43.80926" lon="7.24509">
        <ele>824</ele>
        <time>2011-01-02T12:09:52Z</time>
      </trkpt>
      <trkpt lat="43.80928" lon="7.24496">
        <ele>823</ele>
        <time>2011-01-02T12:10:10Z</time>
      </trkpt>
      <trkpt lat="43.80926" lon="7.24492">
        <ele>824</ele>
        <time>2011-01-02T12:10:11Z</time>
      </trkpt>
      <trkpt lat="43.80918" lon="7.24482">
        <ele>825</ele>
        <time>2011-01-02T12:10:16Z</time>
      </trkpt>
      <trkpt lat="43.80909" lon="7.24477">
        <ele>825</ele>
        <time>2011-01-02T12:10:19Z</time>
      </trkpt>
      <trkpt lat="43.80901" lon="7.24471">
        <ele>825</ele>
        <time>2011-01-02T12:10:22Z</time>
      </trkpt>
      <trkpt lat="43.80893" lon="7.24462">
        <ele>825</ele>
        <time>2011-01-02T12:10:25Z</time>
      </trkpt>
      <trkpt lat="43.80885" lon="7.24455">
        <ele>825</ele>
        <time>2011-01-02T12:10:27Z</time>
      </trkpt>
      <trkpt lat="43.80873" lon="7.24454">
        <ele>825</ele>
        <time>2011-01-02T12:10:30Z</time>
      </trkpt>
      <trkpt lat="43.80863" lon="7.24454">
        <ele>824</ele>
        <time>2011-01-02T12:10:33Z</time>
      </trkpt>
      <trkpt lat="43.80855" lon="7.2445">
        <ele>823</ele>
        <time>2011-01-02T12:10:36Z</time>
      </trkpt>
      <trkpt lat="43.80844" lon="7.24446">
        <ele>822</ele>
        <time>2011-01-02T12:10:40Z</time>
      </trkpt>
      <trkpt lat="43.80835" lon="7.24444">
        <ele>819</ele>
        <time>2011-01-02T12:10:45Z</time>
      </trkpt>
      <trkpt lat="43.80827" lon="7.24436">
        <ele>810</ele>
        <time>2011-01-02T12:11:18Z</time>
      </trkpt>
      <trkpt lat="43.80821" lon="7.2443">
        <ele>811</ele>
        <time>2011-01-02T12:11:21Z</time>
      </trkpt>
      <trkpt lat="43.80812" lon="7.24422">
        <ele>811</ele>
        <time>2011-01-02T12:11:25Z</time>
      </trkpt>
      <trkpt lat="43.80806" lon="7.24411">
        <ele>810</ele>
        <time>2011-01-02T12:11:30Z</time>
      </trkpt>
      <trkpt lat="43.80799" lon="7.24402">
        <ele>809</ele>
        <time>2011-01-02T12:11:34Z</time>
      </trkpt>
      <trkpt lat="43.80796" lon="7.2439">
        <ele>799</ele>
        <time>2011-01-02T12:11:54Z</time>
      </trkpt>
      <trkpt lat="43.80795" lon="7.24387">
        <ele>799</ele>
        <time>2011-01-02T12:11:55Z</time>
      </trkpt>
      <trkpt lat="43.8079" lon="7.24377">
        <ele>798</ele>
        <time>2011-01-02T12:11:58Z</time>
      </trkpt>
      <trkpt lat="43.80784" lon="7.24368">
        <ele>797</ele>
        <time>2011-01-02T12:12:02Z</time>
      </trkpt>
      <trkpt lat="43.80777" lon="7.24358">
        <ele>796</ele>
        <time>2011-01-02T12:12:05Z</time>
      </trkpt>
      <trkpt lat="43.80766" lon="7.24351">
        <ele>798</ele>
        <time>2011-01-02T12:12:08Z</time>
      </trkpt>
      <trkpt lat="43.80755" lon="7.24345">
        <ele>800</ele>
        <time>2011-01-02T12:12:11Z</time>
      </trkpt>
      <trkpt lat="43.80746" lon="7.24338">
        <ele>800</ele>
        <time>2011-01-02T12:12:13Z</time>
      </trkpt>
      <trkpt lat="43.80738" lon="7.24329">
        <ele>800</ele>
        <time>2011-01-02T12:12:15Z</time>
      </trkpt>
      <trkpt lat="43.80736" lon="7.24325">
        <ele>800</ele>
        <time>2011-01-02T12:12:16Z</time>
      </trkpt>
      <trkpt lat="43.80728" lon="7.24311">
        <ele>800</ele>
        <time>2011-01-02T12:12:18Z</time>
      </trkpt>
      <trkpt lat="43.80723" lon="7.24301">
        <ele>801</ele>
        <time>2011-01-02T12:12:20Z</time>
      </trkpt>
      <trkpt lat="43.80719" lon="7.24286">
        <ele>800</ele>
        <time>2011-01-02T12:12:22Z</time>
      </trkpt>
      <trkpt lat="43.80717" lon="7.24273">
        <ele>801</ele>
        <time>2011-01-02T12:12:25Z</time>
      </trkpt>
      <trkpt lat="43.80716" lon="7.24259">
        <ele>799</ele>
        <time>2011-01-02T12:12:28Z</time>
      </trkpt>
      <trkpt lat="43.80715" lon="7.24246">
        <ele>799</ele>
        <time>2011-01-02T12:12:32Z</time>
      </trkpt>
      <trkpt lat="43.80714" lon="7.24233">
        <ele>798</ele>
        <time>2011-01-02T12:12:35Z</time>
      </trkpt>
      <trkpt lat="43.80713" lon="7.24221">
        <ele>797</ele>
        <time>2011-01-02T12:12:38Z</time>
      </trkpt>
      <trkpt lat="43.80714" lon="7.24213">
        <ele>795</ele>
        <time>2011-01-02T12:12:40Z</time>
      </trkpt>
      <trkpt lat="43.80719" lon="7.24201">
        <ele>795</ele>
        <time>2011-01-02T12:12:44Z</time>
      </trkpt>
      <trkpt lat="43.80723" lon="7.24196">
        <ele>794</ele>
        <time>2011-01-02T12:12:47Z</time>
      </trkpt>
      <trkpt lat="43.80731" lon="7.24187">
        <ele>788</ele>
        <time>2011-01-02T12:13:14Z</time>
      </trkpt>
      <trkpt lat="43.80733" lon="7.24185">
        <ele>787</ele>
        <time>2011-01-02T12:13:14Z</time>
      </trkpt>
      <trkpt lat="43.8073" lon="7.24173">
        <ele>784</ele>
        <time>2011-01-02T12:13:20Z</time>
      </trkpt>
      <trkpt lat="43.80719" lon="7.24173">
        <ele>784</ele>
        <time>2011-01-02T12:13:23Z</time>
      </trkpt>
      <trkpt lat="43.80709" lon="7.24171">
        <ele>783</ele>
        <time>2011-01-02T12:13:27Z</time>
      </trkpt>
      <trkpt lat="43.80703" lon="7.24162">
        <ele>781</ele>
        <time>2011-01-02T12:13:35Z</time>
      </trkpt>
      <trkpt lat="43.80703" lon="7.24154">
        <ele>780</ele>
        <time>2011-01-02T12:13:41Z</time>
      </trkpt>
      <trkpt lat="43.80694" lon="7.24154">
        <ele>777</ele>
        <time>2011-01-02T12:13:49Z</time>
      </trkpt>
      <trkpt lat="43.80684" lon="7.24152">
        <ele>776</ele>
        <time>2011-01-02T12:13:54Z</time>
      </trkpt>
      <trkpt lat="43.80675" lon="7.24152">
        <ele>774</ele>
        <time>2011-01-02T12:13:58Z</time>
      </trkpt>
      <trkpt lat="43.80666" lon="7.24155">
        <ele>773</ele>
        <time>2011-01-02T12:14:01Z</time>
      </trkpt>
      <trkpt lat="43.80658" lon="7.24161">
        <ele>772</ele>
        <time>2011-01-02T12:14:04Z</time>
      </trkpt>
      <trkpt lat="43.8066" lon="7.24147">
        <ele>770</ele>
        <time>2011-01-02T12:14:12Z</time>
      </trkpt>
      <trkpt lat="43.80657" lon="7.24143">
        <ele>768</ele>
        <time>2011-01-02T12:14:15Z</time>
      </trkpt>
      <trkpt lat="43.80646" lon="7.24144">
        <ele>766</ele>
        <time>2011-01-02T12:14:19Z</time>
      </trkpt>
      <trkpt lat="43.80638" lon="7.24148">
        <ele>765</ele>
        <time>2011-01-02T12:14:24Z</time>
      </trkpt>
      <trkpt lat="43.80639" lon="7.24134">
        <ele>762</ele>
        <time>2011-01-02T12:14:31Z</time>
      </trkpt>
      <trkpt lat="43.80646" lon="7.24124">
        <ele>760</ele>
        <time>2011-01-02T12:14:35Z</time>
      </trkpt>
      <trkpt lat="43.80653" lon="7.24115">
        <ele>758</ele>
        <time>2011-01-02T12:14:39Z</time>
      </trkpt>
      <trkpt lat="43.80647" lon="7.24106">
        <ele>755</ele>
        <time>2011-01-02T12:14:45Z</time>
      </trkpt>
      <trkpt lat="43.8064" lon="7.24098">
        <ele>754</ele>
        <time>2011-01-02T12:14:52Z</time>
      </trkpt>
      <trkpt lat="43.8063" lon="7.24097">
        <ele>750</ele>
        <time>2011-01-02T12:14:57Z</time>
      </trkpt>
      <trkpt lat="43.80621" lon="7.24091">
        <ele>746</ele>
        <time>2011-01-02T12:15:02Z</time>
      </trkpt>
      <trkpt lat="43.80619" lon="7.24091">
        <ele>745</ele>
        <time>2011-01-02T12:15:04Z</time>
      </trkpt>
      <trkpt lat="43.80618" lon="7.24077">
        <ele>739</ele>
        <time>2011-01-02T12:15:11Z</time>
      </trkpt>
      <trkpt lat="43.80611" lon="7.24067">
        <ele>735</ele>
        <time>2011-01-02T12:15:15Z</time>
      </trkpt>
      <trkpt lat="43.806" lon="7.24063">
        <ele>732</ele>
        <time>2011-01-02T12:15:20Z</time>
      </trkpt>
      <trkpt lat="43.80591" lon="7.24064">
        <ele>729</ele>
        <time>2011-01-02T12:15:23Z</time>
      </trkpt>
      <trkpt lat="43.80581" lon="7.24063">
        <ele>726</ele>
        <time>2011-01-02T12:15:27Z</time>
      </trkpt>
      <trkpt lat="43.80576" lon="7.24052">
        <ele>724</ele>
        <time>2011-01-02T12:15:30Z</time>
      </trkpt>
      <trkpt lat="43.80575" lon="7.24047">
        <ele>723</ele>
        <time>2011-01-02T12:15:31Z</time>
      </trkpt>
      <trkpt lat="43.80575" lon="7.24033">
        <ele>721</ele>
        <time>2011-01-02T12:15:34Z</time>
      </trkpt>
      <trkpt lat="43.80576" lon="7.24021">
        <ele>714</ele>
        <time>2011-01-02T12:15:42Z</time>
      </trkpt>
      <trkpt lat="43.80576" lon="7.24018">
        <ele>691</ele>
        <time>2011-01-02T12:17:16Z</time>
      </trkpt>
      <trkpt lat="43.80584" lon="7.24011">
        <ele>685</ele>
        <time>2011-01-02T12:18:12Z</time>
      </trkpt>
      <trkpt lat="43.8059" lon="7.24002">
        <ele>685</ele>
        <time>2011-01-02T12:18:15Z</time>
      </trkpt>
      <trkpt lat="43.806" lon="7.23993">
        <ele>685</ele>
        <time>2011-01-02T12:18:18Z</time>
      </trkpt>
      <trkpt lat="43.80609" lon="7.23987">
        <ele>685</ele>
        <time>2011-01-02T12:18:21Z</time>
      </trkpt>
      <trkpt lat="43.80614" lon="7.23982">
        <ele>684</ele>
        <time>2011-01-02T12:18:22Z</time>
      </trkpt>
      <trkpt lat="43.80622" lon="7.23976">
        <ele>684</ele>
        <time>2011-01-02T12:18:25Z</time>
      </trkpt>
      <trkpt lat="43.80631" lon="7.23966">
        <ele>684</ele>
        <time>2011-01-02T12:18:28Z</time>
      </trkpt>
      <trkpt lat="43.80641" lon="7.23957">
        <ele>684</ele>
        <time>2011-01-02T12:18:30Z</time>
      </trkpt>
      <trkpt lat="43.8065" lon="7.23948">
        <ele>684</ele>
        <time>2011-01-02T12:18:32Z</time>
      </trkpt>
      <trkpt lat="43.80657" lon="7.23939">
        <ele>685</ele>
        <time>2011-01-02T12:18:34Z</time>
      </trkpt>
      <trkpt lat="43.80663" lon="7.23928">
        <ele>684</ele>
        <time>2011-01-02T12:18:39Z</time>
      </trkpt>
      <trkpt lat="43.80666" lon="7.23915">
        <ele>681</ele>
        <time>2011-01-02T12:18:45Z</time>
      </trkpt>
      <trkpt lat="43.80668" lon="7.23903">
        <ele>679</ele>
        <time>2011-01-02T12:18:49Z</time>
      </trkpt>
      <trkpt lat="43.80671" lon="7.23891">
        <ele>677</ele>
        <time>2011-01-02T12:18:53Z</time>
      </trkpt>
      <trkpt lat="43.80678" lon="7.23881">
        <ele>676</ele>
        <time>2011-01-02T12:18:56Z</time>
      </trkpt>
      <trkpt lat="43.80687" lon="7.23878">
        <ele>673</ele>
        <time>2011-01-02T12:19:00Z</time>
      </trkpt>
      <trkpt lat="43.80698" lon="7.23883">
        <ele>667</ele>
        <time>2011-01-02T12:19:24Z</time>
      </trkpt>
      <trkpt lat="43.80705" lon="7.23881">
        <ele>667</ele>
        <time>2011-01-02T12:19:28Z</time>
      </trkpt>
      <trkpt lat="43.80714" lon="7.23879">
        <ele>667</ele>
        <time>2011-01-02T12:19:31Z</time>
      </trkpt>
      <trkpt lat="43.80724" lon="7.23877">
        <ele>667</ele>
        <time>2011-01-02T12:19:35Z</time>
      </trkpt>
      <trkpt lat="43.80733" lon="7.23873">
        <ele>665</ele>
        <time>2011-01-02T12:19:38Z</time>
      </trkpt>
      <trkpt lat="43.80744" lon="7.23872">
        <ele>665</ele>
        <time>2011-01-02T12:19:41Z</time>
      </trkpt>
      <trkpt lat="43.80754" lon="7.23872">
        <ele>665</ele>
        <time>2011-01-02T12:19:43Z</time>
      </trkpt>
      <trkpt lat="43.80764" lon="7.23869">
        <ele>664</ele>
        <time>2011-01-02T12:19:45Z</time>
      </trkpt>
      <trkpt lat="43.80771" lon="7.23859">
        <ele>662</ele>
        <time>2011-01-02T12:19:49Z</time>
      </trkpt>
      <trkpt lat="43.80772" lon="7.23846">
        <ele>661</ele>
        <time>2011-01-02T12:19:53Z</time>
      </trkpt>
      <trkpt lat="43.80776" lon="7.23834">
        <ele>660</ele>
        <time>2011-01-02T12:19:56Z</time>
      </trkpt>
      <trkpt lat="43.80771" lon="7.23823">
        <ele>659</ele>
        <time>2011-01-02T12:19:59Z</time>
      </trkpt>
      <trkpt lat="43.80773" lon="7.23809">
        <ele>657</ele>
        <time>2011-01-02T12:20:05Z</time>
      </trkpt>
      <trkpt lat="43.80773" lon="7.23797">
        <ele>656</ele>
        <time>2011-01-02T12:20:08Z</time>
      </trkpt>
      <trkpt lat="43.80774" lon="7.23783">
        <ele>653</ele>
        <time>2011-01-02T12:20:12Z</time>
      </trkpt>
      <trkpt lat="43.80777" lon="7.23769">
        <ele>650</ele>
        <time>2011-01-02T12:20:17Z</time>
      </trkpt>
      <trkpt lat="43.80778" lon="7.23766">
        <ele>650</ele>
        <time>2011-01-02T12:20:18Z</time>
      </trkpt>
      <trkpt lat="43.80779" lon="7.23753">
        <ele>648</ele>
        <time>2011-01-02T12:20:21Z</time>
      </trkpt>
      <trkpt lat="43.80784" lon="7.23739">
        <ele>637</ele>
        <time>2011-01-02T12:20:33Z</time>
      </trkpt>
      <trkpt lat="43.80792" lon="7.23728">
        <ele>634</ele>
        <time>2011-01-02T12:20:36Z</time>
      </trkpt>
      <trkpt lat="43.80799" lon="7.2372">
        <ele>632</ele>
        <time>2011-01-02T12:20:39Z</time>
      </trkpt>
      <trkpt lat="43.80809" lon="7.23715">
        <ele>630</ele>
        <time>2011-01-02T12:20:42Z</time>
      </trkpt>
      <trkpt lat="43.80818" lon="7.23713">
        <ele>629</ele>
        <time>2011-01-02T12:20:44Z</time>
      </trkpt>
      <trkpt lat="43.80826" lon="7.23708">
        <ele>627</ele>
        <time>2011-01-02T12:20:47Z</time>
      </trkpt>
      <trkpt lat="43.80834" lon="7.23697">
        <ele>625</ele>
        <time>2011-01-02T12:20:50Z</time>
      </trkpt>
      <trkpt lat="43.8084" lon="7.23687">
        <ele>623</ele>
        <time>2011-01-02T12:20:52Z</time>
      </trkpt>
      <trkpt lat="43.80845" lon="7.23675">
        <ele>620</ele>
        <time>2011-01-02T12:20:55Z</time>
      </trkpt>
      <trkpt lat="43.80849" lon="7.23663">
        <ele>619</ele>
        <time>2011-01-02T12:20:59Z</time>
      </trkpt>
      <trkpt lat="43.80853" lon="7.23648">
        <ele>618</ele>
        <time>2011-01-02T12:21:02Z</time>
      </trkpt>
      <trkpt lat="43.80856" lon="7.23635">
        <ele>616</ele>
        <time>2011-01-02T12:21:05Z</time>
      </trkpt>
      <trkpt lat="43.8086" lon="7.23621">
        <ele>615</ele>
        <time>2011-01-02T12:21:08Z</time>
      </trkpt>
      <trkpt lat="43.80864" lon="7.23608">
        <ele>613</ele>
        <time>2011-01-02T12:21:11Z</time>
      </trkpt>
      <trkpt lat="43.80869" lon="7.23595">
        <ele>612</ele>
        <time>2011-01-02T12:21:14Z</time>
      </trkpt>
      <trkpt lat="43.80878" lon="7.23584">
        <ele>610</ele>
        <time>2011-01-02T12:21:17Z</time>
      </trkpt>
      <trkpt lat="43.80884" lon="7.23573">
        <ele>609</ele>
        <time>2011-01-02T12:21:19Z</time>
      </trkpt>
      <trkpt lat="43.80891" lon="7.23558">
        <ele>581</ele>
        <time>2011-01-02T12:22:24Z</time>
      </trkpt>
      <trkpt lat="43.80891" lon="7.23558">
        <ele>581</ele>
        <time>2011-01-02T12:23:37Z</time>
      </trkpt>
      <trkpt lat="43.80876" lon="7.2355">
        <ele>558</ele>
        <time>2011-01-02T12:29:13Z</time>
      </trkpt>
      <trkpt lat="43.80879" lon="7.23553">
        <ele>559</ele>
        <time>2011-01-02T12:29:22Z</time>
      </trkpt>
      <trkpt lat="43.80888" lon="7.23551">
        <ele>561</ele>
        <time>2011-01-02T12:29:39Z</time>
      </trkpt>
      <trkpt lat="43.80891" lon="7.23539">
        <ele>562</ele>
        <time>2011-01-02T12:29:43Z</time>
      </trkpt>
      <trkpt lat="43.80898" lon="7.23525">
        <ele>564</ele>
        <time>2011-01-02T12:29:46Z</time>
      </trkpt>
      <trkpt lat="43.80903" lon="7.23514">
        <ele>564</ele>
        <time>2011-01-02T12:29:48Z</time>
      </trkpt>
      <trkpt lat="43.80911" lon="7.23503">
        <ele>564</ele>
        <time>2011-01-02T12:29:50Z</time>
      </trkpt>
      <trkpt lat="43.8092" lon="7.23499">
        <ele>565</ele>
        <time>2011-01-02T12:29:53Z</time>
      </trkpt>
      <trkpt lat="43.80923" lon="7.23497">
        <ele>565</ele>
        <time>2011-01-02T12:29:53Z</time>
      </trkpt>
      <trkpt lat="43.8093" lon="7.23488">
        <ele>565</ele>
        <time>2011-01-02T12:29:56Z</time>
      </trkpt>
      <trkpt lat="43.80939" lon="7.23479">
        <ele>565</ele>
        <time>2011-01-02T12:30:00Z</time>
      </trkpt>
      <trkpt lat="43.80949" lon="7.2347">
        <ele>564</ele>
        <time>2011-01-02T12:30:04Z</time>
      </trkpt>
      <trkpt lat="43.80956" lon="7.23462">
        <ele>564</ele>
        <time>2011-01-02T12:30:06Z</time>
      </trkpt>
      <trkpt lat="43.80967" lon="7.2346">
        <ele>564</ele>
        <time>2011-01-02T12:30:09Z</time>
      </trkpt>
      <trkpt lat="43.80977" lon="7.23456">
        <ele>563</ele>
        <time>2011-01-02T12:30:12Z</time>
      </trkpt>
      <trkpt lat="43.80987" lon="7.23454">
        <ele>562</ele>
        <time>2011-01-02T12:30:17Z</time>
      </trkpt>
      <trkpt lat="43.80996" lon="7.23455">
        <ele>561</ele>
        <time>2011-01-02T12:30:22Z</time>
      </trkpt>
      <trkpt lat="43.80996" lon="7.23442">
        <ele>561</ele>
        <time>2011-01-02T12:30:25Z</time>
      </trkpt>
      <trkpt lat="43.81004" lon="7.23433">
        <ele>559</ele>
        <time>2011-01-02T12:30:29Z</time>
      </trkpt>
      <trkpt lat="43.81014" lon="7.2343">
        <ele>558</ele>
        <time>2011-01-02T12:30:32Z</time>
      </trkpt>
      <trkpt lat="43.81019" lon="7.23417">
        <ele>556</ele>
        <time>2011-01-02T12:30:38Z</time>
      </trkpt>
      <trkpt lat="43.81028" lon="7.23405">
        <ele>548</ele>
        <time>2011-01-02T12:30:58Z</time>
      </trkpt>
      <trkpt lat="43.81033" lon="7.23392">
        <ele>548</ele>
        <time>2011-01-02T12:31:03Z</time>
      </trkpt>
      <trkpt lat="43.81039" lon="7.23382">
        <ele>548</ele>
        <time>2011-01-02T12:31:08Z</time>
      </trkpt>
      <trkpt lat="43.81047" lon="7.23374">
        <ele>546</ele>
        <time>2011-01-02T12:31:14Z</time>
      </trkpt>
      <trkpt lat="43.81055" lon="7.23371">
        <ele>546</ele>
        <time>2011-01-02T12:31:20Z</time>
      </trkpt>
      <trkpt lat="43.81064" lon="7.23365">
        <ele>547</ele>
        <time>2011-01-02T12:31:35Z</time>
      </trkpt>
      <trkpt lat="43.81068" lon="7.23352">
        <ele>547</ele>
        <time>2011-01-02T12:31:41Z</time>
      </trkpt>
      <trkpt lat="43.81074" lon="7.23341">
        <ele>547</ele>
        <time>2011-01-02T12:31:45Z</time>
      </trkpt>
      <trkpt lat="43.81079" lon="7.23338">
        <ele>548</ele>
        <time>2011-01-02T12:31:49Z</time>
      </trkpt>
      <trkpt lat="43.8109" lon="7.23334">
        <ele>549</ele>
        <time>2011-01-02T12:32:11Z</time>
      </trkpt>
      <trkpt lat="43.81091" lon="7.23333">
        <ele>548</ele>
        <time>2011-01-02T12:32:12Z</time>
      </trkpt>
      <trkpt lat="43.81096" lon="7.23322">
        <ele>549</ele>
        <time>2011-01-02T12:32:16Z</time>
      </trkpt>
      <trkpt lat="43.81102" lon="7.23311">
        <ele>548</ele>
        <time>2011-01-02T12:32:21Z</time>
      </trkpt>
      <trkpt lat="43.81101" lon="7.23298">
        <ele>550</ele>
        <time>2011-01-02T12:32:26Z</time>
      </trkpt>
      <trkpt lat="43.811" lon="7.23285">
        <ele>550</ele>
        <time>2011-01-02T12:32:30Z</time>
      </trkpt>
      <trkpt lat="43.81097" lon="7.23272">
        <ele>550</ele>
        <time>2011-01-02T12:32:35Z</time>
      </trkpt>
      <trkpt lat="43.81099" lon="7.2326">
        <ele>551</ele>
        <time>2011-01-02T12:32:42Z</time>
      </trkpt>
      <trkpt lat="43.81105" lon="7.2325">
        <ele>549</ele>
        <time>2011-01-02T12:32:56Z</time>
      </trkpt>
      <trkpt lat="43.81113" lon="7.23244">
        <ele>548</ele>
        <time>2011-01-02T12:33:01Z</time>
      </trkpt>
      <trkpt lat="43.81118" lon="7.23232">
        <ele>548</ele>
        <time>2011-01-02T12:33:05Z</time>
      </trkpt>
      <trkpt lat="43.81119" lon="7.23229">
        <ele>548</ele>
        <time>2011-01-02T12:33:06Z</time>
      </trkpt>
      <trkpt lat="43.81124" lon="7.23217">
        <ele>547</ele>
        <time>2011-01-02T12:33:14Z</time>
      </trkpt>
      <trkpt lat="43.81124" lon="7.23215">
        <ele>547</ele>
        <time>2011-01-02T12:33:15Z</time>
      </trkpt>
      <trkpt lat="43.81129" lon="7.23203">
        <ele>548</ele>
        <time>2011-01-02T12:33:24Z</time>
      </trkpt>
      <trkpt lat="43.81134" lon="7.23192">
        <ele>549</ele>
        <time>2011-01-02T12:33:31Z</time>
      </trkpt>
      <trkpt lat="43.81138" lon="7.23181">
        <ele>549</ele>
        <time>2011-01-02T12:33:38Z</time>
      </trkpt>
      <trkpt lat="43.81142" lon="7.23169">
        <ele>551</ele>
        <time>2011-01-02T12:33:47Z</time>
      </trkpt>
      <trkpt lat="43.81144" lon="7.23155">
        <ele>552</ele>
        <time>2011-01-02T12:33:55Z</time>
      </trkpt>
      <trkpt lat="43.81147" lon="7.23142">
        <ele>554</ele>
        <time>2011-01-02T12:34:02Z</time>
      </trkpt>
      <trkpt lat="43.8115" lon="7.2313">
        <ele>554</ele>
        <time>2011-01-02T12:34:08Z</time>
      </trkpt>
      <trkpt lat="43.81152" lon="7.23127">
        <ele>554</ele>
        <time>2011-01-02T12:34:10Z</time>
      </trkpt>
      <trkpt lat="43.81159" lon="7.23118">
        <ele>555</ele>
        <time>2011-01-02T12:34:17Z</time>
      </trkpt>
      <trkpt lat="43.81163" lon="7.23114">
        <ele>555</ele>
        <time>2011-01-02T12:34:24Z</time>
      </trkpt>
      <trkpt lat="43.81169" lon="7.23105">
        <ele>556</ele>
        <time>2011-01-02T12:34:36Z</time>
      </trkpt>
      <trkpt lat="43.81176" lon="7.23096">
        <ele>557</ele>
        <time>2011-01-02T12:34:43Z</time>
      </trkpt>
      <trkpt lat="43.81184" lon="7.23088">
        <ele>559</ele>
        <time>2011-01-02T12:34:50Z</time>
      </trkpt>
      <trkpt lat="43.81187" lon="7.23085">
        <ele>559</ele>
        <time>2011-01-02T12:34:53Z</time>
      </trkpt>
      <trkpt lat="43.81196" lon="7.2308">
        <ele>561</ele>
        <time>2011-01-02T12:35:02Z</time>
      </trkpt>
      <trkpt lat="43.81194" lon="7.23093">
        <ele>565</ele>
        <time>2011-01-02T12:35:11Z</time>
      </trkpt>
      <trkpt lat="43.81189" lon="7.23101">
        <ele>567</ele>
        <time>2011-01-02T12:35:17Z</time>
      </trkpt>
      <trkpt lat="43.81184" lon="7.23113">
        <ele>569</ele>
        <time>2011-01-02T12:35:24Z</time>
      </trkpt>
      <trkpt lat="43.81182" lon="7.23125">
        <ele>572</ele>
        <time>2011-01-02T12:35:33Z</time>
      </trkpt>
      <trkpt lat="43.81182" lon="7.23138">
        <ele>573</ele>
        <time>2011-01-02T12:35:40Z</time>
      </trkpt>
      <trkpt lat="43.81181" lon="7.23151">
        <ele>574</ele>
        <time>2011-01-02T12:35:47Z</time>
      </trkpt>
      <trkpt lat="43.8118" lon="7.23164">
        <ele>576</ele>
        <time>2011-01-02T12:35:54Z</time>
      </trkpt>
      <trkpt lat="43.81179" lon="7.23178">
        <ele>578</ele>
        <time>2011-01-02T12:36:02Z</time>
      </trkpt>
      <trkpt lat="43.8118" lon="7.23191">
        <ele>579</ele>
        <time>2011-01-02T12:36:09Z</time>
      </trkpt>
      <trkpt lat="43.81182" lon="7.23203">
        <ele>579</ele>
        <time>2011-01-02T12:36:15Z</time>
      </trkpt>
      <trkpt lat="43.81182" lon="7.23215">
        <ele>580</ele>
        <time>2011-01-02T12:36:21Z</time>
      </trkpt>
      <trkpt lat="43.81182" lon="7.23228">
        <ele>581</ele>
        <time>2011-01-02T12:36:29Z</time>
      </trkpt>
      <trkpt lat="43.81191" lon="7.23226">
        <ele>581</ele>
        <time>2011-01-02T12:36:38Z</time>
      </trkpt>
      <trkpt lat="43.81196" lon="7.23214">
        <ele>583</ele>
        <time>2011-01-02T12:36:45Z</time>
      </trkpt>
      <trkpt lat="43.81197" lon="7.23209">
        <ele>583</ele>
        <time>2011-01-02T12:36:48Z</time>
      </trkpt>
      <trkpt lat="43.812" lon="7.23196">
        <ele>585</ele>
        <time>2011-01-02T12:36:55Z</time>
      </trkpt>
      <trkpt lat="43.81202" lon="7.23185">
        <ele>586</ele>
        <time>2011-01-02T12:37:01Z</time>
      </trkpt>
      <trkpt lat="43.81211" lon="7.23185">
        <ele>589</ele>
        <time>2011-01-02T12:37:14Z</time>
      </trkpt>
      <trkpt lat="43.81214" lon="7.23198">
        <ele>590</ele>
        <time>2011-01-02T12:37:21Z</time>
      </trkpt>
      <trkpt lat="43.81216" lon="7.2321">
        <ele>592</ele>
        <time>2011-01-02T12:37:28Z</time>
      </trkpt>
      <trkpt lat="43.81222" lon="7.23219">
        <ele>592</ele>
        <time>2011-01-02T12:37:39Z</time>
      </trkpt>
      <trkpt lat="43.81222" lon="7.2322">
        <ele>592</ele>
        <time>2011-01-02T12:37:41Z</time>
      </trkpt>
      <trkpt lat="43.81232" lon="7.23217">
        <ele>594</ele>
        <time>2011-01-02T12:40:19Z</time>
      </trkpt>
      <trkpt lat="43.81235" lon="7.23216">
        <ele>594</ele>
        <time>2011-01-02T12:40:22Z</time>
      </trkpt>
      <trkpt lat="43.81245" lon="7.23214">
        <ele>594</ele>
        <time>2011-01-02T12:40:28Z</time>
      </trkpt>
      <trkpt lat="43.81255" lon="7.23212">
        <ele>595</ele>
        <time>2011-01-02T12:40:33Z</time>
      </trkpt>
      <trkpt lat="43.8126" lon="7.23211">
        <ele>595</ele>
        <time>2011-01-02T12:40:35Z</time>
      </trkpt>
      <trkpt lat="43.81269" lon="7.23207">
        <ele>595</ele>
        <time>2011-01-02T12:40:39Z</time>
      </trkpt>
      <trkpt lat="43.81276" lon="7.23199">
        <ele>596</ele>
        <time>2011-01-02T12:40:43Z</time>
      </trkpt>
      <trkpt lat="43.81278" lon="7.23187">
        <ele>596</ele>
        <time>2011-01-02T12:40:45Z</time>
      </trkpt>
      <trkpt lat="43.81277" lon="7.2317">
        <ele>596</ele>
        <time>2011-01-02T12:40:47Z</time>
      </trkpt>
      <trkpt lat="43.81275" lon="7.23155">
        <ele>596</ele>
        <time>2011-01-02T12:40:50Z</time>
      </trkpt>
      <trkpt lat="43.81273" lon="7.2314">
        <ele>597</ele>
        <time>2011-01-02T12:40:52Z</time>
      </trkpt>
      <trkpt lat="43.81273" lon="7.23126">
        <ele>597</ele>
        <time>2011-01-02T12:40:55Z</time>
      </trkpt>
      <trkpt lat="43.8128" lon="7.23135">
        <ele>597</ele>
        <time>2011-01-02T12:41:01Z</time>
      </trkpt>
      <trkpt lat="43.81284" lon="7.2315">
        <ele>597</ele>
        <time>2011-01-02T12:41:04Z</time>
      </trkpt>
      <trkpt lat="43.81291" lon="7.2316">
        <ele>597</ele>
        <time>2011-01-02T12:41:07Z</time>
      </trkpt>
      <trkpt lat="43.81302" lon="7.23169">
        <ele>597</ele>
        <time>2011-01-02T12:41:09Z</time>
      </trkpt>
      <trkpt lat="43.81306" lon="7.23171">
        <ele>597</ele>
        <time>2011-01-02T12:41:10Z</time>
      </trkpt>
      <trkpt lat="43.81318" lon="7.23176">
        <ele>597</ele>
        <time>2011-01-02T12:41:12Z</time>
      </trkpt>
      <trkpt lat="43.8133" lon="7.23178">
        <ele>596</ele>
        <time>2011-01-02T12:41:14Z</time>
      </trkpt>
      <trkpt lat="43.81342" lon="7.23173">
        <ele>596</ele>
        <time>2011-01-02T12:41:16Z</time>
      </trkpt>
      <trkpt lat="43.81351" lon="7.2317">
        <ele>596</ele>
        <time>2011-01-02T12:41:18Z</time>
      </trkpt>
      <trkpt lat="43.8136" lon="7.23169">
        <ele>595</ele>
        <time>2011-01-02T12:41:20Z</time>
      </trkpt>
      <trkpt lat="43.8137" lon="7.2317">
        <ele>595</ele>
        <time>2011-01-02T12:41:21Z</time>
      </trkpt>
      <trkpt lat="43.81381" lon="7.23174">
        <ele>594</ele>
        <time>2011-01-02T12:41:23Z</time>
      </trkpt>
      <trkpt lat="43.81392" lon="7.2318">
        <ele>594</ele>
        <time>2011-01-02T12:41:24Z</time>
      </trkpt>
      <trkpt lat="43.81405" lon="7.23186">
        <ele>593</ele>
        <time>2011-01-02T12:41:26Z</time>
      </trkpt>
      <trkpt lat="43.81418" lon="7.23194">
        <ele>593</ele>
        <time>2011-01-02T12:41:27Z</time>
      </trkpt>
      <trkpt lat="43.8143" lon="7.23201">
        <ele>592</ele>
        <time>2011-01-02T12:41:29Z</time>
      </trkpt>
      <trkpt lat="43.81443" lon="7.23207">
        <ele>591</ele>
        <time>2011-01-02T12:41:30Z</time>
      </trkpt>
      <trkpt lat="43.81455" lon="7.23213">
        <ele>591</ele>
        <time>2011-01-02T12:41:32Z</time>
      </trkpt>
      <trkpt lat="43.81467" lon="7.23219">
        <ele>590</ele>
        <time>2011-01-02T12:41:34Z</time>
      </trkpt>
      <trkpt lat="43.81476" lon="7.23226">
        <ele>590</ele>
        <time>2011-01-02T12:41:35Z</time>
      </trkpt>
      <trkpt lat="43.81484" lon="7.23239">
        <ele>589</ele>
        <time>2011-01-02T12:41:37Z</time>
      </trkpt>
      <trkpt lat="43.81487" lon="7.23252">
        <ele>588</ele>
        <time>2011-01-02T12:41:40Z</time>
      </trkpt>
      <trkpt lat="43.81489" lon="7.23264">
        <ele>587</ele>
        <time>2011-01-02T12:41:42Z</time>
      </trkpt>
      <trkpt lat="43.81495" lon="7.23274">
        <ele>586</ele>
        <time>2011-01-02T12:41:44Z</time>
      </trkpt>
      <trkpt lat="43.81503" lon="7.23282">
        <ele>584</ele>
        <time>2011-01-02T12:41:47Z</time>
      </trkpt>
      <trkpt lat="43.81509" lon="7.2329">
        <ele>584</ele>
        <time>2011-01-02T12:41:49Z</time>
      </trkpt>
      <trkpt lat="43.81516" lon="7.23299">
        <ele>584</ele>
        <time>2011-01-02T12:41:51Z</time>
      </trkpt>
      <trkpt lat="43.81522" lon="7.23309">
        <ele>584</ele>
        <time>2011-01-02T12:41:54Z</time>
      </trkpt>
      <trkpt lat="43.81525" lon="7.23321">
        <ele>584</ele>
        <time>2011-01-02T12:41:56Z</time>
      </trkpt>
      <trkpt lat="43.81524" lon="7.23331">
        <ele>584</ele>
        <time>2011-01-02T12:41:57Z</time>
      </trkpt>
      <trkpt lat="43.81522" lon="7.23344">
        <ele>584</ele>
        <time>2011-01-02T12:42:00Z</time>
      </trkpt>
      <trkpt lat="43.81523" lon="7.23362">
        <ele>584</ele>
        <time>2011-01-02T12:42:03Z</time>
      </trkpt>
      <trkpt lat="43.81527" lon="7.23376">
        <ele>584</ele>
        <time>2011-01-02T12:42:04Z</time>
      </trkpt>
      <trkpt lat="43.81533" lon="7.23392">
        <ele>584</ele>
        <time>2011-01-02T12:42:06Z</time>
      </trkpt>
      <trkpt lat="43.81539" lon="7.23408">
        <ele>583</ele>
        <time>2011-01-02T12:42:07Z</time>
      </trkpt>
      <trkpt lat="43.81543" lon="7.23423">
        <ele>583</ele>
        <time>2011-01-02T12:42:09Z</time>
      </trkpt>
      <trkpt lat="43.81547" lon="7.23435">
        <ele>582</ele>
        <time>2011-01-02T12:42:10Z</time>
      </trkpt>
      <trkpt lat="43.81551" lon="7.23447">
        <ele>581</ele>
        <time>2011-01-02T12:42:12Z</time>
      </trkpt>
      <trkpt lat="43.81554" lon="7.23462">
        <ele>581</ele>
        <time>2011-01-02T12:42:14Z</time>
      </trkpt>
      <trkpt lat="43.81556" lon="7.23478">
        <ele>580</ele>
        <time>2011-01-02T12:42:16Z</time>
      </trkpt>
      <trkpt lat="43.81556" lon="7.23493">
        <ele>579</ele>
        <time>2011-01-02T12:42:19Z</time>
      </trkpt>
      <trkpt lat="43.81552" lon="7.23508">
        <ele>579</ele>
        <time>2011-01-02T12:42:21Z</time>
      </trkpt>
      <trkpt lat="43.81548" lon="7.23521">
        <ele>579</ele>
        <time>2011-01-02T12:42:23Z</time>
      </trkpt>
      <trkpt lat="43.81545" lon="7.23536">
        <ele>579</ele>
        <time>2011-01-02T12:42:26Z</time>
      </trkpt>
      <trkpt lat="43.81539" lon="7.2355">
        <ele>580</ele>
        <time>2011-01-02T12:42:28Z</time>
      </trkpt>
      <trkpt lat="43.81534" lon="7.23565">
        <ele>581</ele>
        <time>2011-01-02T12:42:30Z</time>
      </trkpt>
      <trkpt lat="43.81534" lon="7.23582">
        <ele>580</ele>
        <time>2011-01-02T12:42:32Z</time>
      </trkpt>
      <trkpt lat="43.81534" lon="7.23595">
        <ele>579</ele>
        <time>2011-01-02T12:42:35Z</time>
      </trkpt>
      <trkpt lat="43.81534" lon="7.23611">
        <ele>579</ele>
        <time>2011-01-02T12:42:37Z</time>
      </trkpt>
      <trkpt lat="43.81534" lon="7.23624">
        <ele>579</ele>
        <time>2011-01-02T12:42:38Z</time>
      </trkpt>
      <trkpt lat="43.81535" lon="7.23638">
        <ele>579</ele>
        <time>2011-01-02T12:42:40Z</time>
      </trkpt>
      <trkpt lat="43.81536" lon="7.23652">
        <ele>578</ele>
        <time>2011-01-02T12:42:41Z</time>
      </trkpt>
      <trkpt lat="43.81539" lon="7.23667">
        <ele>579</ele>
        <time>2011-01-02T12:42:43Z</time>
      </trkpt>
      <trkpt lat="43.81543" lon="7.23681">
        <ele>579</ele>
        <time>2011-01-02T12:42:44Z</time>
      </trkpt>
      <trkpt lat="43.81547" lon="7.23695">
        <ele>580</ele>
        <time>2011-01-02T12:42:46Z</time>
      </trkpt>
      <trkpt lat="43.8155" lon="7.23712">
        <ele>580</ele>
        <time>2011-01-02T12:42:48Z</time>
      </trkpt>
      <trkpt lat="43.81546" lon="7.23726">
        <ele>580</ele>
        <time>2011-01-02T12:42:51Z</time>
      </trkpt>
      <trkpt lat="43.81538" lon="7.23736">
        <ele>580</ele>
        <time>2011-01-02T12:42:54Z</time>
      </trkpt>
      <trkpt lat="43.81532" lon="7.23747">
        <ele>577</ele>
        <time>2011-01-02T12:42:58Z</time>
      </trkpt>
      <trkpt lat="43.81529" lon="7.23751">
        <ele>576</ele>
        <time>2011-01-02T12:42:59Z</time>
      </trkpt>
      <trkpt lat="43.81523" lon="7.23761">
        <ele>571</ele>
        <time>2011-01-02T12:43:04Z</time>
      </trkpt>
      <trkpt lat="43.81521" lon="7.23764">
        <ele>571</ele>
        <time>2011-01-02T12:43:06Z</time>
      </trkpt>
      <trkpt lat="43.81513" lon="7.23772">
        <ele>569</ele>
        <time>2011-01-02T12:43:12Z</time>
      </trkpt>
      <trkpt lat="43.81505" lon="7.23778">
        <ele>568</ele>
        <time>2011-01-02T12:43:17Z</time>
      </trkpt>
      <trkpt lat="43.81496" lon="7.23785">
        <ele>567</ele>
        <time>2011-01-02T12:43:22Z</time>
      </trkpt>
      <trkpt lat="43.81487" lon="7.23793">
        <ele>566</ele>
        <time>2011-01-02T12:43:28Z</time>
      </trkpt>
      <trkpt lat="43.81478" lon="7.238">
        <ele>566</ele>
        <time>2011-01-02T12:43:33Z</time>
      </trkpt>
      <trkpt lat="43.8147" lon="7.23807">
        <ele>567</ele>
        <time>2011-01-02T12:43:38Z</time>
      </trkpt>
      <trkpt lat="43.81461" lon="7.23814">
        <ele>567</ele>
        <time>2011-01-02T12:43:44Z</time>
      </trkpt>
      <trkpt lat="43.81453" lon="7.2382">
        <ele>568</ele>
        <time>2011-01-02T12:43:49Z</time>
      </trkpt>
      <trkpt lat="43.81444" lon="7.23826">
        <ele>569</ele>
        <time>2011-01-02T12:43:54Z</time>
      </trkpt>
      <trkpt lat="43.81439" lon="7.23829">
        <ele>569</ele>
        <time>2011-01-02T12:43:58Z</time>
      </trkpt>
      <trkpt lat="43.8143" lon="7.23834">
        <ele>569</ele>
        <time>2011-01-02T12:44:03Z</time>
      </trkpt>
      <trkpt lat="43.81426" lon="7.23837">
        <ele>570</ele>
        <time>2011-01-02T12:44:06Z</time>
      </trkpt>
      <trkpt lat="43.81418" lon="7.23843">
        <ele>571</ele>
        <time>2011-01-02T12:44:12Z</time>
      </trkpt>
      <trkpt lat="43.81409" lon="7.23851">
        <ele>571</ele>
        <time>2011-01-02T12:44:19Z</time>
      </trkpt>
      <trkpt lat="43.81401" lon="7.23856">
        <ele>571</ele>
        <time>2011-01-02T12:44:25Z</time>
      </trkpt>
      <trkpt lat="43.81392" lon="7.23861">
        <ele>572</ele>
        <time>2011-01-02T12:44:31Z</time>
      </trkpt>
      <trkpt lat="43.81383" lon="7.23867">
        <ele>573</ele>
        <time>2011-01-02T12:44:37Z</time>
      </trkpt>
      <trkpt lat="43.81376" lon="7.23877">
        <ele>573</ele>
        <time>2011-01-02T12:44:42Z</time>
      </trkpt>
      <trkpt lat="43.81375" lon="7.23892">
        <ele>574</ele>
        <time>2011-01-02T12:44:48Z</time>
      </trkpt>
      <trkpt lat="43.8138" lon="7.23903">
        <ele>575</ele>
        <time>2011-01-02T12:44:54Z</time>
      </trkpt>
      <trkpt lat="43.81387" lon="7.23913">
        <ele>579</ele>
        <time>2011-01-02T12:44:59Z</time>
      </trkpt>
      <trkpt lat="43.81394" lon="7.23924">
        <ele>581</ele>
        <time>2011-01-02T12:45:04Z</time>
      </trkpt>
      <trkpt lat="43.81401" lon="7.23933">
        <ele>585</ele>
        <time>2011-01-02T12:45:08Z</time>
      </trkpt>
      <trkpt lat="43.81408" lon="7.23941">
        <ele>587</ele>
        <time>2011-01-02T12:45:12Z</time>
      </trkpt>
      <trkpt lat="43.81416" lon="7.23951">
        <ele>589</ele>
        <time>2011-01-02T12:45:16Z</time>
      </trkpt>
      <trkpt lat="43.81422" lon="7.23959">
        <ele>590</ele>
        <time>2011-01-02T12:45:20Z</time>
      </trkpt>
      <trkpt lat="43.81429" lon="7.23968">
        <ele>592</ele>
        <time>2011-01-02T12:45:25Z</time>
      </trkpt>
      <trkpt lat="43.81437" lon="7.23975">
        <ele>592</ele>
        <time>2011-01-02T12:45:30Z</time>
      </trkpt>
      <trkpt lat="43.81444" lon="7.23983">
        <ele>593</ele>
        <time>2011-01-02T12:45:35Z</time>
      </trkpt>
      <trkpt lat="43.81452" lon="7.23992">
        <ele>595</ele>
        <time>2011-01-02T12:45:39Z</time>
      </trkpt>
      <trkpt lat="43.81458" lon="7.24001">
        <ele>596</ele>
        <time>2011-01-02T12:45:44Z</time>
      </trkpt>
      <trkpt lat="43.81465" lon="7.2401">
        <ele>595</ele>
        <time>2011-01-02T12:45:48Z</time>
      </trkpt>
      <trkpt lat="43.81473" lon="7.24019">
        <ele>592</ele>
        <time>2011-01-02T12:45:53Z</time>
      </trkpt>
      <trkpt lat="43.8148" lon="7.24028">
        <ele>590</ele>
        <time>2011-01-02T12:45:59Z</time>
      </trkpt>
      <trkpt lat="43.81484" lon="7.24039">
        <ele>587</ele>
        <time>2011-01-02T12:46:04Z</time>
      </trkpt>
      <trkpt lat="43.81488" lon="7.24051">
        <ele>587</ele>
        <time>2011-01-02T12:46:11Z</time>
      </trkpt>
      <trkpt lat="43.81487" lon="7.24064">
        <ele>587</ele>
        <time>2011-01-02T12:46:18Z</time>
      </trkpt>
      <trkpt lat="43.81482" lon="7.24076">
        <ele>589</ele>
        <time>2011-01-02T12:46:23Z</time>
      </trkpt>
      <trkpt lat="43.81479" lon="7.2408">
        <ele>590</ele>
        <time>2011-01-02T12:46:25Z</time>
      </trkpt>
      <trkpt lat="43.81475" lon="7.24091">
        <ele>592</ele>
        <time>2011-01-02T12:46:32Z</time>
      </trkpt>
      <trkpt lat="43.81471" lon="7.24104">
        <ele>594</ele>
        <time>2011-01-02T12:46:39Z</time>
      </trkpt>
      <trkpt lat="43.81469" lon="7.24117">
        <ele>594</ele>
        <time>2011-01-02T12:46:46Z</time>
      </trkpt>
      <trkpt lat="43.81468" lon="7.2413">
        <ele>595</ele>
        <time>2011-01-02T12:46:52Z</time>
      </trkpt>
      <trkpt lat="43.81467" lon="7.24142">
        <ele>596</ele>
        <time>2011-01-02T12:46:57Z</time>
      </trkpt>
      <trkpt lat="43.81468" lon="7.24155">
        <ele>598</ele>
        <time>2011-01-02T12:47:02Z</time>
      </trkpt>
      <trkpt lat="43.8147" lon="7.2417">
        <ele>599</ele>
        <time>2011-01-02T12:47:06Z</time>
      </trkpt>
      <trkpt lat="43.81472" lon="7.24182">
        <ele>599</ele>
        <time>2011-01-02T12:47:11Z</time>
      </trkpt>
      <trkpt lat="43.81473" lon="7.24195">
        <ele>600</ele>
        <time>2011-01-02T12:47:16Z</time>
      </trkpt>
      <trkpt lat="43.81473" lon="7.24209">
        <ele>600</ele>
        <time>2011-01-02T12:47:23Z</time>
      </trkpt>
      <trkpt lat="43.81472" lon="7.24222">
        <ele>601</ele>
        <time>2011-01-02T12:47:30Z</time>
      </trkpt>
      <trkpt lat="43.81471" lon="7.24235">
        <ele>603</ele>
        <time>2011-01-02T12:47:37Z</time>
      </trkpt>
      <trkpt lat="43.81469" lon="7.24249">
        <ele>602</ele>
        <time>2011-01-02T12:47:44Z</time>
      </trkpt>
      <trkpt lat="43.81467" lon="7.24261">
        <ele>603</ele>
        <time>2011-01-02T12:47:51Z</time>
      </trkpt>
      <trkpt lat="43.81466" lon="7.24273">
        <ele>605</ele>
        <time>2011-01-02T12:47:57Z</time>
      </trkpt>
      <trkpt lat="43.8147" lon="7.24285">
        <ele>607</ele>
        <time>2011-01-02T12:48:02Z</time>
      </trkpt>
      <trkpt lat="43.81475" lon="7.24297">
        <ele>606</ele>
        <time>2011-01-02T12:48:07Z</time>
      </trkpt>
      <trkpt lat="43.81474" lon="7.2431">
        <ele>607</ele>
        <time>2011-01-02T12:48:11Z</time>
      </trkpt>
      <trkpt lat="43.81466" lon="7.24318">
        <ele>607</ele>
        <time>2011-01-02T12:48:15Z</time>
      </trkpt>
      <trkpt lat="43.81455" lon="7.24322">
        <ele>608</ele>
        <time>2011-01-02T12:48:18Z</time>
      </trkpt>
      <trkpt lat="43.81445" lon="7.24326">
        <ele>608</ele>
        <time>2011-01-02T12:48:21Z</time>
      </trkpt>
      <trkpt lat="43.81436" lon="7.2433">
        <ele>608</ele>
        <time>2011-01-02T12:48:23Z</time>
      </trkpt>
      <trkpt lat="43.81428" lon="7.24334">
        <ele>608</ele>
        <time>2011-01-02T12:48:25Z</time>
      </trkpt>
      <trkpt lat="43.81418" lon="7.24339">
        <ele>608</ele>
        <time>2011-01-02T12:48:28Z</time>
      </trkpt>
      <trkpt lat="43.81407" lon="7.24347">
        <ele>608</ele>
        <time>2011-01-02T12:48:31Z</time>
      </trkpt>
      <trkpt lat="43.81399" lon="7.24354">
        <ele>609</ele>
        <time>2011-01-02T12:48:33Z</time>
      </trkpt>
      <trkpt lat="43.81391" lon="7.24363">
        <ele>609</ele>
        <time>2011-01-02T12:48:36Z</time>
      </trkpt>
      <trkpt lat="43.81383" lon="7.24373">
        <ele>609</ele>
        <time>2011-01-02T12:48:38Z</time>
      </trkpt>
      <trkpt lat="43.81374" lon="7.24384">
        <ele>609</ele>
        <time>2011-01-02T12:48:40Z</time>
      </trkpt>
      <trkpt lat="43.81365" lon="7.24394">
        <ele>609</ele>
        <time>2011-01-02T12:48:42Z</time>
      </trkpt>
      <trkpt lat="43.81354" lon="7.24405">
        <ele>609</ele>
        <time>2011-01-02T12:48:45Z</time>
      </trkpt>
      <trkpt lat="43.81346" lon="7.24412">
        <ele>610</ele>
        <time>2011-01-02T12:48:46Z</time>
      </trkpt>
      <trkpt lat="43.81339" lon="7.24421">
        <ele>609</ele>
        <time>2011-01-02T12:48:48Z</time>
      </trkpt>
      <trkpt lat="43.81331" lon="7.24431">
        <ele>609</ele>
        <time>2011-01-02T12:48:49Z</time>
      </trkpt>
      <trkpt lat="43.81324" lon="7.24441">
        <ele>610</ele>
        <time>2011-01-02T12:48:51Z</time>
      </trkpt>
      <trkpt lat="43.81317" lon="7.24452">
        <ele>610</ele>
        <time>2011-01-02T12:48:52Z</time>
      </trkpt>
      <trkpt lat="43.81309" lon="7.24464">
        <ele>610</ele>
        <time>2011-01-02T12:48:54Z</time>
      </trkpt>
      <trkpt lat="43.81302" lon="7.24475">
        <ele>611</ele>
        <time>2011-01-02T12:48:55Z</time>
      </trkpt>
      <trkpt lat="43.81295" lon="7.24487">
        <ele>611</ele>
        <time>2011-01-02T12:48:57Z</time>
      </trkpt>
      <trkpt lat="43.81283" lon="7.24494">
        <ele>610</ele>
        <time>2011-01-02T12:48:59Z</time>
      </trkpt>
      <trkpt lat="43.81272" lon="7.24494">
        <ele>610</ele>
        <time>2011-01-02T12:49:01Z</time>
      </trkpt>
      <trkpt lat="43.81262" lon="7.24497">
        <ele>610</ele>
        <time>2011-01-02T12:49:04Z</time>
      </trkpt>
      <trkpt lat="43.81256" lon="7.24501">
        <ele>609</ele>
        <time>2011-01-02T12:49:06Z</time>
      </trkpt>
      <trkpt lat="43.81252" lon="7.24514">
        <ele>608</ele>
        <time>2011-01-02T12:49:10Z</time>
      </trkpt>
      <trkpt lat="43.81254" lon="7.2453">
        <ele>607</ele>
        <time>2011-01-02T12:49:13Z</time>
      </trkpt>
      <trkpt lat="43.81257" lon="7.24544">
        <ele>607</ele>
        <time>2011-01-02T12:49:16Z</time>
      </trkpt>
      <trkpt lat="43.81259" lon="7.24548">
        <ele>607</ele>
        <time>2011-01-02T12:49:16Z</time>
      </trkpt>
      <trkpt lat="43.81265" lon="7.24563">
        <ele>606</ele>
        <time>2011-01-02T12:49:19Z</time>
      </trkpt>
      <trkpt lat="43.8127" lon="7.24577">
        <ele>605</ele>
        <time>2011-01-02T12:49:21Z</time>
      </trkpt>
      <trkpt lat="43.81271" lon="7.24592">
        <ele>604</ele>
        <time>2011-01-02T12:49:23Z</time>
      </trkpt>
      <trkpt lat="43.8127" lon="7.24607">
        <ele>603</ele>
        <time>2011-01-02T12:49:26Z</time>
      </trkpt>
      <trkpt lat="43.81269" lon="7.2462">
        <ele>603</ele>
        <time>2011-01-02T12:49:28Z</time>
      </trkpt>
      <trkpt lat="43.81267" lon="7.24633">
        <ele>603</ele>
        <time>2011-01-02T12:49:30Z</time>
      </trkpt>
      <trkpt lat="43.81265" lon="7.24644">
        <ele>604</ele>
        <time>2011-01-02T12:49:33Z</time>
      </trkpt>
      <trkpt lat="43.81259" lon="7.24658">
        <ele>605</ele>
        <time>2011-01-02T12:49:36Z</time>
      </trkpt>
      <trkpt lat="43.81252" lon="7.24666">
        <ele>606</ele>
        <time>2011-01-02T12:49:39Z</time>
      </trkpt>
      <trkpt lat="43.81243" lon="7.24673">
        <ele>606</ele>
        <time>2011-01-02T12:49:42Z</time>
      </trkpt>
      <trkpt lat="43.81233" lon="7.2468">
        <ele>604</ele>
        <time>2011-01-02T12:49:46Z</time>
      </trkpt>
      <trkpt lat="43.81224" lon="7.24684">
        <ele>603</ele>
        <time>2011-01-02T12:49:49Z</time>
      </trkpt>
      <trkpt lat="43.81215" lon="7.24688">
        <ele>602</ele>
        <time>2011-01-02T12:49:52Z</time>
      </trkpt>
      <trkpt lat="43.81205" lon="7.24692">
        <ele>601</ele>
        <time>2011-01-02T12:49:55Z</time>
      </trkpt>
      <trkpt lat="43.81195" lon="7.247">
        <ele>601</ele>
        <time>2011-01-02T12:49:58Z</time>
      </trkpt>
      <trkpt lat="43.81186" lon="7.2471">
        <ele>601</ele>
        <time>2011-01-02T12:50:02Z</time>
      </trkpt>
      <trkpt lat="43.81187" lon="7.24723">
        <ele>600</ele>
        <time>2011-01-02T12:50:05Z</time>
      </trkpt>
      <trkpt lat="43.81194" lon="7.24734">
        <ele>600</ele>
        <time>2011-01-02T12:50:08Z</time>
      </trkpt>
      <trkpt lat="43.81197" lon="7.24738">
        <ele>600</ele>
        <time>2011-01-02T12:50:08Z</time>
      </trkpt>
      <trkpt lat="43.81203" lon="7.24751">
        <ele>600</ele>
        <time>2011-01-02T12:50:11Z</time>
      </trkpt>
      <trkpt lat="43.81209" lon="7.24766">
        <ele>599</ele>
        <time>2011-01-02T12:50:13Z</time>
      </trkpt>
      <trkpt lat="43.81217" lon="7.24778">
        <ele>598</ele>
        <time>2011-01-02T12:50:15Z</time>
      </trkpt>
      <trkpt lat="43.81223" lon="7.24789">
        <ele>597</ele>
        <time>2011-01-02T12:50:18Z</time>
      </trkpt>
      <trkpt lat="43.81224" lon="7.24802">
        <ele>596</ele>
        <time>2011-01-02T12:50:22Z</time>
      </trkpt>
      <trkpt lat="43.81224" lon="7.24805">
        <ele>596</ele>
        <time>2011-01-02T12:50:23Z</time>
      </trkpt>
      <trkpt lat="43.81221" lon="7.24818">
        <ele>595</ele>
        <time>2011-01-02T12:50:27Z</time>
      </trkpt>
      <trkpt lat="43.81217" lon="7.24828">
        <ele>594</ele>
        <time>2011-01-02T12:50:32Z</time>
      </trkpt>
      <trkpt lat="43.81211" lon="7.24839">
        <ele>593</ele>
        <time>2011-01-02T12:50:36Z</time>
      </trkpt>
      <trkpt lat="43.8121" lon="7.24841">
        <ele>592</ele>
        <time>2011-01-02T12:50:37Z</time>
      </trkpt>
      <trkpt lat="43.81207" lon="7.24854">
        <ele>591</ele>
        <time>2011-01-02T12:50:43Z</time>
      </trkpt>
      <trkpt lat="43.81207" lon="7.24867">
        <ele>591</ele>
        <time>2011-01-02T12:50:48Z</time>
      </trkpt>
      <trkpt lat="43.81208" lon="7.2488">
        <ele>592</ele>
        <time>2011-01-02T12:50:54Z</time>
      </trkpt>
      <trkpt lat="43.81207" lon="7.24892">
        <ele>592</ele>
        <time>2011-01-02T12:50:58Z</time>
      </trkpt>
      <trkpt lat="43.81209" lon="7.24905">
        <ele>592</ele>
        <time>2011-01-02T12:51:04Z</time>
      </trkpt>
      <trkpt lat="43.81214" lon="7.24913">
        <ele>591</ele>
        <time>2011-01-02T12:51:08Z</time>
      </trkpt>
      <trkpt lat="43.81221" lon="7.24922">
        <ele>591</ele>
        <time>2011-01-02T12:51:15Z</time>
      </trkpt>
      <trkpt lat="43.81227" lon="7.24928">
        <ele>591</ele>
        <time>2011-01-02T12:51:19Z</time>
      </trkpt>
      <trkpt lat="43.81233" lon="7.24937">
        <ele>591</ele>
        <time>2011-01-02T12:51:25Z</time>
      </trkpt>
      <trkpt lat="43.81234" lon="7.2495">
        <ele>593</ele>
        <time>2011-01-02T12:51:32Z</time>
      </trkpt>
      <trkpt lat="43.81234" lon="7.24962">
        <ele>593</ele>
        <time>2011-01-02T12:51:38Z</time>
      </trkpt>
      <trkpt lat="43.81235" lon="7.24975">
        <ele>594</ele>
        <time>2011-01-02T12:51:44Z</time>
      </trkpt>
      <trkpt lat="43.81241" lon="7.24985">
        <ele>595</ele>
        <time>2011-01-02T12:51:51Z</time>
      </trkpt>
      <trkpt lat="43.81248" lon="7.24994">
        <ele>595</ele>
        <time>2011-01-02T12:51:58Z</time>
      </trkpt>
      <trkpt lat="43.81255" lon="7.25001">
        <ele>596</ele>
        <time>2011-01-02T12:52:05Z</time>
      </trkpt>
      <trkpt lat="43.81264" lon="7.25008">
        <ele>597</ele>
        <time>2011-01-02T12:52:11Z</time>
      </trkpt>
      <trkpt lat="43.81268" lon="7.2502">
        <ele>598</ele>
        <time>2011-01-02T12:52:19Z</time>
      </trkpt>
      <trkpt lat="43.81267" lon="7.25034">
        <ele>599</ele>
        <time>2011-01-02T12:52:26Z</time>
      </trkpt>
      <trkpt lat="43.81265" lon="7.25046">
        <ele>600</ele>
        <time>2011-01-02T12:52:32Z</time>
      </trkpt>
      <trkpt lat="43.81263" lon="7.25059">
        <ele>601</ele>
        <time>2011-01-02T12:52:38Z</time>
      </trkpt>
      <trkpt lat="43.8126" lon="7.25069">
        <ele>601</ele>
        <time>2011-01-02T12:52:43Z</time>
      </trkpt>
      <trkpt lat="43.81258" lon="7.25082">
        <ele>601</ele>
        <time>2011-01-02T12:52:51Z</time>
      </trkpt>
      <trkpt lat="43.81261" lon="7.25095">
        <ele>602</ele>
        <time>2011-01-02T12:53:01Z</time>
      </trkpt>
      <trkpt lat="43.8127" lon="7.25101">
        <ele>604</ele>
        <time>2011-01-02T12:53:09Z</time>
      </trkpt>
      <trkpt lat="43.81279" lon="7.25104">
        <ele>606</ele>
        <time>2011-01-02T12:53:16Z</time>
      </trkpt>
      <trkpt lat="43.81284" lon="7.25105">
        <ele>607</ele>
        <time>2011-01-02T12:53:19Z</time>
      </trkpt>
      <trkpt lat="43.81293" lon="7.25105">
        <ele>609</ele>
        <time>2011-01-02T12:53:27Z</time>
      </trkpt>
      <trkpt lat="43.81303" lon="7.25106">
        <ele>610</ele>
        <time>2011-01-02T12:53:34Z</time>
      </trkpt>
      <trkpt lat="43.81313" lon="7.25109">
        <ele>610</ele>
        <time>2011-01-02T12:53:42Z</time>
      </trkpt>
      <trkpt lat="43.81321" lon="7.25114">
        <ele>611</ele>
        <time>2011-01-02T12:53:49Z</time>
      </trkpt>
      <trkpt lat="43.81327" lon="7.25123">
        <ele>612</ele>
        <time>2011-01-02T12:53:55Z</time>
      </trkpt>
      <trkpt lat="43.8133" lon="7.2513">
        <ele>612</ele>
        <time>2011-01-02T12:53:59Z</time>
      </trkpt>
      <trkpt lat="43.81334" lon="7.25142">
        <ele>612</ele>
        <time>2011-01-02T12:54:06Z</time>
      </trkpt>
      <trkpt lat="43.81337" lon="7.25155">
        <ele>613</ele>
        <time>2011-01-02T12:54:12Z</time>
      </trkpt>
      <trkpt lat="43.81338" lon="7.25166">
        <ele>614</ele>
        <time>2011-01-02T12:54:17Z</time>
      </trkpt>
      <trkpt lat="43.8134" lon="7.25179">
        <ele>614</ele>
        <time>2011-01-02T12:54:25Z</time>
      </trkpt>
      <trkpt lat="43.81345" lon="7.25192">
        <ele>615</ele>
        <time>2011-01-02T12:54:32Z</time>
      </trkpt>
      <trkpt lat="43.81353" lon="7.25198">
        <ele>616</ele>
        <time>2011-01-02T12:54:39Z</time>
      </trkpt>
      <trkpt lat="43.81362" lon="7.25197">
        <ele>617</ele>
        <time>2011-01-02T12:54:45Z</time>
      </trkpt>
      <trkpt lat="43.81371" lon="7.25192">
        <ele>617</ele>
        <time>2011-01-02T12:54:52Z</time>
      </trkpt>
      <trkpt lat="43.8138" lon="7.25189">
        <ele>618</ele>
        <time>2011-01-02T12:54:58Z</time>
      </trkpt>
      <trkpt lat="43.81388" lon="7.25185">
        <ele>618</ele>
        <time>2011-01-02T12:55:04Z</time>
      </trkpt>
      <trkpt lat="43.81398" lon="7.25184">
        <ele>619</ele>
        <time>2011-01-02T12:55:10Z</time>
      </trkpt>
      <trkpt lat="43.81408" lon="7.25184">
        <ele>621</ele>
        <time>2011-01-02T12:55:16Z</time>
      </trkpt>
      <trkpt lat="43.81418" lon="7.25184">
        <ele>622</ele>
        <time>2011-01-02T12:55:22Z</time>
      </trkpt>
      <trkpt lat="43.81427" lon="7.25183">
        <ele>623</ele>
        <time>2011-01-02T12:55:28Z</time>
      </trkpt>
      <trkpt lat="43.81436" lon="7.25181">
        <ele>624</ele>
        <time>2011-01-02T12:55:34Z</time>
      </trkpt>
      <trkpt lat="43.81445" lon="7.25177">
        <ele>626</ele>
        <time>2011-01-02T12:55:40Z</time>
      </trkpt>
      <trkpt lat="43.81454" lon="7.25173">
        <ele>627</ele>
        <time>2011-01-02T12:55:46Z</time>
      </trkpt>
      <trkpt lat="43.81464" lon="7.2517">
        <ele>628</ele>
        <time>2011-01-02T12:55:53Z</time>
      </trkpt>
      <trkpt lat="43.81466" lon="7.2517">
        <ele>628</ele>
        <time>2011-01-02T12:55:54Z</time>
      </trkpt>
      <trkpt lat="43.81475" lon="7.25169">
        <ele>629</ele>
        <time>2011-01-02T12:56:01Z</time>
      </trkpt>
      <trkpt lat="43.81476" lon="7.25169">
        <ele>629</ele>
        <time>2011-01-02T12:56:01Z</time>
      </trkpt>
      <trkpt lat="43.81485" lon="7.25171">
        <ele>630</ele>
        <time>2011-01-02T12:56:08Z</time>
      </trkpt>
      <trkpt lat="43.81494" lon="7.25178">
        <ele>632</ele>
        <time>2011-01-02T12:56:16Z</time>
      </trkpt>
      <trkpt lat="43.81495" lon="7.25179">
        <ele>632</ele>
        <time>2011-01-02T12:56:16Z</time>
      </trkpt>
      <trkpt lat="43.81502" lon="7.25187">
        <ele>632</ele>
        <time>2011-01-02T12:56:24Z</time>
      </trkpt>
      <trkpt lat="43.81511" lon="7.25193">
        <ele>633</ele>
        <time>2011-01-02T12:56:31Z</time>
      </trkpt>
      <trkpt lat="43.81519" lon="7.25196">
        <ele>634</ele>
        <time>2011-01-02T12:56:39Z</time>
      </trkpt>
      <trkpt lat="43.81528" lon="7.25202">
        <ele>635</ele>
        <time>2011-01-02T12:56:47Z</time>
      </trkpt>
      <trkpt lat="43.81537" lon="7.25208">
        <ele>635</ele>
        <time>2011-01-02T12:56:54Z</time>
      </trkpt>
      <trkpt lat="43.81543" lon="7.25212">
        <ele>636</ele>
        <time>2011-01-02T12:56:59Z</time>
      </trkpt>
      <trkpt lat="43.81552" lon="7.25215">
        <ele>637</ele>
        <time>2011-01-02T12:57:06Z</time>
      </trkpt>
      <trkpt lat="43.81555" lon="7.25218">
        <ele>637</ele>
        <time>2011-01-02T12:57:09Z</time>
      </trkpt>
      <trkpt lat="43.81565" lon="7.25222">
        <ele>637</ele>
        <time>2011-01-02T12:57:15Z</time>
      </trkpt>
      <trkpt lat="43.8157" lon="7.25226">
        <ele>638</ele>
        <time>2011-01-02T12:57:20Z</time>
      </trkpt>
      <trkpt lat="43.81579" lon="7.2523">
        <ele>639</ele>
        <time>2011-01-02T12:57:28Z</time>
      </trkpt>
      <trkpt lat="43.81587" lon="7.25237">
        <ele>640</ele>
        <time>2011-01-02T12:57:37Z</time>
      </trkpt>
      <trkpt lat="43.81594" lon="7.25246">
        <ele>640</ele>
        <time>2011-01-02T12:57:44Z</time>
      </trkpt>
      <trkpt lat="43.81596" lon="7.25249">
        <ele>640</ele>
        <time>2011-01-02T12:57:45Z</time>
      </trkpt>
      <trkpt lat="43.81603" lon="7.25256">
        <ele>641</ele>
        <time>2011-01-02T12:57:51Z</time>
      </trkpt>
      <trkpt lat="43.81609" lon="7.25262">
        <ele>641</ele>
        <time>2011-01-02T12:57:56Z</time>
      </trkpt>
      <trkpt lat="43.81618" lon="7.25267">
        <ele>642</ele>
        <time>2011-01-02T12:58:02Z</time>
      </trkpt>
      <trkpt lat="43.81626" lon="7.25275">
        <ele>643</ele>
        <time>2011-01-02T12:58:08Z</time>
      </trkpt>
      <trkpt lat="43.81632" lon="7.25285">
        <ele>643</ele>
        <time>2011-01-02T12:58:15Z</time>
      </trkpt>
      <trkpt lat="43.81635" lon="7.25289">
        <ele>644</ele>
        <time>2011-01-02T12:58:17Z</time>
      </trkpt>
      <trkpt lat="43.8164" lon="7.25301">
        <ele>644</ele>
        <time>2011-01-02T12:58:23Z</time>
      </trkpt>
      <trkpt lat="43.81644" lon="7.25312">
        <ele>644</ele>
        <time>2011-01-02T12:58:30Z</time>
      </trkpt>
      <trkpt lat="43.81649" lon="7.25323">
        <ele>645</ele>
        <time>2011-01-02T12:58:36Z</time>
      </trkpt>
      <trkpt lat="43.81653" lon="7.25335">
        <ele>645</ele>
        <time>2011-01-02T12:58:43Z</time>
      </trkpt>
      <trkpt lat="43.81657" lon="7.25347">
        <ele>646</ele>
        <time>2011-01-02T12:58:50Z</time>
      </trkpt>
      <trkpt lat="43.81662" lon="7.25358">
        <ele>647</ele>
        <time>2011-01-02T12:58:56Z</time>
      </trkpt>
      <trkpt lat="43.81663" lon="7.25362">
        <ele>647</ele>
        <time>2011-01-02T12:58:59Z</time>
      </trkpt>
      <trkpt lat="43.81668" lon="7.25374">
        <ele>648</ele>
        <time>2011-01-02T12:59:05Z</time>
      </trkpt>
      <trkpt lat="43.81669" lon="7.25377">
        <ele>648</ele>
        <time>2011-01-02T12:59:06Z</time>
      </trkpt>
      <trkpt lat="43.81674" lon="7.25389">
        <ele>648</ele>
        <time>2011-01-02T12:59:12Z</time>
      </trkpt>
      <trkpt lat="43.81679" lon="7.25399">
        <ele>648</ele>
        <time>2011-01-02T12:59:18Z</time>
      </trkpt>
      <trkpt lat="43.81683" lon="7.25406">
        <ele>648</ele>
        <time>2011-01-02T12:59:22Z</time>
      </trkpt>
      <trkpt lat="43.81689" lon="7.25416">
        <ele>649</ele>
        <time>2011-01-02T12:59:28Z</time>
      </trkpt>
      <trkpt lat="43.81695" lon="7.25426">
        <ele>650</ele>
        <time>2011-01-02T12:59:34Z</time>
      </trkpt>
      <trkpt lat="43.817" lon="7.25437">
        <ele>651</ele>
        <time>2011-01-02T12:59:40Z</time>
      </trkpt>
      <trkpt lat="43.81705" lon="7.25447">
        <ele>652</ele>
        <time>2011-01-02T12:59:46Z</time>
      </trkpt>
      <trkpt lat="43.8171" lon="7.25458">
        <ele>652</ele>
        <time>2011-01-02T12:59:53Z</time>
      </trkpt>
      <trkpt lat="43.81717" lon="7.25467">
        <ele>655</ele>
        <time>2011-01-02T13:00:14Z</time>
      </trkpt>
      <trkpt lat="43.81719" lon="7.25465">
        <ele>655</ele>
        <time>2011-01-02T13:00:32Z</time>
      </trkpt>
      <trkpt lat="43.81712" lon="7.25456">
        <ele>656</ele>
        <time>2011-01-02T13:01:29Z</time>
      </trkpt>
      <trkpt lat="43.81711" lon="7.25454">
        <ele>660</ele>
        <time>2011-01-02T13:02:20Z</time>
      </trkpt>
      <trkpt lat="43.81702" lon="7.25459">
        <ele>665</ele>
        <time>2011-01-02T13:03:39Z</time>
      </trkpt>
      <trkpt lat="43.81694" lon="7.25452">
        <ele>665</ele>
        <time>2011-01-02T13:03:45Z</time>
      </trkpt>
      <trkpt lat="43.81686" lon="7.25444">
        <ele>666</ele>
        <time>2011-01-02T13:03:53Z</time>
      </trkpt>
      <trkpt lat="43.81678" lon="7.25436">
        <ele>666</ele>
        <time>2011-01-02T13:04:01Z</time>
      </trkpt>
      <trkpt lat="43.81671" lon="7.25428">
        <ele>667</ele>
        <time>2011-01-02T13:04:08Z</time>
      </trkpt>
      <trkpt lat="43.81664" lon="7.2542">
        <ele>668</ele>
        <time>2011-01-02T13:04:16Z</time>
      </trkpt>
      <trkpt lat="43.81656" lon="7.25412">
        <ele>669</ele>
        <time>2011-01-02T13:04:23Z</time>
      </trkpt>
      <trkpt lat="43.81655" lon="7.25411">
        <ele>669</ele>
        <time>2011-01-02T13:04:24Z</time>
      </trkpt>
      <trkpt lat="43.81647" lon="7.25405">
        <ele>670</ele>
        <time>2011-01-02T13:04:33Z</time>
      </trkpt>
      <trkpt lat="43.81639" lon="7.25399">
        <ele>673</ele>
        <time>2011-01-02T13:04:52Z</time>
      </trkpt>
      <trkpt lat="43.81631" lon="7.25388">
        <ele>681</ele>
        <time>2011-01-02T13:05:15Z</time>
      </trkpt>
      <trkpt lat="43.81623" lon="7.25381">
        <ele>685</ele>
        <time>2011-01-02T13:05:29Z</time>
      </trkpt>
      <trkpt lat="43.81616" lon="7.25373">
        <ele>687</ele>
        <time>2011-01-02T13:05:40Z</time>
      </trkpt>
      <trkpt lat="43.81608" lon="7.25367">
        <ele>687</ele>
        <time>2011-01-02T13:05:53Z</time>
      </trkpt>
      <trkpt lat="43.81599" lon="7.25365">
        <ele>688</ele>
        <time>2011-01-02T13:06:10Z</time>
      </trkpt>
      <trkpt lat="43.81593" lon="7.25356">
        <ele>690</ele>
        <time>2011-01-02T13:06:32Z</time>
      </trkpt>
      <trkpt lat="43.81585" lon="7.25348">
        <ele>695</ele>
        <time>2011-01-02T13:06:57Z</time>
      </trkpt>
      <trkpt lat="43.81577" lon="7.25343">
        <ele>698</ele>
        <time>2011-01-02T13:07:14Z</time>
      </trkpt>
      <trkpt lat="43.81569" lon="7.25341">
        <ele>699</ele>
        <time>2011-01-02T13:07:25Z</time>
      </trkpt>
      <trkpt lat="43.81559" lon="7.25338">
        <ele>700</ele>
        <time>2011-01-02T13:07:36Z</time>
      </trkpt>
      <trkpt lat="43.8155" lon="7.25334">
        <ele>700</ele>
        <time>2011-01-02T13:07:46Z</time>
      </trkpt>
      <trkpt lat="43.81541" lon="7.25338">
        <ele>700</ele>
        <time>2011-01-02T13:07:54Z</time>
      </trkpt>
      <trkpt lat="43.81532" lon="7.25342">
        <ele>702</ele>
        <time>2011-01-02T13:08:02Z</time>
      </trkpt>
      <trkpt lat="43.81524" lon="7.25349">
        <ele>703</ele>
        <time>2011-01-02T13:08:13Z</time>
      </trkpt>
      <trkpt lat="43.81516" lon="7.25355">
        <ele>704</ele>
        <time>2011-01-02T13:08:27Z</time>
      </trkpt>
      <trkpt lat="43.81515" lon="7.25355">
        <ele>704</ele>
        <time>2011-01-02T13:08:28Z</time>
      </trkpt>
      <trkpt lat="43.81507" lon="7.25359">
        <ele>708</ele>
        <time>2011-01-02T13:08:42Z</time>
      </trkpt>
      <trkpt lat="43.81506" lon="7.2536">
        <ele>709</ele>
        <time>2011-01-02T13:08:44Z</time>
      </trkpt>
      <trkpt lat="43.81497" lon="7.25365">
        <ele>711</ele>
        <time>2011-01-02T13:09:00Z</time>
      </trkpt>
      <trkpt lat="43.81494" lon="7.25368">
        <ele>713</ele>
        <time>2011-01-02T13:09:09Z</time>
      </trkpt>
      <trkpt lat="43.81486" lon="7.25373">
        <ele>716</ele>
        <time>2011-01-02T13:09:23Z</time>
      </trkpt>
      <trkpt lat="43.81477" lon="7.25377">
        <ele>719</ele>
        <time>2011-01-02T13:09:38Z</time>
      </trkpt>
      <trkpt lat="43.81475" lon="7.25378">
        <ele>719</ele>
        <time>2011-01-02T13:09:41Z</time>
      </trkpt>
      <trkpt lat="43.81466" lon="7.25381">
        <ele>721</ele>
        <time>2011-01-02T13:09:53Z</time>
      </trkpt>
      <trkpt lat="43.81462" lon="7.25383">
        <ele>723</ele>
        <time>2011-01-02T13:09:58Z</time>
      </trkpt>
      <trkpt lat="43.81453" lon="7.25387">
        <ele>724</ele>
        <time>2011-01-02T13:10:08Z</time>
      </trkpt>
      <trkpt lat="43.81451" lon="7.25388">
        <ele>725</ele>
        <time>2011-01-02T13:10:11Z</time>
      </trkpt>
      <trkpt lat="43.81443" lon="7.25394">
        <ele>726</ele>
        <time>2011-01-02T13:10:21Z</time>
      </trkpt>
      <trkpt lat="43.81433" lon="7.25396">
        <ele>728</ele>
        <time>2011-01-02T13:10:31Z</time>
      </trkpt>
      <trkpt lat="43.81423" lon="7.25395">
        <ele>728</ele>
        <time>2011-01-02T13:10:34Z</time>
      </trkpt>
      <trkpt lat="43.81412" lon="7.25395">
        <ele>728</ele>
        <time>2011-01-02T13:10:36Z</time>
      </trkpt>
      <trkpt lat="43.81399" lon="7.25394">
        <ele>728</ele>
        <time>2011-01-02T13:10:39Z</time>
      </trkpt>
      <trkpt lat="43.8139" lon="7.25393">
        <ele>728</ele>
        <time>2011-01-02T13:10:40Z</time>
      </trkpt>
      <trkpt lat="43.8138" lon="7.25391">
        <ele>728</ele>
        <time>2011-01-02T13:10:42Z</time>
      </trkpt>
      <trkpt lat="43.81371" lon="7.25389">
        <ele>728</ele>
        <time>2011-01-02T13:10:43Z</time>
      </trkpt>
      <trkpt lat="43.81362" lon="7.25387">
        <ele>727</ele>
        <time>2011-01-02T13:10:45Z</time>
      </trkpt>
      <trkpt lat="43.81349" lon="7.25383">
        <ele>727</ele>
        <time>2011-01-02T13:10:47Z</time>
      </trkpt>
      <trkpt lat="43.81337" lon="7.25379">
        <ele>727</ele>
        <time>2011-01-02T13:10:49Z</time>
      </trkpt>
      <trkpt lat="43.81325" lon="7.25374">
        <ele>727</ele>
        <time>2011-01-02T13:10:52Z</time>
      </trkpt>
      <trkpt lat="43.81315" lon="7.25372">
        <ele>727</ele>
        <time>2011-01-02T13:10:56Z</time>
      </trkpt>
      <trkpt lat="43.81314" lon="7.25372">
        <ele>727</ele>
        <time>2011-01-02T13:10:57Z</time>
      </trkpt>
      <trkpt lat="43.81305" lon="7.25371">
        <ele>727</ele>
        <time>2011-01-02T13:11:03Z</time>
      </trkpt>
      <trkpt lat="43.81297" lon="7.25371">
        <ele>727</ele>
        <time>2011-01-02T13:11:09Z</time>
      </trkpt>
      <trkpt lat="43.81288" lon="7.25368">
        <ele>727</ele>
        <time>2011-01-02T13:11:15Z</time>
      </trkpt>
      <trkpt lat="43.81281" lon="7.25366">
        <ele>728</ele>
        <time>2011-01-02T13:11:21Z</time>
      </trkpt>
      <trkpt lat="43.81272" lon="7.25362">
        <ele>728</ele>
        <time>2011-01-02T13:11:28Z</time>
      </trkpt>
      <trkpt lat="43.81263" lon="7.25359">
        <ele>729</ele>
        <time>2011-01-02T13:11:36Z</time>
      </trkpt>
      <trkpt lat="43.81255" lon="7.25355">
        <ele>729</ele>
        <time>2011-01-02T13:11:44Z</time>
      </trkpt>
      <trkpt lat="43.81251" lon="7.25344">
        <ele>731</ele>
        <time>2011-01-02T13:12:12Z</time>
      </trkpt>
      <trkpt lat="43.81241" lon="7.25343">
        <ele>733</ele>
        <time>2011-01-02T13:12:29Z</time>
      </trkpt>
      <trkpt lat="43.81231" lon="7.25342">
        <ele>734</ele>
        <time>2011-01-02T13:12:45Z</time>
      </trkpt>
      <trkpt lat="43.81223" lon="7.25337">
        <ele>737</ele>
        <time>2011-01-02T13:13:04Z</time>
      </trkpt>
      <trkpt lat="43.81223" lon="7.25337">
        <ele>737</ele>
        <time>2011-01-02T13:13:06Z</time>
      </trkpt>
      <trkpt lat="43.81213" lon="7.25332">
        <ele>739</ele>
        <time>2011-01-02T13:13:15Z</time>
      </trkpt>
      <trkpt lat="43.81204" lon="7.25331">
        <ele>740</ele>
        <time>2011-01-02T13:13:22Z</time>
      </trkpt>
      <trkpt lat="43.81194" lon="7.25329">
        <ele>741</ele>
        <time>2011-01-02T13:13:29Z</time>
      </trkpt>
      <trkpt lat="43.81185" lon="7.25327">
        <ele>742</ele>
        <time>2011-01-02T13:13:35Z</time>
      </trkpt>
      <trkpt lat="43.81175" lon="7.25323">
        <ele>743</ele>
        <time>2011-01-02T13:13:42Z</time>
      </trkpt>
      <trkpt lat="43.81166" lon="7.25318">
        <ele>743</ele>
        <time>2011-01-02T13:13:49Z</time>
      </trkpt>
      <trkpt lat="43.81162" lon="7.25314">
        <ele>743</ele>
        <time>2011-01-02T13:13:53Z</time>
      </trkpt>
      <trkpt lat="43.81154" lon="7.25307">
        <ele>744</ele>
        <time>2011-01-02T13:14:00Z</time>
      </trkpt>
      <trkpt lat="43.81147" lon="7.25298">
        <ele>746</ele>
        <time>2011-01-02T13:14:08Z</time>
      </trkpt>
      <trkpt lat="43.8114" lon="7.2529">
        <ele>747</ele>
        <time>2011-01-02T13:14:16Z</time>
      </trkpt>
      <trkpt lat="43.81131" lon="7.25285">
        <ele>748</ele>
        <time>2011-01-02T13:14:25Z</time>
      </trkpt>
      <trkpt lat="43.81122" lon="7.25281">
        <ele>749</ele>
        <time>2011-01-02T13:14:32Z</time>
      </trkpt>
      <trkpt lat="43.81114" lon="7.25275">
        <ele>750</ele>
        <time>2011-01-02T13:14:41Z</time>
      </trkpt>
      <trkpt lat="43.81105" lon="7.25269">
        <ele>751</ele>
        <time>2011-01-02T13:14:49Z</time>
      </trkpt>
      <trkpt lat="43.81098" lon="7.2526">
        <ele>752</ele>
        <time>2011-01-02T13:14:58Z</time>
      </trkpt>
      <trkpt lat="43.81089" lon="7.25254">
        <ele>753</ele>
        <time>2011-01-02T13:15:08Z</time>
      </trkpt>
      <trkpt lat="43.81081" lon="7.25249">
        <ele>753</ele>
        <time>2011-01-02T13:15:19Z</time>
      </trkpt>
      <trkpt lat="43.81072" lon="7.25246">
        <ele>756</ele>
        <time>2011-01-02T13:15:30Z</time>
      </trkpt>
      <trkpt lat="43.81064" lon="7.25239">
        <ele>759</ele>
        <time>2011-01-02T13:15:41Z</time>
      </trkpt>
      <trkpt lat="43.81064" lon="7.25238">
        <ele>759</ele>
        <time>2011-01-02T13:15:47Z</time>
      </trkpt>
      <trkpt lat="43.81059" lon="7.25228">
        <ele>769</ele>
        <time>2011-01-02T13:17:07Z</time>
      </trkpt>
      <trkpt lat="43.81052" lon="7.25219">
        <ele>770</ele>
        <time>2011-01-02T13:17:13Z</time>
      </trkpt>
      <trkpt lat="43.81045" lon="7.25209">
        <ele>771</ele>
        <time>2011-01-02T13:17:19Z</time>
      </trkpt>
      <trkpt lat="43.81042" lon="7.25205">
        <ele>771</ele>
        <time>2011-01-02T13:17:21Z</time>
      </trkpt>
      <trkpt lat="43.81035" lon="7.25194">
        <ele>771</ele>
        <time>2011-01-02T13:17:26Z</time>
      </trkpt>
      <trkpt lat="43.81032" lon="7.2519">
        <ele>771</ele>
        <time>2011-01-02T13:17:29Z</time>
      </trkpt>
      <trkpt lat="43.81025" lon="7.25181">
        <ele>772</ele>
        <time>2011-01-02T13:17:34Z</time>
      </trkpt>
      <trkpt lat="43.81018" lon="7.25172">
        <ele>772</ele>
        <time>2011-01-02T13:17:40Z</time>
      </trkpt>
      <trkpt lat="43.81009" lon="7.25164">
        <ele>773</ele>
        <time>2011-01-02T13:17:45Z</time>
      </trkpt>
      <trkpt lat="43.81003" lon="7.25156">
        <ele>774</ele>
        <time>2011-01-02T13:17:49Z</time>
      </trkpt>
      <trkpt lat="43.80996" lon="7.25145">
        <ele>774</ele>
        <time>2011-01-02T13:17:54Z</time>
      </trkpt>
      <trkpt lat="43.80989" lon="7.25134">
        <ele>774</ele>
        <time>2011-01-02T13:17:59Z</time>
      </trkpt>
      <trkpt lat="43.80987" lon="7.25132">
        <ele>775</ele>
        <time>2011-01-02T13:18:00Z</time>
      </trkpt>
      <trkpt lat="43.80981" lon="7.25123">
        <ele>775</ele>
        <time>2011-01-02T13:18:06Z</time>
      </trkpt>
      <trkpt lat="43.80973" lon="7.25114">
        <ele>775</ele>
        <time>2011-01-02T13:18:12Z</time>
      </trkpt>
      <trkpt lat="43.80966" lon="7.25106">
        <ele>776</ele>
        <time>2011-01-02T13:18:18Z</time>
      </trkpt>
      <trkpt lat="43.80958" lon="7.25099">
        <ele>777</ele>
        <time>2011-01-02T13:18:24Z</time>
      </trkpt>
      <trkpt lat="43.8095" lon="7.25092">
        <ele>778</ele>
        <time>2011-01-02T13:18:32Z</time>
      </trkpt>
      <trkpt lat="43.80948" lon="7.25091">
        <ele>778</ele>
        <time>2011-01-02T13:18:33Z</time>
      </trkpt>
      <trkpt lat="43.8094" lon="7.25084">
        <ele>779</ele>
        <time>2011-01-02T13:18:40Z</time>
      </trkpt>
      <trkpt lat="43.80931" lon="7.25078">
        <ele>780</ele>
        <time>2011-01-02T13:18:47Z</time>
      </trkpt>
      <trkpt lat="43.80921" lon="7.25075">
        <ele>781</ele>
        <time>2011-01-02T13:18:53Z</time>
      </trkpt>
      <trkpt lat="43.80911" lon="7.25072">
        <ele>781</ele>
        <time>2011-01-02T13:18:59Z</time>
      </trkpt>
      <trkpt lat="43.80902" lon="7.25067">
        <ele>781</ele>
        <time>2011-01-02T13:19:04Z</time>
      </trkpt>
      <trkpt lat="43.80892" lon="7.25067">
        <ele>781</ele>
        <time>2011-01-02T13:19:09Z</time>
      </trkpt>
      <trkpt lat="43.80881" lon="7.25066">
        <ele>782</ele>
        <time>2011-01-02T13:19:13Z</time>
      </trkpt>
      <trkpt lat="43.80873" lon="7.25062">
        <ele>782</ele>
        <time>2011-01-02T13:19:18Z</time>
      </trkpt>
      <trkpt lat="43.80864" lon="7.25057">
        <ele>784</ele>
        <time>2011-01-02T13:19:23Z</time>
      </trkpt>
      <trkpt lat="43.80854" lon="7.25052">
        <ele>784</ele>
        <time>2011-01-02T13:19:28Z</time>
      </trkpt>
      <trkpt lat="43.80847" lon="7.25044">
        <ele>786</ele>
        <time>2011-01-02T13:19:48Z</time>
      </trkpt>
      <trkpt lat="43.80837" lon="7.25043">
        <ele>790</ele>
        <time>2011-01-02T13:20:22Z</time>
      </trkpt>
      <trkpt lat="43.80837" lon="7.25043">
        <ele>791</ele>
        <time>2011-01-02T13:20:23Z</time>
      </trkpt>
      <trkpt lat="43.80829" lon="7.25053">
        <ele>792</ele>
        <time>2011-01-02T13:20:30Z</time>
      </trkpt>
      <trkpt lat="43.80828" lon="7.25055">
        <ele>792</ele>
        <time>2011-01-02T13:20:32Z</time>
      </trkpt>
      <trkpt lat="43.80821" lon="7.25064">
        <ele>793</ele>
        <time>2011-01-02T13:20:39Z</time>
      </trkpt>
      <trkpt lat="43.80815" lon="7.25073">
        <ele>794</ele>
        <time>2011-01-02T13:20:45Z</time>
      </trkpt>
      <trkpt lat="43.80808" lon="7.25082">
        <ele>795</ele>
        <time>2011-01-02T13:20:50Z</time>
      </trkpt>
      <trkpt lat="43.808" lon="7.25089">
        <ele>796</ele>
        <time>2011-01-02T13:20:56Z</time>
      </trkpt>
      <trkpt lat="43.80792" lon="7.25098">
        <ele>796</ele>
        <time>2011-01-02T13:21:01Z</time>
      </trkpt>
      <trkpt lat="43.80784" lon="7.25102">
        <ele>799</ele>
        <time>2011-01-02T13:21:15Z</time>
      </trkpt>
      <trkpt lat="43.80775" lon="7.25108">
        <ele>802</ele>
        <time>2011-01-02T13:22:16Z</time>
      </trkpt>
      <trkpt lat="43.80762" lon="7.25111">
        <ele>803</ele>
        <time>2011-01-02T13:22:19Z</time>
      </trkpt>
      <trkpt lat="43.80749" lon="7.25107">
        <ele>803</ele>
        <time>2011-01-02T13:22:21Z</time>
      </trkpt>
      <trkpt lat="43.8074" lon="7.25104">
        <ele>803</ele>
        <time>2011-01-02T13:22:22Z</time>
      </trkpt>
      <trkpt lat="43.80728" lon="7.251">
        <ele>802</ele>
        <time>2011-01-02T13:22:25Z</time>
      </trkpt>
      <trkpt lat="43.80717" lon="7.25097">
        <ele>802</ele>
        <time>2011-01-02T13:22:27Z</time>
      </trkpt>
      <trkpt lat="43.80706" lon="7.25095">
        <ele>802</ele>
        <time>2011-01-02T13:22:29Z</time>
      </trkpt>
      <trkpt lat="43.80696" lon="7.25094">
        <ele>801</ele>
        <time>2011-01-02T13:22:32Z</time>
      </trkpt>
      <trkpt lat="43.80684" lon="7.25099">
        <ele>800</ele>
        <time>2011-01-02T13:22:35Z</time>
      </trkpt>
      <trkpt lat="43.80672" lon="7.25102">
        <ele>799</ele>
        <time>2011-01-02T13:22:37Z</time>
      </trkpt>
      <trkpt lat="43.8066" lon="7.25104">
        <ele>799</ele>
        <time>2011-01-02T13:22:40Z</time>
      </trkpt>
      <trkpt lat="43.80651" lon="7.25105">
        <ele>798</ele>
        <time>2011-01-02T13:22:42Z</time>
      </trkpt>
      <trkpt lat="43.80641" lon="7.25108">
        <ele>797</ele>
        <time>2011-01-02T13:22:47Z</time>
      </trkpt>
      <trkpt lat="43.8064" lon="7.25108">
        <ele>797</ele>
        <time>2011-01-02T13:22:48Z</time>
      </trkpt>
      <trkpt lat="43.8063" lon="7.25111">
        <ele>797</ele>
        <time>2011-01-02T13:22:53Z</time>
      </trkpt>
      <trkpt lat="43.80619" lon="7.25115">
        <ele>796</ele>
        <time>2011-01-02T13:22:57Z</time>
      </trkpt>
      <trkpt lat="43.80617" lon="7.25116">
        <ele>796</ele>
        <time>2011-01-02T13:22:58Z</time>
      </trkpt>
      <trkpt lat="43.80608" lon="7.25118">
        <ele>796</ele>
        <time>2011-01-02T13:23:01Z</time>
      </trkpt>
      <trkpt lat="43.80599" lon="7.2512">
        <ele>796</ele>
        <time>2011-01-02T13:23:03Z</time>
      </trkpt>
      <trkpt lat="43.80588" lon="7.25122">
        <ele>796</ele>
        <time>2011-01-02T13:23:06Z</time>
      </trkpt>
      <trkpt lat="43.80576" lon="7.25123">
        <ele>796</ele>
        <time>2011-01-02T13:23:08Z</time>
      </trkpt>
      <trkpt lat="43.80567" lon="7.25124">
        <ele>795</ele>
        <time>2011-01-02T13:23:09Z</time>
      </trkpt>
      <trkpt lat="43.80558" lon="7.25125">
        <ele>795</ele>
        <time>2011-01-02T13:23:11Z</time>
      </trkpt>
      <trkpt lat="43.80545" lon="7.25128">
        <ele>795</ele>
        <time>2011-01-02T13:23:13Z</time>
      </trkpt>
      <trkpt lat="43.80531" lon="7.25129">
        <ele>795</ele>
        <time>2011-01-02T13:23:15Z</time>
      </trkpt>
      <trkpt lat="43.8052" lon="7.25135">
        <ele>794</ele>
        <time>2011-01-02T13:23:18Z</time>
      </trkpt>
      <trkpt lat="43.80517" lon="7.25136">
        <ele>794</ele>
        <time>2011-01-02T13:23:18Z</time>
      </trkpt>
      <trkpt lat="43.80507" lon="7.2514">
        <ele>794</ele>
        <time>2011-01-02T13:23:21Z</time>
      </trkpt>
      <trkpt lat="43.80497" lon="7.25142">
        <ele>794</ele>
        <time>2011-01-02T13:23:51Z</time>
      </trkpt>
      <trkpt lat="43.80496" lon="7.25142">
        <ele>794</ele>
        <time>2011-01-02T13:23:52Z</time>
      </trkpt>
      <trkpt lat="43.80486" lon="7.25143">
        <ele>794</ele>
        <time>2011-01-02T13:23:56Z</time>
      </trkpt>
      <trkpt lat="43.80475" lon="7.25146">
        <ele>794</ele>
        <time>2011-01-02T13:24:00Z</time>
      </trkpt>
      <trkpt lat="43.80468" lon="7.25148">
        <ele>794</ele>
        <time>2011-01-02T13:24:02Z</time>
      </trkpt>
      <trkpt lat="43.80458" lon="7.25151">
        <ele>794</ele>
        <time>2011-01-02T13:24:05Z</time>
      </trkpt>
      <trkpt lat="43.80449" lon="7.25154">
        <ele>794</ele>
        <time>2011-01-02T13:24:08Z</time>
      </trkpt>
      <trkpt lat="43.80437" lon="7.25157">
        <ele>794</ele>
        <time>2011-01-02T13:24:11Z</time>
      </trkpt>
      <trkpt lat="43.80425" lon="7.25161">
        <ele>794</ele>
        <time>2011-01-02T13:24:13Z</time>
      </trkpt>
      <trkpt lat="43.80421" lon="7.25162">
        <ele>794</ele>
        <time>2011-01-02T13:24:14Z</time>
      </trkpt>
      <trkpt lat="43.80413" lon="7.25165">
        <ele>794</ele>
        <time>2011-01-02T13:24:15Z</time>
      </trkpt>
      <trkpt lat="43.80403" lon="7.2517">
        <ele>794</ele>
        <time>2011-01-02T13:24:17Z</time>
      </trkpt>
      <trkpt lat="43.80394" lon="7.25174">
        <ele>794</ele>
        <time>2011-01-02T13:24:18Z</time>
      </trkpt>
      <trkpt lat="43.80382" lon="7.25177">
        <ele>794</ele>
        <time>2011-01-02T13:24:20Z</time>
      </trkpt>
      <trkpt lat="43.80369" lon="7.25179">
        <ele>794</ele>
        <time>2011-01-02T13:24:23Z</time>
      </trkpt>
      <trkpt lat="43.8036" lon="7.2518">
        <ele>794</ele>
        <time>2011-01-02T13:24:24Z</time>
      </trkpt>
      <trkpt lat="43.8035" lon="7.2518">
        <ele>793</ele>
        <time>2011-01-02T13:24:26Z</time>
      </trkpt>
      <trkpt lat="43.80339" lon="7.25179">
        <ele>793</ele>
        <time>2011-01-02T13:24:27Z</time>
      </trkpt>
      <trkpt lat="43.80327" lon="7.25178">
        <ele>792</ele>
        <time>2011-01-02T13:24:29Z</time>
      </trkpt>
      <trkpt lat="43.80315" lon="7.25176">
        <ele>792</ele>
        <time>2011-01-02T13:24:30Z</time>
      </trkpt>
      <trkpt lat="43.80303" lon="7.25173">
        <ele>792</ele>
        <time>2011-01-02T13:24:32Z</time>
      </trkpt>
      <trkpt lat="43.80293" lon="7.25168">
        <ele>791</ele>
        <time>2011-01-02T13:24:33Z</time>
      </trkpt>
      <trkpt lat="43.80284" lon="7.25163">
        <ele>791</ele>
        <time>2011-01-02T13:24:35Z</time>
      </trkpt>
      <trkpt lat="43.80273" lon="7.25155">
        <ele>790</ele>
        <time>2011-01-02T13:24:37Z</time>
      </trkpt>
      <trkpt lat="43.8027" lon="7.25153">
        <ele>790</ele>
        <time>2011-01-02T13:24:38Z</time>
      </trkpt>
      <trkpt lat="43.80264" lon="7.25143">
        <ele>790</ele>
        <time>2011-01-02T13:24:40Z</time>
      </trkpt>
      <trkpt lat="43.80258" lon="7.25132">
        <ele>789</ele>
        <time>2011-01-02T13:24:45Z</time>
      </trkpt>
      <trkpt lat="43.80249" lon="7.25124">
        <ele>789</ele>
        <time>2011-01-02T13:24:48Z</time>
      </trkpt>
      <trkpt lat="43.80241" lon="7.25116">
        <ele>789</ele>
        <time>2011-01-02T13:24:51Z</time>
      </trkpt>
      <trkpt lat="43.80232" lon="7.25106">
        <ele>789</ele>
        <time>2011-01-02T13:24:53Z</time>
      </trkpt>
      <trkpt lat="43.80224" lon="7.25095">
        <ele>789</ele>
        <time>2011-01-02T13:24:55Z</time>
      </trkpt>
      <trkpt lat="43.80217" lon="7.25084">
        <ele>789</ele>
        <time>2011-01-02T13:24:57Z</time>
      </trkpt>
      <trkpt lat="43.8021" lon="7.25073">
        <ele>789</ele>
        <time>2011-01-02T13:25:00Z</time>
      </trkpt>
      <trkpt lat="43.80204" lon="7.25062">
        <ele>790</ele>
        <time>2011-01-02T13:25:02Z</time>
      </trkpt>
      <trkpt lat="43.80199" lon="7.2505">
        <ele>790</ele>
        <time>2011-01-02T13:25:04Z</time>
      </trkpt>
      <trkpt lat="43.80195" lon="7.25038">
        <ele>790</ele>
        <time>2011-01-02T13:25:06Z</time>
      </trkpt>
      <trkpt lat="43.80188" lon="7.25028">
        <ele>790</ele>
        <time>2011-01-02T13:25:09Z</time>
      </trkpt>
      <trkpt lat="43.8018" lon="7.25016">
        <ele>790</ele>
        <time>2011-01-02T13:25:11Z</time>
      </trkpt>
      <trkpt lat="43.80173" lon="7.25007">
        <ele>789</ele>
        <time>2011-01-02T13:25:13Z</time>
      </trkpt>
      <trkpt lat="43.80164" lon="7.24998">
        <ele>789</ele>
        <time>2011-01-02T13:25:15Z</time>
      </trkpt>
      <trkpt lat="43.80155" lon="7.24992">
        <ele>789</ele>
        <time>2011-01-02T13:25:17Z</time>
      </trkpt>
      <trkpt lat="43.80145" lon="7.24991">
        <ele>788</ele>
        <time>2011-01-02T13:25:19Z</time>
      </trkpt>
      <trkpt lat="43.80133" lon="7.24994">
        <ele>788</ele>
        <time>2011-01-02T13:25:22Z</time>
      </trkpt>
      <trkpt lat="43.80122" lon="7.24991">
        <ele>787</ele>
        <time>2011-01-02T13:25:24Z</time>
      </trkpt>
      <trkpt lat="43.80112" lon="7.24985">
        <ele>786</ele>
        <time>2011-01-02T13:25:26Z</time>
      </trkpt>
      <trkpt lat="43.80104" lon="7.24976">
        <ele>786</ele>
        <time>2011-01-02T13:25:28Z</time>
      </trkpt>
      <trkpt lat="43.80096" lon="7.24966">
        <ele>785</ele>
        <time>2011-01-02T13:25:31Z</time>
      </trkpt>
      <trkpt lat="43.8009" lon="7.24954">
        <ele>785</ele>
        <time>2011-01-02T13:25:33Z</time>
      </trkpt>
      <trkpt lat="43.80084" lon="7.24942">
        <ele>785</ele>
        <time>2011-01-02T13:25:35Z</time>
      </trkpt>
      <trkpt lat="43.80078" lon="7.24931">
        <ele>784</ele>
        <time>2011-01-02T13:25:37Z</time>
      </trkpt>
      <trkpt lat="43.80075" lon="7.24918">
        <ele>784</ele>
        <time>2011-01-02T13:25:40Z</time>
      </trkpt>
      <trkpt lat="43.80072" lon="7.24903">
        <ele>784</ele>
        <time>2011-01-02T13:25:42Z</time>
      </trkpt>
      <trkpt lat="43.80069" lon="7.24888">
        <ele>783</ele>
        <time>2011-01-02T13:25:43Z</time>
      </trkpt>
      <trkpt lat="43.80066" lon="7.24873">
        <ele>783</ele>
        <time>2011-01-02T13:25:45Z</time>
      </trkpt>
      <trkpt lat="43.80066" lon="7.2486">
        <ele>783</ele>
        <time>2011-01-02T13:25:46Z</time>
      </trkpt>
      <trkpt lat="43.80068" lon="7.24845">
        <ele>782</ele>
        <time>2011-01-02T13:25:49Z</time>
      </trkpt>
      <trkpt lat="43.80071" lon="7.24831">
        <ele>781</ele>
        <time>2011-01-02T13:25:51Z</time>
      </trkpt>
      <trkpt lat="43.8007" lon="7.24816">
        <ele>781</ele>
        <time>2011-01-02T13:25:53Z</time>
      </trkpt>
      <trkpt lat="43.80067" lon="7.24801">
        <ele>780</ele>
        <time>2011-01-02T13:25:56Z</time>
      </trkpt>
      <trkpt lat="43.80065" lon="7.24791">
        <ele>779</ele>
        <time>2011-01-02T13:25:58Z</time>
      </trkpt>
      <trkpt lat="43.80062" lon="7.24777">
        <ele>778</ele>
        <time>2011-01-02T13:26:01Z</time>
      </trkpt>
      <trkpt lat="43.8006" lon="7.24764">
        <ele>777</ele>
        <time>2011-01-02T13:26:04Z</time>
      </trkpt>
      <trkpt lat="43.80058" lon="7.24751">
        <ele>776</ele>
        <time>2011-01-02T13:26:07Z</time>
      </trkpt>
      <trkpt lat="43.80055" lon="7.24736">
        <ele>776</ele>
        <time>2011-01-02T13:26:10Z</time>
      </trkpt>
      <trkpt lat="43.8005" lon="7.24721">
        <ele>776</ele>
        <time>2011-01-02T13:26:12Z</time>
      </trkpt>
      <trkpt lat="43.80045" lon="7.24707">
        <ele>776</ele>
        <time>2011-01-02T13:26:15Z</time>
      </trkpt>
      <trkpt lat="43.80039" lon="7.24694">
        <ele>776</ele>
        <time>2011-01-02T13:26:17Z</time>
      </trkpt>
      <trkpt lat="43.80035" lon="7.24681">
        <ele>776</ele>
        <time>2011-01-02T13:26:19Z</time>
      </trkpt>
      <trkpt lat="43.80031" lon="7.24668">
        <ele>777</ele>
        <time>2011-01-02T13:26:24Z</time>
      </trkpt>
      <trkpt lat="43.80023" lon="7.24673">
        <ele>774</ele>
        <time>2011-01-02T13:26:31Z</time>
      </trkpt>
      <trkpt lat="43.80015" lon="7.24679">
        <ele>771</ele>
        <time>2011-01-02T13:26:39Z</time>
      </trkpt>
      <trkpt lat="43.80002" lon="7.2468">
        <ele>758</ele>
        <time>2011-01-02T13:27:07Z</time>
      </trkpt>
      <trkpt lat="43.79994" lon="7.24678">
        <ele>753</ele>
        <time>2011-01-02T13:27:33Z</time>
      </trkpt>
      <trkpt lat="43.79984" lon="7.24676">
        <ele>752</ele>
        <time>2011-01-02T13:27:47Z</time>
      </trkpt>
      <trkpt lat="43.79975" lon="7.2468">
        <ele>752</ele>
        <time>2011-01-02T13:27:55Z</time>
      </trkpt>
      <trkpt lat="43.79966" lon="7.24683">
        <ele>752</ele>
        <time>2011-01-02T13:28:02Z</time>
      </trkpt>
      <trkpt lat="43.79957" lon="7.24686">
        <ele>752</ele>
        <time>2011-01-02T13:28:09Z</time>
      </trkpt>
      <trkpt lat="43.79948" lon="7.2469">
        <ele>750</ele>
        <time>2011-01-02T13:28:16Z</time>
      </trkpt>
      <trkpt lat="43.79939" lon="7.24693">
        <ele>751</ele>
        <time>2011-01-02T13:28:24Z</time>
      </trkpt>
      <trkpt lat="43.79929" lon="7.24696">
        <ele>751</ele>
        <time>2011-01-02T13:28:32Z</time>
      </trkpt>
      <trkpt lat="43.7992" lon="7.24699">
        <ele>751</ele>
        <time>2011-01-02T13:28:40Z</time>
      </trkpt>
      <trkpt lat="43.79911" lon="7.24702">
        <ele>751</ele>
        <time>2011-01-02T13:28:48Z</time>
      </trkpt>
      <trkpt lat="43.79902" lon="7.24705">
        <ele>752</ele>
        <time>2011-01-02T13:28:55Z</time>
      </trkpt>
      <trkpt lat="43.79893" lon="7.24708">
        <ele>752</ele>
        <time>2011-01-02T13:29:04Z</time>
      </trkpt>
      <trkpt lat="43.79884" lon="7.2471">
        <ele>753</ele>
        <time>2011-01-02T13:29:13Z</time>
      </trkpt>
      <trkpt lat="43.79875" lon="7.24713">
        <ele>752</ele>
        <time>2011-01-02T13:29:22Z</time>
      </trkpt>
      <trkpt lat="43.79866" lon="7.24718">
        <ele>753</ele>
        <time>2011-01-02T13:29:31Z</time>
      </trkpt>
      <trkpt lat="43.79863" lon="7.2472">
        <ele>753</ele>
        <time>2011-01-02T13:29:34Z</time>
      </trkpt>
      <trkpt lat="43.79855" lon="7.24725">
        <ele>754</ele>
        <time>2011-01-02T13:29:43Z</time>
      </trkpt>
      <trkpt lat="43.79847" lon="7.24731">
        <ele>755</ele>
        <time>2011-01-02T13:29:51Z</time>
      </trkpt>
      <trkpt lat="43.79839" lon="7.24738">
        <ele>755</ele>
        <time>2011-01-02T13:29:59Z</time>
      </trkpt>
      <trkpt lat="43.79831" lon="7.24745">
        <ele>757</ele>
        <time>2011-01-02T13:30:08Z</time>
      </trkpt>
      <trkpt lat="43.7983" lon="7.24745">
        <ele>757</ele>
        <time>2011-01-02T13:30:09Z</time>
      </trkpt>
      <trkpt lat="43.79821" lon="7.24749">
        <ele>759</ele>
        <time>2011-01-02T13:30:21Z</time>
      </trkpt>
      <trkpt lat="43.79815" lon="7.2474">
        <ele>772</ele>
        <time>2011-01-02T13:32:23Z</time>
      </trkpt>
      <trkpt lat="43.79805" lon="7.24744">
        <ele>769</ele>
        <time>2011-01-02T13:32:29Z</time>
      </trkpt>
      <trkpt lat="43.79797" lon="7.24751">
        <ele>766</ele>
        <time>2011-01-02T13:32:35Z</time>
      </trkpt>
      <trkpt lat="43.79788" lon="7.24758">
        <ele>763</ele>
        <time>2011-01-02T13:32:40Z</time>
      </trkpt>
      <trkpt lat="43.79778" lon="7.24763">
        <ele>762</ele>
        <time>2011-01-02T13:32:43Z</time>
      </trkpt>
      <trkpt lat="43.79767" lon="7.2477">
        <ele>761</ele>
        <time>2011-01-02T13:32:45Z</time>
      </trkpt>
      <trkpt lat="43.79757" lon="7.24776">
        <ele>760</ele>
        <time>2011-01-02T13:32:47Z</time>
      </trkpt>
      <trkpt lat="43.79749" lon="7.24782">
        <ele>759</ele>
        <time>2011-01-02T13:32:49Z</time>
      </trkpt>
      <trkpt lat="43.79739" lon="7.2479">
        <ele>759</ele>
        <time>2011-01-02T13:32:52Z</time>
      </trkpt>
      <trkpt lat="43.79728" lon="7.24799">
        <ele>758</ele>
        <time>2011-01-02T13:32:54Z</time>
      </trkpt>
      <trkpt lat="43.79718" lon="7.24809">
        <ele>757</ele>
        <time>2011-01-02T13:32:56Z</time>
      </trkpt>
      <trkpt lat="43.79707" lon="7.24819">
        <ele>757</ele>
        <time>2011-01-02T13:32:58Z</time>
      </trkpt>
      <trkpt lat="43.79698" lon="7.2483">
        <ele>757</ele>
        <time>2011-01-02T13:33:00Z</time>
      </trkpt>
      <trkpt lat="43.79688" lon="7.24842">
        <ele>756</ele>
        <time>2011-01-02T13:33:01Z</time>
      </trkpt>
      <trkpt lat="43.79678" lon="7.24854">
        <ele>756</ele>
        <time>2011-01-02T13:33:03Z</time>
      </trkpt>
      <trkpt lat="43.79668" lon="7.24865">
        <ele>755</ele>
        <time>2011-01-02T13:33:04Z</time>
      </trkpt>
      <trkpt lat="43.79658" lon="7.24875">
        <ele>755</ele>
        <time>2011-01-02T13:33:06Z</time>
      </trkpt>
      <trkpt lat="43.79649" lon="7.24885">
        <ele>754</ele>
        <time>2011-01-02T13:33:07Z</time>
      </trkpt>
      <trkpt lat="43.79644" lon="7.24888">
        <ele>753</ele>
        <time>2011-01-02T13:33:08Z</time>
      </trkpt>
      <trkpt lat="43.79634" lon="7.24894">
        <ele>752</ele>
        <time>2011-01-02T13:33:10Z</time>
      </trkpt>
      <trkpt lat="43.79623" lon="7.24897">
        <ele>750</ele>
        <time>2011-01-02T13:33:11Z</time>
      </trkpt>
      <trkpt lat="43.7961" lon="7.249">
        <ele>749</ele>
        <time>2011-01-02T13:33:13Z</time>
      </trkpt>
      <trkpt lat="43.79596" lon="7.24901">
        <ele>748</ele>
        <time>2011-01-02T13:33:14Z</time>
      </trkpt>
      <trkpt lat="43.79582" lon="7.24903">
        <ele>747</ele>
        <time>2011-01-02T13:33:16Z</time>
      </trkpt>
      <trkpt lat="43.79568" lon="7.24904">
        <ele>746</ele>
        <time>2011-01-02T13:33:17Z</time>
      </trkpt>
      <trkpt lat="43.79555" lon="7.24904">
        <ele>745</ele>
        <time>2011-01-02T13:33:19Z</time>
      </trkpt>
      <trkpt lat="43.79542" lon="7.24904">
        <ele>744</ele>
        <time>2011-01-02T13:33:20Z</time>
      </trkpt>
      <trkpt lat="43.79529" lon="7.24903">
        <ele>743</ele>
        <time>2011-01-02T13:33:21Z</time>
      </trkpt>
      <trkpt lat="43.79516" lon="7.24902">
        <ele>742</ele>
        <time>2011-01-02T13:33:23Z</time>
      </trkpt>
      <trkpt lat="43.79504" lon="7.24901">
        <ele>742</ele>
        <time>2011-01-02T13:33:24Z</time>
      </trkpt>
      <trkpt lat="43.79492" lon="7.24899">
        <ele>742</ele>
        <time>2011-01-02T13:33:26Z</time>
      </trkpt>
      <trkpt lat="43.7948" lon="7.24895">
        <ele>741</ele>
        <time>2011-01-02T13:33:27Z</time>
      </trkpt>
      <trkpt lat="43.79468" lon="7.24891">
        <ele>741</ele>
        <time>2011-01-02T13:33:29Z</time>
      </trkpt>
      <trkpt lat="43.79457" lon="7.24887">
        <ele>741</ele>
        <time>2011-01-02T13:33:30Z</time>
      </trkpt>
      <trkpt lat="43.79445" lon="7.24882">
        <ele>741</ele>
        <time>2011-01-02T13:33:32Z</time>
      </trkpt>
      <trkpt lat="43.79436" lon="7.24876">
        <ele>741</ele>
        <time>2011-01-02T13:33:33Z</time>
      </trkpt>
      <trkpt lat="43.79426" lon="7.2487">
        <ele>741</ele>
        <time>2011-01-02T13:33:35Z</time>
      </trkpt>
      <trkpt lat="43.79417" lon="7.24863">
        <ele>740</ele>
        <time>2011-01-02T13:33:36Z</time>
      </trkpt>
      <trkpt lat="43.79408" lon="7.24857">
        <ele>740</ele>
        <time>2011-01-02T13:33:38Z</time>
      </trkpt>
      <trkpt lat="43.794" lon="7.24851">
        <ele>740</ele>
        <time>2011-01-02T13:33:39Z</time>
      </trkpt>
      <trkpt lat="43.79389" lon="7.24846">
        <ele>740</ele>
        <time>2011-01-02T13:33:42Z</time>
      </trkpt>
      <trkpt lat="43.7938" lon="7.24842">
        <ele>740</ele>
        <time>2011-01-02T13:33:44Z</time>
      </trkpt>
      <trkpt lat="43.79371" lon="7.24841">
        <ele>740</ele>
        <time>2011-01-02T13:33:47Z</time>
      </trkpt>
      <trkpt lat="43.79361" lon="7.24841">
        <ele>741</ele>
        <time>2011-01-02T13:33:53Z</time>
      </trkpt>
      <trkpt lat="43.79352" lon="7.24839">
        <ele>740</ele>
        <time>2011-01-02T13:34:02Z</time>
      </trkpt>
      <trkpt lat="43.79343" lon="7.24838">
        <ele>740</ele>
        <time>2011-01-02T13:34:04Z</time>
      </trkpt>
      <trkpt lat="43.7933" lon="7.24835">
        <ele>738</ele>
        <time>2011-01-02T13:34:06Z</time>
      </trkpt>
      <trkpt lat="43.7932" lon="7.24831">
        <ele>738</ele>
        <time>2011-01-02T13:34:08Z</time>
      </trkpt>
      <trkpt lat="43.79312" lon="7.24825">
        <ele>738</ele>
        <time>2011-01-02T13:34:09Z</time>
      </trkpt>
      <trkpt lat="43.79303" lon="7.24818">
        <ele>737</ele>
        <time>2011-01-02T13:34:11Z</time>
      </trkpt>
      <trkpt lat="43.79295" lon="7.24812">
        <ele>736</ele>
        <time>2011-01-02T13:34:12Z</time>
      </trkpt>
      <trkpt lat="43.79286" lon="7.24803">
        <ele>735</ele>
        <time>2011-01-02T13:34:14Z</time>
      </trkpt>
      <trkpt lat="43.79277" lon="7.24802">
        <ele>735</ele>
        <time>2011-01-02T13:34:17Z</time>
      </trkpt>
      <trkpt lat="43.79268" lon="7.2481">
        <ele>734</ele>
        <time>2011-01-02T13:34:20Z</time>
      </trkpt>
      <trkpt lat="43.79258" lon="7.24816">
        <ele>734</ele>
        <time>2011-01-02T13:34:22Z</time>
      </trkpt>
      <trkpt lat="43.79249" lon="7.24822">
        <ele>733</ele>
        <time>2011-01-02T13:34:24Z</time>
      </trkpt>
      <trkpt lat="43.7924" lon="7.24829">
        <ele>733</ele>
        <time>2011-01-02T13:34:27Z</time>
      </trkpt>
      <trkpt lat="43.79232" lon="7.24838">
        <ele>732</ele>
        <time>2011-01-02T13:34:29Z</time>
      </trkpt>
      <trkpt lat="43.79224" lon="7.24849">
        <ele>732</ele>
        <time>2011-01-02T13:34:31Z</time>
      </trkpt>
      <trkpt lat="43.79216" lon="7.24858">
        <ele>731</ele>
        <time>2011-01-02T13:34:34Z</time>
      </trkpt>
      <trkpt lat="43.79209" lon="7.24866">
        <ele>731</ele>
        <time>2011-01-02T13:34:36Z</time>
      </trkpt>
      <trkpt lat="43.79203" lon="7.24876">
        <ele>731</ele>
        <time>2011-01-02T13:34:41Z</time>
      </trkpt>
      <trkpt lat="43.79204" lon="7.24892">
        <ele>731</ele>
        <time>2011-01-02T13:34:48Z</time>
      </trkpt>
      <trkpt lat="43.79205" lon="7.24894">
        <ele>731</ele>
        <time>2011-01-02T13:34:49Z</time>
      </trkpt>
      <trkpt lat="43.7921" lon="7.24906">
        <ele>730</ele>
        <time>2011-01-02T13:34:55Z</time>
      </trkpt>
      <trkpt lat="43.79216" lon="7.24917">
        <ele>726</ele>
        <time>2011-01-02T13:35:01Z</time>
      </trkpt>
      <trkpt lat="43.79222" lon="7.2493">
        <ele>719</ele>
        <time>2011-01-02T13:35:21Z</time>
      </trkpt>
      <trkpt lat="43.79226" lon="7.24935">
        <ele>718</ele>
        <time>2011-01-02T13:35:33Z</time>
      </trkpt>
      <trkpt lat="43.79235" lon="7.24939">
        <ele>711</ele>
        <time>2011-01-02T13:35:53Z</time>
      </trkpt>
      <trkpt lat="43.79244" lon="7.24944">
        <ele>709</ele>
        <time>2011-01-02T13:35:58Z</time>
      </trkpt>
      <trkpt lat="43.79251" lon="7.24953">
        <ele>707</ele>
        <time>2011-01-02T13:36:04Z</time>
      </trkpt>
      <trkpt lat="43.79257" lon="7.24963">
        <ele>705</ele>
        <time>2011-01-02T13:36:09Z</time>
      </trkpt>
      <trkpt lat="43.7926" lon="7.24975">
        <ele>699</ele>
        <time>2011-01-02T13:36:24Z</time>
      </trkpt>
      <trkpt lat="43.79264" lon="7.24988">
        <ele>696</ele>
        <time>2011-01-02T13:36:31Z</time>
      </trkpt>
      <trkpt lat="43.79261" lon="7.24995">
        <ele>694</ele>
        <time>2011-01-02T13:36:52Z</time>
      </trkpt>
      <trkpt lat="43.79256" lon="7.25005">
        <ele>680</ele>
        <time>2011-01-02T13:37:16Z</time>
      </trkpt>
      <trkpt lat="43.79248" lon="7.25012">
        <ele>680</ele>
        <time>2011-01-02T13:37:20Z</time>
      </trkpt>
      <trkpt lat="43.79238" lon="7.25017">
        <ele>679</ele>
        <time>2011-01-02T13:37:24Z</time>
      </trkpt>
      <trkpt lat="43.79228" lon="7.25023">
        <ele>678</ele>
        <time>2011-01-02T13:37:27Z</time>
      </trkpt>
      <trkpt lat="43.79219" lon="7.25027">
        <ele>678</ele>
        <time>2011-01-02T13:37:32Z</time>
      </trkpt>
      <trkpt lat="43.79209" lon="7.25032">
        <ele>678</ele>
        <time>2011-01-02T13:37:37Z</time>
      </trkpt>
      <trkpt lat="43.792" lon="7.25039">
        <ele>678</ele>
        <time>2011-01-02T13:37:40Z</time>
      </trkpt>
      <trkpt lat="43.79191" lon="7.25049">
        <ele>677</ele>
        <time>2011-01-02T13:37:43Z</time>
      </trkpt>
      <trkpt lat="43.79183" lon="7.25058">
        <ele>677</ele>
        <time>2011-01-02T13:37:46Z</time>
      </trkpt>
      <trkpt lat="43.79176" lon="7.25068">
        <ele>676</ele>
        <time>2011-01-02T13:37:49Z</time>
      </trkpt>
      <trkpt lat="43.7917" lon="7.25082">
        <ele>675</ele>
        <time>2011-01-02T13:37:52Z</time>
      </trkpt>
      <trkpt lat="43.79165" lon="7.25093">
        <ele>674</ele>
        <time>2011-01-02T13:37:55Z</time>
      </trkpt>
      <trkpt lat="43.79159" lon="7.25105">
        <ele>673</ele>
        <time>2011-01-02T13:37:58Z</time>
      </trkpt>
      <trkpt lat="43.79152" lon="7.25118">
        <ele>673</ele>
        <time>2011-01-02T13:38:01Z</time>
      </trkpt>
      <trkpt lat="43.79147" lon="7.25129">
        <ele>672</ele>
        <time>2011-01-02T13:38:03Z</time>
      </trkpt>
      <trkpt lat="43.79143" lon="7.2514">
        <ele>670</ele>
        <time>2011-01-02T13:38:06Z</time>
      </trkpt>
      <trkpt lat="43.79139" lon="7.25152">
        <ele>669</ele>
        <time>2011-01-02T13:38:10Z</time>
      </trkpt>
      <trkpt lat="43.79136" lon="7.25166">
        <ele>666</ele>
        <time>2011-01-02T13:38:18Z</time>
      </trkpt>
      <trkpt lat="43.7913" lon="7.25179">
        <ele>665</ele>
        <time>2011-01-02T13:38:21Z</time>
      </trkpt>
      <trkpt lat="43.79125" lon="7.25192">
        <ele>662</ele>
        <time>2011-01-02T13:38:25Z</time>
      </trkpt>
      <trkpt lat="43.79119" lon="7.25202">
        <ele>661</ele>
        <time>2011-01-02T13:38:29Z</time>
      </trkpt>
      <trkpt lat="43.79112" lon="7.25211">
        <ele>660</ele>
        <time>2011-01-02T13:38:34Z</time>
      </trkpt>
      <trkpt lat="43.79112" lon="7.25214">
        <ele>657</ele>
        <time>2011-01-02T13:38:57Z</time>
      </trkpt>
      <trkpt lat="43.79107" lon="7.25226">
        <ele>655</ele>
        <time>2011-01-02T13:39:57Z</time>
      </trkpt>
      <trkpt lat="43.79105" lon="7.25228">
        <ele>655</ele>
        <time>2011-01-02T13:40:03Z</time>
      </trkpt>
      <trkpt lat="43.79096" lon="7.25233">
        <ele>645</ele>
        <time>2011-01-02T13:41:29Z</time>
      </trkpt>
      <trkpt lat="43.79087" lon="7.2523">
        <ele>643</ele>
        <time>2011-01-02T13:41:41Z</time>
      </trkpt>
      <trkpt lat="43.79077" lon="7.25227">
        <ele>643</ele>
        <time>2011-01-02T13:41:47Z</time>
      </trkpt>
      <trkpt lat="43.79075" lon="7.25226">
        <ele>643</ele>
        <time>2011-01-02T13:41:48Z</time>
      </trkpt>
      <trkpt lat="43.79069" lon="7.25218">
        <ele>644</ele>
        <time>2011-01-02T13:41:52Z</time>
      </trkpt>
      <trkpt lat="43.79062" lon="7.25206">
        <ele>644</ele>
        <time>2011-01-02T13:41:58Z</time>
      </trkpt>
      <trkpt lat="43.79057" lon="7.25194">
        <ele>644</ele>
        <time>2011-01-02T13:42:03Z</time>
      </trkpt>
      <trkpt lat="43.7905" lon="7.25186">
        <ele>644</ele>
        <time>2011-01-02T13:42:14Z</time>
      </trkpt>
      <trkpt lat="43.79043" lon="7.25179">
        <ele>644</ele>
        <time>2011-01-02T13:42:21Z</time>
      </trkpt>
      <trkpt lat="43.79037" lon="7.25168">
        <ele>644</ele>
        <time>2011-01-02T13:42:24Z</time>
      </trkpt>
      <trkpt lat="43.79031" lon="7.25157">
        <ele>645</ele>
        <time>2011-01-02T13:42:27Z</time>
      </trkpt>
      <trkpt lat="43.79023" lon="7.25145">
        <ele>644</ele>
        <time>2011-01-02T13:42:30Z</time>
      </trkpt>
      <trkpt lat="43.79016" lon="7.25134">
        <ele>642</ele>
        <time>2011-01-02T13:42:33Z</time>
      </trkpt>
      <trkpt lat="43.79012" lon="7.25122">
        <ele>642</ele>
        <time>2011-01-02T13:42:36Z</time>
      </trkpt>
      <trkpt lat="43.7901" lon="7.25109">
        <ele>642</ele>
        <time>2011-01-02T13:42:39Z</time>
      </trkpt>
      <trkpt lat="43.79008" lon="7.25097">
        <ele>642</ele>
        <time>2011-01-02T13:42:41Z</time>
      </trkpt>
      <trkpt lat="43.79004" lon="7.25085">
        <ele>643</ele>
        <time>2011-01-02T13:42:45Z</time>
      </trkpt>
      <trkpt lat="43.78999" lon="7.25073">
        <ele>643</ele>
        <time>2011-01-02T13:42:49Z</time>
      </trkpt>
      <trkpt lat="43.78993" lon="7.25061">
        <ele>643</ele>
        <time>2011-01-02T13:42:54Z</time>
      </trkpt>
      <trkpt lat="43.78985" lon="7.2505">
        <ele>644</ele>
        <time>2011-01-02T13:42:58Z</time>
      </trkpt>
      <trkpt lat="43.78978" lon="7.25039">
        <ele>644</ele>
        <time>2011-01-02T13:43:03Z</time>
      </trkpt>
      <trkpt lat="43.7897" lon="7.25029">
        <ele>644</ele>
        <time>2011-01-02T13:43:07Z</time>
      </trkpt>
      <trkpt lat="43.78961" lon="7.25025">
        <ele>644</ele>
        <time>2011-01-02T13:43:10Z</time>
      </trkpt>
      <trkpt lat="43.78948" lon="7.25027">
        <ele>644</ele>
        <time>2011-01-02T13:43:13Z</time>
      </trkpt>
      <trkpt lat="43.78939" lon="7.25029">
        <ele>644</ele>
        <time>2011-01-02T13:43:14Z</time>
      </trkpt>
      <trkpt lat="43.7893" lon="7.25032">
        <ele>644</ele>
        <time>2011-01-02T13:43:16Z</time>
      </trkpt>
      <trkpt lat="43.78918" lon="7.25036">
        <ele>644</ele>
        <time>2011-01-02T13:43:18Z</time>
      </trkpt>
      <trkpt lat="43.78906" lon="7.2504">
        <ele>644</ele>
        <time>2011-01-02T13:43:20Z</time>
      </trkpt>
      <trkpt lat="43.78896" lon="7.25042">
        <ele>644</ele>
        <time>2011-01-02T13:43:22Z</time>
      </trkpt>
      <trkpt lat="43.78887" lon="7.25045">
        <ele>645</ele>
        <time>2011-01-02T13:43:25Z</time>
      </trkpt>
      <trkpt lat="43.78878" lon="7.25047">
        <ele>644</ele>
        <time>2011-01-02T13:43:27Z</time>
      </trkpt>
      <trkpt lat="43.78868" lon="7.25049">
        <ele>644</ele>
        <time>2011-01-02T13:43:29Z</time>
      </trkpt>
      <trkpt lat="43.78859" lon="7.2505">
        <ele>644</ele>
        <time>2011-01-02T13:43:32Z</time>
      </trkpt>
      <trkpt lat="43.7885" lon="7.25051">
        <ele>644</ele>
        <time>2011-01-02T13:43:34Z</time>
      </trkpt>
      <trkpt lat="43.78839" lon="7.25051">
        <ele>645</ele>
        <time>2011-01-02T13:43:37Z</time>
      </trkpt>
      <trkpt lat="43.78827" lon="7.2505">
        <ele>645</ele>
        <time>2011-01-02T13:43:40Z</time>
      </trkpt>
      <trkpt lat="43.78818" lon="7.25048">
        <ele>645</ele>
        <time>2011-01-02T13:43:42Z</time>
      </trkpt>
      <trkpt lat="43.78808" lon="7.25045">
        <ele>644</ele>
        <time>2011-01-02T13:43:44Z</time>
      </trkpt>
      <trkpt lat="43.78802" lon="7.25044">
        <ele>645</ele>
        <time>2011-01-02T13:43:45Z</time>
      </trkpt>
      <trkpt lat="43.78791" lon="7.2504">
        <ele>645</ele>
        <time>2011-01-02T13:43:48Z</time>
      </trkpt>
      <trkpt lat="43.78779" lon="7.2504">
        <ele>644</ele>
        <time>2011-01-02T13:43:49Z</time>
      </trkpt>
      <trkpt lat="43.78766" lon="7.25042">
        <ele>644</ele>
        <time>2011-01-02T13:43:51Z</time>
      </trkpt>
      <trkpt lat="43.78752" lon="7.25045">
        <ele>644</ele>
        <time>2011-01-02T13:43:52Z</time>
      </trkpt>
      <trkpt lat="43.78745" lon="7.25047">
        <ele>644</ele>
        <time>2011-01-02T13:43:53Z</time>
      </trkpt>
      <trkpt lat="43.78732" lon="7.25051">
        <ele>643</ele>
        <time>2011-01-02T13:43:55Z</time>
      </trkpt>
      <trkpt lat="43.78719" lon="7.25056">
        <ele>643</ele>
        <time>2011-01-02T13:43:56Z</time>
      </trkpt>
      <trkpt lat="43.78707" lon="7.2506">
        <ele>642</ele>
        <time>2011-01-02T13:43:58Z</time>
      </trkpt>
      <trkpt lat="43.78695" lon="7.25064">
        <ele>641</ele>
        <time>2011-01-02T13:43:59Z</time>
      </trkpt>
      <trkpt lat="43.78684" lon="7.25066">
        <ele>639</ele>
        <time>2011-01-02T13:44:02Z</time>
      </trkpt>
      <trkpt lat="43.7868" lon="7.25053">
        <ele>637</ele>
        <time>2011-01-02T13:44:06Z</time>
      </trkpt>
      <trkpt lat="43.78678" lon="7.25037">
        <ele>635</ele>
        <time>2011-01-02T13:44:10Z</time>
      </trkpt>
      <trkpt lat="43.78677" lon="7.25023">
        <ele>633</ele>
        <time>2011-01-02T13:44:13Z</time>
      </trkpt>
      <trkpt lat="43.78675" lon="7.25008">
        <ele>632</ele>
        <time>2011-01-02T13:44:16Z</time>
      </trkpt>
      <trkpt lat="43.78673" lon="7.24993">
        <ele>631</ele>
        <time>2011-01-02T13:44:19Z</time>
      </trkpt>
      <trkpt lat="43.78672" lon="7.24976">
        <ele>631</ele>
        <time>2011-01-02T13:44:22Z</time>
      </trkpt>
      <trkpt lat="43.78671" lon="7.24963">
        <ele>630</ele>
        <time>2011-01-02T13:44:24Z</time>
      </trkpt>
      <trkpt lat="43.7867" lon="7.2495">
        <ele>630</ele>
        <time>2011-01-02T13:44:27Z</time>
      </trkpt>
      <trkpt lat="43.78669" lon="7.24937">
        <ele>629</ele>
        <time>2011-01-02T13:44:29Z</time>
      </trkpt>
      <trkpt lat="43.78666" lon="7.24923">
        <ele>629</ele>
        <time>2011-01-02T13:44:33Z</time>
      </trkpt>
      <trkpt lat="43.78658" lon="7.24917">
        <ele>628</ele>
        <time>2011-01-02T13:44:39Z</time>
      </trkpt>
      <trkpt lat="43.78667" lon="7.24914">
        <ele>627</ele>
        <time>2011-01-02T13:44:49Z</time>
      </trkpt>
      <trkpt lat="43.78667" lon="7.24897">
        <ele>627</ele>
        <time>2011-01-02T13:44:52Z</time>
      </trkpt>
      <trkpt lat="43.78665" lon="7.24884">
        <ele>627</ele>
        <time>2011-01-02T13:44:54Z</time>
      </trkpt>
      <trkpt lat="43.78662" lon="7.2487">
        <ele>627</ele>
        <time>2011-01-02T13:44:57Z</time>
      </trkpt>
      <trkpt lat="43.78659" lon="7.24854">
        <ele>627</ele>
        <time>2011-01-02T13:44:59Z</time>
      </trkpt>
      <trkpt lat="43.78656" lon="7.24838">
        <ele>627</ele>
        <time>2011-01-02T13:45:01Z</time>
      </trkpt>
      <trkpt lat="43.78653" lon="7.24823">
        <ele>627</ele>
        <time>2011-01-02T13:45:04Z</time>
      </trkpt>
      <trkpt lat="43.7865" lon="7.24809">
        <ele>627</ele>
        <time>2011-01-02T13:45:06Z</time>
      </trkpt>
      <trkpt lat="43.78651" lon="7.24796">
        <ele>627</ele>
        <time>2011-01-02T13:45:08Z</time>
      </trkpt>
      <trkpt lat="43.78655" lon="7.24784">
        <ele>626</ele>
        <time>2011-01-02T13:45:11Z</time>
      </trkpt>
      <trkpt lat="43.78664" lon="7.24779">
        <ele>625</ele>
        <time>2011-01-02T13:45:15Z</time>
      </trkpt>
      <trkpt lat="43.78673" lon="7.24771">
        <ele>625</ele>
        <time>2011-01-02T13:45:18Z</time>
      </trkpt>
      <trkpt lat="43.78681" lon="7.24763">
        <ele>624</ele>
        <time>2011-01-02T13:45:21Z</time>
      </trkpt>
      <trkpt lat="43.78683" lon="7.2476">
        <ele>625</ele>
        <time>2011-01-02T13:45:24Z</time>
      </trkpt>
      <trkpt lat="43.78681" lon="7.24745">
        <ele>625</ele>
        <time>2011-01-02T13:45:28Z</time>
      </trkpt>
      <trkpt lat="43.78677" lon="7.2473">
        <ele>624</ele>
        <time>2011-01-02T13:45:31Z</time>
      </trkpt>
      <trkpt lat="43.78675" lon="7.24716">
        <ele>624</ele>
        <time>2011-01-02T13:45:33Z</time>
      </trkpt>
      <trkpt lat="43.78673" lon="7.24703">
        <ele>623</ele>
        <time>2011-01-02T13:45:36Z</time>
      </trkpt>
      <trkpt lat="43.78671" lon="7.2469">
        <ele>622</ele>
        <time>2011-01-02T13:45:38Z</time>
      </trkpt>
      <trkpt lat="43.78667" lon="7.24677">
        <ele>621</ele>
        <time>2011-01-02T13:45:40Z</time>
      </trkpt>
      <trkpt lat="43.78663" lon="7.24666">
        <ele>620</ele>
        <time>2011-01-02T13:45:42Z</time>
      </trkpt>
      <trkpt lat="43.78656" lon="7.24653">
        <ele>619</ele>
        <time>2011-01-02T13:45:45Z</time>
      </trkpt>
      <trkpt lat="43.78651" lon="7.24646">
        <ele>619</ele>
        <time>2011-01-02T13:45:47Z</time>
      </trkpt>
      <trkpt lat="43.78643" lon="7.2464">
        <ele>619</ele>
        <time>2011-01-02T13:45:49Z</time>
      </trkpt>
      <trkpt lat="43.78632" lon="7.24636">
        <ele>619</ele>
        <time>2011-01-02T13:45:51Z</time>
      </trkpt>
      <trkpt lat="43.78621" lon="7.24636">
        <ele>618</ele>
        <time>2011-01-02T13:45:54Z</time>
      </trkpt>
      <trkpt lat="43.78608" lon="7.24642">
        <ele>617</ele>
        <time>2011-01-02T13:45:56Z</time>
      </trkpt>
      <trkpt lat="43.78599" lon="7.24647">
        <ele>616</ele>
        <time>2011-01-02T13:45:58Z</time>
      </trkpt>
      <trkpt lat="43.78591" lon="7.24653">
        <ele>616</ele>
        <time>2011-01-02T13:45:59Z</time>
      </trkpt>
      <trkpt lat="43.78583" lon="7.24661">
        <ele>615</ele>
        <time>2011-01-02T13:46:01Z</time>
      </trkpt>
      <trkpt lat="43.78573" lon="7.24669">
        <ele>614</ele>
        <time>2011-01-02T13:46:04Z</time>
      </trkpt>
      <trkpt lat="43.78567" lon="7.24661">
        <ele>613</ele>
        <time>2011-01-02T13:46:07Z</time>
      </trkpt>
      <trkpt lat="43.7857" lon="7.24649">
        <ele>612</ele>
        <time>2011-01-02T13:46:11Z</time>
      </trkpt>
      <trkpt lat="43.78576" lon="7.24639">
        <ele>611</ele>
        <time>2011-01-02T13:46:13Z</time>
      </trkpt>
      <trkpt lat="43.78584" lon="7.24627">
        <ele>611</ele>
        <time>2011-01-02T13:46:15Z</time>
      </trkpt>
      <trkpt lat="43.78593" lon="7.24615">
        <ele>610</ele>
        <time>2011-01-02T13:46:18Z</time>
      </trkpt>
      <trkpt lat="43.78604" lon="7.24607">
        <ele>610</ele>
        <time>2011-01-02T13:46:20Z</time>
      </trkpt>
      <trkpt lat="43.78614" lon="7.24601">
        <ele>609</ele>
        <time>2011-01-02T13:46:21Z</time>
      </trkpt>
      <trkpt lat="43.78623" lon="7.24596">
        <ele>609</ele>
        <time>2011-01-02T13:46:23Z</time>
      </trkpt>
      <trkpt lat="43.78634" lon="7.24587">
        <ele>609</ele>
        <time>2011-01-02T13:46:25Z</time>
      </trkpt>
      <trkpt lat="43.78639" lon="7.24576">
        <ele>609</ele>
        <time>2011-01-02T13:46:27Z</time>
      </trkpt>
      <trkpt lat="43.78643" lon="7.24563">
        <ele>608</ele>
        <time>2011-01-02T13:46:28Z</time>
      </trkpt>
      <trkpt lat="43.78645" lon="7.24549">
        <ele>608</ele>
        <time>2011-01-02T13:46:30Z</time>
      </trkpt>
      <trkpt lat="43.78645" lon="7.24533">
        <ele>608</ele>
        <time>2011-01-02T13:46:31Z</time>
      </trkpt>
      <trkpt lat="43.78645" lon="7.24518">
        <ele>607</ele>
        <time>2011-01-02T13:46:33Z</time>
      </trkpt>
      <trkpt lat="43.78644" lon="7.24503">
        <ele>607</ele>
        <time>2011-01-02T13:46:35Z</time>
      </trkpt>
      <trkpt lat="43.78643" lon="7.2449">
        <ele>604</ele>
        <time>2011-01-02T13:46:40Z</time>
      </trkpt>
      <trkpt lat="43.78643" lon="7.24477">
        <ele>604</ele>
        <time>2011-01-02T13:46:43Z</time>
      </trkpt>
      <trkpt lat="43.78644" lon="7.24461">
        <ele>602</ele>
        <time>2011-01-02T13:46:47Z</time>
      </trkpt>
      <trkpt lat="43.78646" lon="7.24447">
        <ele>601</ele>
        <time>2011-01-02T13:46:50Z</time>
      </trkpt>
      <trkpt lat="43.7865" lon="7.24431">
        <ele>601</ele>
        <time>2011-01-02T13:46:52Z</time>
      </trkpt>
      <trkpt lat="43.78658" lon="7.24418">
        <ele>600</ele>
        <time>2011-01-02T13:46:54Z</time>
      </trkpt>
      <trkpt lat="43.7866" lon="7.24405">
        <ele>599</ele>
        <time>2011-01-02T13:46:56Z</time>
      </trkpt>
      <trkpt lat="43.7865" lon="7.24406">
        <ele>599</ele>
        <time>2011-01-02T13:46:59Z</time>
      </trkpt>
      <trkpt lat="43.7864" lon="7.24413">
        <ele>598</ele>
        <time>2011-01-02T13:47:02Z</time>
      </trkpt>
      <trkpt lat="43.78632" lon="7.24418">
        <ele>598</ele>
        <time>2011-01-02T13:47:03Z</time>
      </trkpt>
      <trkpt lat="43.78621" lon="7.24425">
        <ele>597</ele>
        <time>2011-01-02T13:47:05Z</time>
      </trkpt>
      <trkpt lat="43.78611" lon="7.2443">
        <ele>596</ele>
        <time>2011-01-02T13:47:06Z</time>
      </trkpt>
      <trkpt lat="43.786" lon="7.24431">
        <ele>595</ele>
        <time>2011-01-02T13:47:08Z</time>
      </trkpt>
      <trkpt lat="43.78591" lon="7.24433">
        <ele>594</ele>
        <time>2011-01-02T13:47:09Z</time>
      </trkpt>
      <trkpt lat="43.78581" lon="7.24434">
        <ele>594</ele>
        <time>2011-01-02T13:47:11Z</time>
      </trkpt>
      <trkpt lat="43.78572" lon="7.24434">
        <ele>594</ele>
        <time>2011-01-02T13:47:12Z</time>
      </trkpt>
      <trkpt lat="43.78563" lon="7.24432">
        <ele>593</ele>
        <time>2011-01-02T13:47:14Z</time>
      </trkpt>
      <trkpt lat="43.78553" lon="7.24426">
        <ele>592</ele>
        <time>2011-01-02T13:47:15Z</time>
      </trkpt>
      <trkpt lat="43.78543" lon="7.24418">
        <ele>591</ele>
        <time>2011-01-02T13:47:17Z</time>
      </trkpt>
      <trkpt lat="43.78537" lon="7.24413">
        <ele>590</ele>
        <time>2011-01-02T13:47:17Z</time>
      </trkpt>
      <trkpt lat="43.78527" lon="7.24405">
        <ele>589</ele>
        <time>2011-01-02T13:47:19Z</time>
      </trkpt>
      <trkpt lat="43.78516" lon="7.24396">
        <ele>588</ele>
        <time>2011-01-02T13:47:20Z</time>
      </trkpt>
      <trkpt lat="43.78506" lon="7.24387">
        <ele>587</ele>
        <time>2011-01-02T13:47:22Z</time>
      </trkpt>
      <trkpt lat="43.78495" lon="7.2438">
        <ele>586</ele>
        <time>2011-01-02T13:47:23Z</time>
      </trkpt>
      <trkpt lat="43.78484" lon="7.24374">
        <ele>584</ele>
        <time>2011-01-02T13:47:25Z</time>
      </trkpt>
      <trkpt lat="43.78473" lon="7.2437">
        <ele>583</ele>
        <time>2011-01-02T13:47:26Z</time>
      </trkpt>
      <trkpt lat="43.78462" lon="7.2437">
        <ele>582</ele>
        <time>2011-01-02T13:47:28Z</time>
      </trkpt>
      <trkpt lat="43.7845" lon="7.24369">
        <ele>580</ele>
        <time>2011-01-02T13:47:30Z</time>
      </trkpt>
      <trkpt lat="43.7844" lon="7.24369">
        <ele>577</ele>
        <time>2011-01-02T13:47:34Z</time>
      </trkpt>
      <trkpt lat="43.78434" lon="7.24375">
        <ele>575</ele>
        <time>2011-01-02T13:47:37Z</time>
      </trkpt>
      <trkpt lat="43.78435" lon="7.2439">
        <ele>572</ele>
        <time>2011-01-02T13:47:43Z</time>
      </trkpt>
      <trkpt lat="43.7844" lon="7.24412">
        <ele>570</ele>
        <time>2011-01-02T13:48:01Z</time>
      </trkpt>
      <trkpt lat="43.78447" lon="7.2442">
        <ele>568</ele>
        <time>2011-01-02T13:48:23Z</time>
      </trkpt>
    </trkseg>
  </trk>
</gpx>